     2              OBSERVATION DATA    GPS                 RINEX VERSION / TYPE
TRRINEXO-V2.3.4-LH UCLA/SCEC 29-JUL-1994                    PGM / RUN BY / DATE
                                                            COMMENT
BIT 2 OF LLI (+4) FLAGS DATA COLLECTED UNDER "AS" CONDITION COMMENT
BIT 2 OF LLI (+4) FLAGS DATA COLLECTED UNDER "AS" CONDITION COMMENT
BIT 2 OF LLI (+4) FLAGS DATA COLLECTED UNDER "AS" CONDITION COMMENT
Original Marker Name: HPGN CALIF STA 0614 1991              COMMENT
Campaign Name: NGS reobservation 93-94                      COMMENT
4-Character Station Name: 0614                              COMMENT
6-Character Antenna Code: TRMSST                            COMMENT
Vertical Measurement Point: BGP                             COMMENT
Vertical Offset to Rinex Ref. Point: 0.0597                 COMMENT
Radial Measurement Point: NGP                               COMMENT
Radial Offset to Rinex Ref. Point: 0.2334                   COMMENT
Antenna Height from Field Measurement: 1.2550 m             COMMENT
Original XYZ: -2480474.2005 -4551780.6041 3706150.4347      COMMENT
New XYZ position is based on association with SCEC monument COMMENT
E1F1M1C7+0011. Position of that monument is believed to be  COMMENT
valid to within 1 m horizontally; vertical accuracy         COMMENT
should be no worse than 3-times this value.                 COMMENT
                                                            COMMENT
Revised Rinex header created by UCSD GPS archive for        COMMENT
GSAC on 19-Apr-1999 (1999:109) 06:24:52 GMT                 COMMENT
For assistance contact dagnew@ucsd.edu or hjohnson@ucsd.edu COMMENT
                                                            COMMENT
HPGN CALIF STA 0614 1991                                    MARKER NAME
S.M. LOKKEN NATIONAL GEODETIC SURVEY                        OBSERVER / AGENCY
1552 TRIMBLE 4000 SSE 5.66                                  REC # / TYPE / VERS
19 TR 4000SST L1/L2 GEO                                     ANT # / TYPE
 -2480457.0000 -4551799.0000  3706129.0000                  APPROX POSITION XYZ
        1.1734        0.0000        0.0000                  ANTENNA: DELTA H/E/N
     1     2     0                                          WAVELENGTH FACT L1/2
     3    C1    L1    L2                                    # / TYPES OF OBSERV
    30                                                      INTERVAL
  1994     3     8    19    35   29.999000                  TIME OF FIRST OBS
  1994     3     9     3    31   60.000000                  TIME OF LAST OBS
     0                                                      # OF SATELLITES
                                                            END OF HEADER
 94  3  8 19 35 29.9990000  0  6 31 18 19 27 28 29
  22839396.972      -14139.78916
  20055613.925      -30181.56718     -7621.95319
  20870668.448      -85966.46417    -16166.96819
  22446562.714     -160411.78316    -40970.65319
  23255753.026      -68666.74816    -12837.66919
  21170215.104       73110.78817     21668.23019
 94  3  8 19 35 59.9990000  0  6 31 18 19 27 28 29
  22823275.534      -98860.300 6
  20052731.480      -45329.192 8    -19425.271 9
  20862223.565     -130346.489 7    -50748.761 9
  22430770.690     -243395.427 6   -105633.168 9
  23249094.120     -103659.084 6    -40104.372 9
  21177478.565      111280.619 7     51410.957 9
 94  3  8 19 36 29.9990000  0  6 31 18 19 27 28 29
  22807207.776     -183295.313 6    -61397.76819
  20049925.519      -60074.811 8    -30915.345 9
  20853807.214     -174573.200 7    -85211.095 9
  22414997.214     -326286.417 6   -170223.493 9
  23242526.972     -138172.631 6    -66998.003 9
  21184805.097      149781.367 7     81411.527 9
 94  3  8 19 36 59.9990000  0  6 31 18 19 27 28 29
  22791197.198     -267431.646 6   -126958.479 9
  20047194.144      -74428.387 8    -42099.932 9
  20845420.050     -218650.994 7   -119557.397 9
  22399237.261     -409102.697 6   -234755.601 9
  23236047.573     -172219.866 6    -93528.267 9
  21192192.792      188604.641 7    111663.421 9
 94  3  8 19 37 29.9990000  0  6 31 18 19 27 28 29
  22775244.612     -351261.715 6   -192280.550 9
  20044537.237      -88390.780 8    -52979.703 9
  20837058.901     -262588.259 7   -153794.196 9
  22383490.839     -491853.154 6   -299236.429 9
  23229661.612     -205780.621 6   -119679.467 9
  21199643.433      227756.863 7    142171.634 9
 94  3  8 19 37 59.9990000  0  6 31 18 19 27 28 29
  22759350.448     -434787.581 6   -257365.580 9
  20041955.347     -101959.544 8    -63552.753 9
  20828726.511     -306374.757 7   -187913.510 9
  22367758.276     -574525.356 6   -363656.278 9
  23223367.870     -238854.333 6   -145451.157 9
  21207157.597      267243.649 7    172940.542 9
 94  3  8 19 38 29.9990000  0  6 31 18 19 27 28 29
  22743508.761     -518035.438 6   -322233.971 9
  20039446.550     -115142.302 8    -73825.016 9
  20820422.175     -350015.131 7   -221918.965 9
  22352037.026     -657144.278 6   -428034.619 9
  23217159.589     -271478.598 6   -170872.604 9
  21214734.636      307062.038 7    203967.836 9
 94  3  8 19 38 59.9990000  0  6 31 18 19 27 28 29
  22727716.550     -601024.504 6   -386900.726 9
  20037012.808     -127933.525 8    -83792.190 9
  20812143.792     -393518.253 7   -255817.475 9
  22336324.292     -739717.201 6   -492377.108 9
  23211034.620     -303663.280 6   -195951.528 9
  21222373.292      347202.777 7    235246.317 9
 94  3  8 19 39 29.9990000  0  6 31 18 19 27 28 29
  22711974.464     -683747.414 6   -451360.081 9
  20034656.198     -140316.513 8    -93441.264 9
  20803893.558     -436873.220 7   -289600.536 9
  22320623.144     -822225.445 6   -556669.201 9
  23204997.253     -335396.248 6   -220678.481 9
  21230075.620      387677.211 7    266784.802 9
 94  3  8 19 39 59.9990000  0  6 31 18 19 27 28 29
  22696286.276     -766189.495 6   -515600.642 9
  20032378.894     -152284.143 8   -102766.677 9
  20795675.276     -480059.548 7   -323252.199 9
  22304939.401     -904644.960 6   -620892.153 9
  23199041.019     -366692.859 6   -245065.392 9
  21237841.253      428484.053 7    298582.310 9
 94  3  8 19 40 29.9990000  0  6 31 18 19 27 28 29
  22680655.112     -848330.126 6   -579606.266 9
  20030185.737     -163809.871 8   -111747.758 9
  20787492.745     -523059.234 7   -356758.423 9
  22289273.964     -986967.346 6   -685039.428 9
  23193171.495     -397534.533 6   -269097.825 9
  21245670.534      469628.967 7    330643.256 9
 94  3  8 19 40 59.9990000  0  6 31 18 19 27 28 29
  22665084.886     -930151.695 6   -643363.296 9
  20028077.230     -174890.934 8   -120382.343 9
  20779345.308     -565874.648 7   -390121.059 9
  22273631.019    -1069173.787 6   -749096.344 9
  23187391.042     -427912.967 6   -292769.289 9
  21253562.729      511102.399 7    362960.186 9
 94  3  8 19 41 29.9990000  0  6 31 18 19 27 28 29
  22649578.542    -1011639.410 6   -706860.178 9
  20026053.198     -185527.482 8   -128670.560 9
  20771234.690     -608497.511 7   -423333.663 9
  22258009.534    -1151261.069 6   -813060.419 9
  23181697.097     -457832.778 6   -316083.400 9
  21261519.378      552913.766 7    395540.437 9
 94  3  8 19 41 59.9990000  0  6 31 18 19 27 28 29
  22634139.823    -1092773.065 6   -770081.175 9
  20024115.214     -195710.376 8   -136605.276 9
  20763161.573     -650922.141 7   -456391.792 9
  22242411.847    -1233226.194 6   -876929.314 9
  23176095.823     -487269.110 6   -339020.762 9
  21269541.433      595068.662 7    428388.372 9
 94  3  8 19 42 29.9990000  0  6 31 18 19 27 28 29
  22618768.003    -1173551.824 6   -833025.610 9
  20022263.058     -205443.764 8   -144189.731 9
  20755121.354     -693173.181 7   -489314.659 9
  22226832.120    -1315099.396 6   -940726.568 9
  23170589.128     -516207.591 6   -361570.202 9
  21277627.784      637565.051 7    461502.412 9
 94  3  8 19 42 59.9990000  0  6 31 18 19 27 28 29
  22603475.894    -1253908.219 6   -895640.952 9
  20020506.026     -214674.092 8   -151382.192 9
  20747124.151     -735199.239 7   -522062.216 9
  22211279.714    -1396829.314 6  -1004412.177 9
  23165188.714     -544585.159 6   -383682.569 9
  21285792.667      680470.805 7    494935.423 9
 94  3  8 19 43 29.9990000  0  6 31 18 19 27 28 29
  22588264.894    -1333844.418 6   -957928.858 9
  20018845.245     -223403.874 8   -158184.615 9
  20739172.261     -776986.196 7   -554623.456 9
  22195752.167    -1478427.789 6  -1067995.365 9
  23159899.292     -572386.263 6   -405345.737 9
  21294034.612      723783.126 7    528685.247 9
 94  3  8 19 43 59.9990000  0  6 31 18 19 27 28 29
  22573134.081    -1413355.330 6  -1019885.390 9
  20017277.862     -231640.894 8   -164603.071 9
  20731267.073     -818529.348 7   -586994.724 9
  22180251.354    -1559883.465 6  -1131467.275 9
  23154720.659     -599593.065 6   -426545.821 9
  21302352.995      767495.880 7    562747.100 9
 94  3  8 19 44 29.9990000  0  6 31 18 19 27 28 29
  22558093.440    -1492397.197 6  -1081476.430 9
  20015813.729     -239334.832 8   -170598.348 9
  20723420.722     -859760.894 7   -619123.181 9
  22164787.347    -1641144.610 6  -1194787.603 9
  23149664.698     -626166.716 6   -447252.550 9
  21310758.972      811667.612 7    597166.587 9
 94  3  8 19 44 59.9990000  0  6 31 18 19 27 28 29
  22543133.979    -1571008.410 6  -1142731.879 9
  20014447.831     -246513.351 8   -176191.998 9
  20715631.409     -900693.430 7   -651018.647 9
  22149359.276    -1722222.253 6  -1257964.951 9
  23144721.573     -652142.513 6   -467493.418 9
  21319247.956      856278.171 7    631928.027 9
 94  3  8 19 45 29.9990000  0  6 31 18 19 27 28 29
  22528259.034    -1649178.472 6  -1203643.601 9
  20013181.589     -253165.748 8   -181375.683 9
  20707900.628     -941319.510 8   -682675.344 9
  22133970.761    -1803089.726 6  -1320978.571 9
  23139892.440     -677517.349 6   -487265.995 9
  21327822.761      901339.377 8    667040.595 9
 94  3  8 19 45 59.9990000  0  6 31 18 19 27 28 29
  22513469.589    -1726899.359 6  -1264205.304 9
  20012020.073     -259269.489 8   -186131.850 9
  20700227.573     -981641.200 7   -714094.804 9
  22118624.253    -1883735.326 6  -1383819.226 9
  23135179.034     -702290.298 6   -506569.599 9
  21336489.558      946882.707 7    702528.878 9
 94  3  8 19 46 29.9990000  0  6 31 18 19 27 28 29
  22498765.675    -1804166.314 6  -1324413.287 9
  20010968.925     -264793.427 8   -190436.223 9
  20692613.792    -1021651.703 7   -745271.812 9
  22103321.675    -1964149.674 6  -1446479.715 9
  23130580.183     -726455.012 6   -525399.239 9
  21345252.745      992936.534 7    738414.927 9
 94  3  8 19 46 59.9990000  0  6 31 18 19 27 28 29
  22484150.878    -1880964.447 6  -1384255.978 9
  20010028.628     -269735.035 8   -194286.835 9
  20685056.714    -1061364.105 7   -776216.517 9
  22088065.737    -2044320.590 6  -1508950.539 9
  23126099.940     -750002.223 6   -543747.723 9
  21354113.745     1039499.138 7    774697.420 9
 94  3  8 19 47 29.9990000  0  6 31 18 19 27 28 29
  22469629.909    -1957277.789 6  -1443720.865 9
  20009201.276     -274083.466 8   -197675.223 9
  20677556.542    -1100777.998 7   -806928.639 9
  22072857.222    -2124243.154 6  -1571227.815 9
  23121737.878     -772923.188 6   -561608.195 9
  21363069.550     1086561.616 7    811369.455 9
 94  3  8 19 47 59.9990000  0  6 31 18 19 27 28 29
  22455200.394    -2033105.444 6  -1502807.334 9
  20008486.737     -277837.619 8   -200600.544 9
  20670113.183    -1139893.670 7   -837408.372 9
  22057692.378    -2203932.835 6  -1633323.644 9
  23117498.151     -795206.167 6   -578971.557 9
  21372116.589     1134102.328 7    848414.111 9
 94  3  8 19 48 29.9990000  0  6 31 18 19 27 28 29
  22440866.628    -2108429.187 6  -1561501.123 9
  20007881.089     -281019.772 8   -203080.150 9
  20662726.276    -1178711.360 7   -867655.916 9
  22042571.878    -2283392.801 6  -1695240.466 9
  23113378.347     -816847.665 6   -595835.045 9
  21381247.815     1182088.318 7    885805.741 9
 94  3  8 19 48 59.9990000  0  6 31 18 19 27 28 29
  22426632.128    -2183229.903 6  -1619787.353 9
  20007383.753     -283634.017 8   -205117.237 9
  20655394.917    -1217237.162 7   -897676.013 9
  22027495.409    -2362620.491 6  -1756976.303 9
  23109384.620     -837839.099 6   -612192.016 9
  21390461.253     1230504.843 7    923532.860 9
 94  3  8 19 49 29.9990000  0  6 31 18 19 27 28 29
  22412499.050    -2257499.437 6  -1677659.694 9
  20006996.128     -285670.598 8   -206704.194 9
  20648121.448    -1255460.926 7   -927460.753 9
  22012462.761    -2441615.678 6  -1818530.968 9
  23105516.081     -858169.747 6   -628034.064 9
  21399758.542     1279361.115 7    961602.635 9
 94  3  8 19 49 59.9990000  0  6 31 18 19 27 28 29
  22398468.370    -2331230.255 6  -1735112.248 9
  20006718.636     -287129.493 8   -207841.003 9
  20640904.495    -1293387.003 7   -957013.529 9
  21997475.058    -2520380.031 6  -1879905.768 9
  23101772.753     -877838.538 6   -643360.399 9
  21409141.503     1328669.538 7   1000024.729 9
 94  3  8 19 50 29.9990000  0  6 31 18 19 27 28 29
  22384539.542    -2404427.052 6  -1792148.682 9
  20006551.292     -288009.207 8   -208526.505 9
  20633743.183    -1331020.727 7   -986338.509 9
  21982532.714    -2598898.825 6  -1941089.207 9
  23098153.214     -896861.359 6   -658183.363 9
  21418614.104     1378451.728 7   1038815.995 9
 94  3  8 19 50 59.9990000  0  6 31 18 19 27 28 29
  22370713.480    -2477085.648 6  -1848765.723 9
  20006498.847     -288286.396 8   -208742.510 9
  20626637.675    -1368359.611 7  -1015433.735 9
  21967641.378    -2677154.273 6  -2002067.463 9
  23094656.987     -915232.547 6   -672498.568 9
  21428184.886     1428741.744 7   1078002.970 9
 94  3  8 19 51 29.9990000  0  6 31 18 19 27 28 29
  22356988.425    -2549208.754 6  -1904965.527 9
  20006559.347     -287967.027 8   -208493.655 9
  20619590.011    -1405396.231 7  -1044293.437 9
  21952799.925    -2755148.354 6  -2062842.043 9
  23091283.136     -932962.807 6   -686314.356 9
  21437851.019     1479539.124 7   1117585.291 9
 94  3  8 19 51 59.9990000  0  6 31 18 19 27 28 29
  22343367.222    -2620790.461 6  -1960743.433 9
  20006734.206     -287047.391 8   -207777.071 9
  20612601.269    -1442120.450 7  -1072909.705 9
  21938010.019    -2832867.734 6  -2123402.577 9
  23088030.784     -950055.761 6   -699633.535 9
  21447614.026     1530843.533 7   1157562.693 9
 94  3  8 19 52 29.9990000  0  6 31 18 19 27 28 29
  22329849.972    -2691825.395 6  -2016095.291 9
  20007025.237     -285518.644 8   -206585.854 9
  20605678.050    -1478502.749 7  -1101259.550 9
  21923274.050    -2910305.191 6  -2183743.421 9
  23084903.261     -966488.717 6   -712438.421 9
  21457476.222     1582669.944 7   1197946.862 9
 94  3  8 19 52 59.9990000  0  6 31 18 19 27 28 29
  22316443.104    -2762274.512 6  -2070990.673 9
  20007436.667     -283357.162 8   -204901.592 9
  20598827.183    -1514503.667 7  -1129312.210 9
  21908593.737    -2987450.248 6  -2243856.433 9
  23081909.565     -982224.080 6   -724699.745 9
  21467441.190     1635036.133 7   1238751.627 9
 94  3  8 19 53 29.9990000  0  6 31 18 19 27 28 29
  22303146.972    -2832149.902 6  -2125438.998 9
  20007966.761     -280571.074 8   -202730.632 9
  20592052.401    -1550106.590 8  -1157054.745 9
  21893967.573    -3064313.107 6  -2303749.534 9
  23079046.526     -997265.439 6   -736420.280 9
  21477504.815     1687920.804 7   1279960.404 9
 94  3  8 19 53 59.9990000  0  6 31 18 19 27 28 29
  22289957.058    -2901462.545 6  -2179448.814 9
  20008613.839     -277169.790 8   -200080.298 9
  20585352.323    -1585315.429 7  -1184490.202 9
  21879392.628    -3140905.923 6  -2363432.222 9
  23076316.354    -1011614.025 6   -747601.003 9
  21487665.815     1741314.694 7   1321565.982 9
 94  3  8 19 54 29.9990000  0  6 31 18 19 27 28 29
  22276881.589    -2970173.040 6  -2232989.423 9
  20009382.354     -273131.280 8   -196933.418 9
  20578730.753    -1620112.165 7  -1211604.546 9
  21864874.394    -3217201.959 6  -2422883.656 9
  23073723.089    -1025241.413 6   -758219.748 9
  21497926.769     1795238.871 7   1363584.767 9
 94  3  8 19 54 59.9990000  0  6 31 18 19 27 28 29
  22263920.667    -3038282.578 6  -2286061.764 9
  20010267.737     -268479.422 8   -193308.608 9
  20572180.206    -1654536.009 7  -1238428.316 9
  21850410.448    -3293207.408 6  -2482108.661 9
  23071261.144    -1038180.510 6   -768302.168 9
  21508281.323     1849650.328 7   1405983.245 9
 94  3  8 19 55 29.9990000  0  6 31 18 19 27 28 29
  22251076.511    -3105778.801 6  -2338656.190 9
  20011274.433     -263188.348 8   -189185.710 9
  20565702.917    -1688576.007 8  -1264952.993 9
  21836008.769    -3368891.928 6  -2541083.591 9
  23068934.425    -1050407.399 6   -777829.612 9
  21518730.925     1904562.595 7   1448771.966 9
 94  3  8 19 55 59.9990000  0  6 31 18 19 27 28 29
  22238373.448    -3172536.285 6  -2390674.984 9
  20012426.175     -257136.425 8   -184469.950 9
  20559314.878    -1722145.670 8  -1291111.177 9
  21821687.917    -3444147.941 6  -2599724.624 9
  23066765.347    -1061806.621 6   -786712.123 9
  21529297.854     1960093.028 7   1492042.382 9
 94  3  8 19 56 29.9990000  0  6 31 18 19 27 28 29
  22225795.995    -3238629.012 6  -2442175.791 9
  20013709.073     -250396.595 8   -179218.157 9
  20552999.417    -1755332.819 8  -1316971.294 9
  21807433.206    -3519055.372 6  -2658094.043 9
  23064739.651    -1072458.150 6   -795012.016 9
  21539967.604     2016162.565 7   1535732.869 9
 94  3  8 19 56 59.9990000  0  6 31 18 19 27 28 29
  22213330.589    -3304135.154 6  -2493219.516 9
  20015113.644     -243015.009 8   -173466.292 9
  20546746.612    -1788191.647 8  -1342575.581 9
  21793233.870    -3593674.582 6  -2716238.862 9
  23062842.386    -1082422.288 6   -802776.291 9
  21550731.034     2072724.656 7   1579807.169 9
 94  3  8 19 57 29.9990000  0  6 31 18 19 27 28 29
  22200975.378    -3369065.294 6  -2543814.407 9
  20016643.519     -234974.637 8   -167201.087 9
  20540558.479    -1820709.872 8  -1367914.463 9
  21779087.956    -3668010.218 6  -2774162.721 9
  23061078.847    -1091689.341 6   -809997.377 9
  21561592.995     2129804.292 7   1624284.740 9
 94  3  8 19 57 59.9990000  0  6 31 18 19 27 28 29
  22188733.284    -3433399.158 6  -2593944.671 9
  20018298.394     -226278.956 8   -160425.255 9
  20534437.331    -1852876.942 8  -1392979.722 9
  21764998.019    -3742053.641 6  -2831858.890 9
  23059448.245    -1100254.625 6   -816671.635 9
  21572558.769     2187428.766 7   1669186.859 9
 94  3  8 19 58 29.9990000  0  6 31 18 19 27 28 29
  22176603.456    -3497139.979 6  -2643612.822 9
  20020078.214     -216926.271 8   -153137.479 9
  20528386.550    -1884675.237 8  -1417757.618 9
  21750966.394    -3815789.980 6  -2889315.761 9
  23057953.464    -1108115.769 6   -822797.213 9
  21583631.206     2245612.612 7   1714524.856 9
 94  3  8 19 58 59.9990000  0  6 31 18 19 27 28 29
  22164589.144    -3560274.843 6  -2692808.796 9
  20021984.597     -206908.632 8   -145331.545 9
  20522408.800    -1916090.165 8  -1442236.788 9
  21736994.417    -3889208.773 6  -2946525.199 9
  23056594.651    -1115255.906 6   -828360.964 9
  21594811.370     2304365.062 7   1760305.922 9
 94  3  8 19 59 29.9990000  0  6 31 18 19 27 28 29
  22152696.636    -3622771.178 6  -2741507.220 9
  20024017.417     -196227.361 8   -137008.506 9
  20516505.542    -1947109.749 8  -1466407.898 9
  21723082.628    -3962318.673 6  -3003493.934 9
  23055375.636    -1121661.497 6   -833352.341 9
  21606097.245     2363671.954 7   1806519.015 9
 94  3  8 19 59 59.9990000  0  6 31 18 19 27 28 29
  22140929.269    -3684612.195 6  -2789695.016 9
  20026174.909     -184889.044 8   -128173.474 9
  20510677.769    -1977733.270 8  -1490270.390 9
  21709227.612    -4035129.161 7  -3060229.369 9
  23054294.112    -1127341.570 6   -837778.392 9
  21617484.159     2423510.352 7   1853146.263 9
 94  3  8 20  0 29.9990000  0  7  2 31 18 19 27 28 29
  24092395.315      -81690.89115
  22129288.190    -3745783.893 6  -2837361.255 9
  20028462.433     -172866.594 7   -118805.361 9
  20504929.620    -2007942.377 8  -1513809.962 9
  21695431.229    -4107629.894 7  -3116723.437 9
  23053355.167    -1132277.005 6   -841624.201 9
  21628969.034     2483863.852 7   1900174.892 9
 94  3  8 20  0 59.9990000  0  7  2 31 18 19 27 28 29
  24072173.979     -187955.599 5    -22053.81119
  22117776.956    -3806274.229 6  -2884496.561 9
  20030879.315     -160168.268 8   -108910.587 9
  20499258.636    -2037744.146 8  -1537032.126 9
  21681691.464    -4179833.488 7  -3172985.964 9
  23052558.644    -1136467.128 6   -844889.264 9
  21640549.315     2544718.662 7   1947594.151 9
 94  3  8 20  1 29.9990000  0  7  2 31 18 19 27 28 29
  24052016.433     -293884.099 5   -104595.419 9
  22106396.409    -3866081.168 7  -2931099.359 9
  20033424.440     -146792.901 8    -98488.246 9
  20493665.120    -2067137.139 8  -1559935.758 9
  21668011.456    -4251727.935 7  -3229007.599 9
  23051902.753    -1139910.971 6   -847572.781 9
  21652227.636     2606087.056 7   1995413.600 9
 94  3  8 20  1 59.9990000  0  7  2 31 18 19 27 28 29
  24031925.964     -399458.782 5   -186861.303 9
  22095142.831    -3925218.719 6  -2977180.556 9
  20036098.511     -132740.814 7    -87538.585 9
  20488147.214    -2096135.326 8  -1582531.754 9
  21654394.245    -4323283.049 7  -3284764.823 9
  23051391.433    -1142598.534 6   -849667.015 9
  21664008.159     2667995.105 7   2043653.563 9
 94  3  8 20  2 29.9990000  0  7  2 31 18 19 27 28 29
  24011900.706     -504693.255 5   -268862.108 9
  22084011.909    -3983712.447 7  -3022760.059 9
  20038898.253     -118027.084 8    -76073.362 9
  20482700.597    -2124756.958 8  -1604834.326 9
  21640841.620    -4394502.218 7  -3340260.267 9
  23051022.979    -1144532.616 6   -851174.107 9
  21675892.581     2730446.830 7   2092317.173 9
 94  3  8 20  2 59.9990000  0  7  2 31 18 19 27 28 29
  23991938.979     -609591.408 5   -350600.853 9
  22073005.050    -4041555.294 7  -3067832.410 9
  20041823.433     -102656.145 8    -64096.029 9
  20477325.636    -2153001.880 8  -1626843.359 9
  21627353.612    -4465381.520 7  -3395490.882 9
  23050797.448    -1145722.067 6   -852100.967 9
  21687883.315     2793459.001 7   2141417.487 9
 94  3  8 20  3 29.9990000  0  7  2 31 18 19 27 28 29
  23972042.050     -714146.097 5   -432071.963 9
  22062122.604    -4098740.152 7  -3112392.014 9
  20044873.792      -86626.710 8    -51605.584 9
  20472023.667    -2180864.439 8  -1648554.451 9
  21613932.394    -4535906.215 7  -3450445.184 9
  23050711.394    -1146172.609 6   -852452.060 9
  21699980.480     2857030.815 7   2190953.890 9
 94  3  8 20  3 59.9990000  0  7  2 31 18 19 27 28 29
  23952210.339     -818365.810 5   -513282.051 9
  22051363.987    -4155274.523 7  -3156444.764 9
  20048047.222      -69948.581 8    -38609.651 9
  20466791.925    -2208356.897 8  -1669977.153 9
  21600575.886    -4606097.600 7  -3505139.768 9
  23050762.253    -1145904.333 6   -852243.041 9
  21712179.511     2921136.041 7   2240905.930 9
 94  3  8 20  4 29.9990000  0  7  2 31 18 19 27 28 29
  23932444.058     -922237.576 5   -594221.044 9
  22040732.526    -4211145.595 7  -3199980.649 9
  20051346.503      -52612.036 8    -25100.678 9
  20461636.519    -2235447.552 8  -1691086.757 9
  21587280.729    -4675963.547 7  -3559580.762 9
  23050948.019    -1144927.648 6   -851482.008 9
  21724477.370     2985763.691 7   2291265.057 9
 94  3  8 20  4 59.9990000  0  7  2 31 18 19 27 28 29
  23912739.854    -1025779.599 5   -674903.086 9
  22030224.261    -4266364.990 7  -3243008.737 9
  20054765.604      -34643.140 8    -11098.959 9
  20456554.886    -2262153.034 8  -1711896.230 9
  21574046.183    -4745511.373 7  -3613773.859 9
  23051264.605    -1143265.266 6   -850186.647 9
  21736870.386     3050887.806 7   2342011.046 9
 94  3  8 20  5 29.9990000  0  7  2 31 18 19 27 28 29
  23893098.487    -1128994.087 5   -755329.927 9
  22019839.183    -4320939.332 7  -3285534.174 9
  20058306.105      -16039.378 8      3397.459 9
  20451544.511    -2288482.350 8  -1732412.589 9
  21560870.792    -4814747.614 7  -3667724.168 9
  23051713.651    -1140908.846 6   -848350.501 9
  21749355.979     3116501.342 7   2393138.390 9
 94  3  8 20  5 59.9990000  0  7  2 31 18 19 27 28 29
  23873517.472    -1231892.867 5   -835510.760 9
  22009577.214    -4374866.199 7  -3327555.101 9
  20061969.120        3209.687 8     18396.709 9
  20446605.839    -2314436.141 8  -1752636.328 9
  21547753.839    -4883679.507 7  -3721437.317 9
  23052296.808    -1137842.403 6   -845961.063 9
  21761934.854     3182600.899 7   2444644.458 9
 94  3  8 20  6 29.9990000  0  7  2 31 18 19 27 28 29
  23853994.933    -1334484.891 5   -915452.543 9
  21999441.331    -4428132.499 7  -3369061.280 9
  20065755.901       23110.365 8     33903.714 9
  20441737.870    -2340017.614 8  -1772569.950 9
  21534694.058    -4952304.489 7  -3774911.313 9
  23053015.894    -1134060.938 6   -843014.477 9
  21774605.229     3249184.900 7   2496528.007 9
 94  3  8 20  6 59.9990000  0  7  2 31 18 19 27 28 29
  23834526.565    -1436794.860 5   -995174.540 9
  21989432.589    -4480728.188 7  -3410044.922 9
  20069666.206       43657.638 8     49914.556 9
  20436934.730    -2365255.636 8  -1792235.944 9
  21521692.159    -5020632.673 7  -3828154.041 9
  23053871.737    -1129564.944 6   -839511.117 9
  21787367.378     3316249.039 7   2548785.687 9
 94  3  8 20  7 29.9990000  0  7  2 31 18 19 27 28 29
  23815114.729    -1538806.658 5  -1074664.225 9
  21979552.769    -4532649.607 7  -3450503.138 9
  20073701.315       64862.066 8     66437.459 9
  20432198.940    -2390145.279 8  -1811630.470 9
  21508743.425    -5088677.670 7  -3881176.103 9
  23054862.456    -1124356.581 6   -835452.659 9
  21800221.644     3383798.606 7   2601421.628 9
 94  3  8 20  7 59.9990000  0  7  2 31 18 19 27 28 29
  23795762.909    -1640502.029 5  -1153907.335 9
  21969800.362    -4583894.533 7  -3490434.238 9
  20077860.347       86719.091 8     83468.884 9
  20427528.901    -2414685.149 8  -1830752.449 9
  21495850.401    -5156436.254 7  -3933974.986 9
  23055987.815    -1118446.538 6   -830847.432 9
  21813168.058     3451831.835 7   2654434.463 9
 94  3  8 20  8 29.9990000  0  7  2 31 18 19 27 28 29
  23776474.222    -1741859.593 5  -1232887.238 9
  21960173.839    -4634482.703 7  -3529853.561 9
  20082140.651      109210.550 8    100994.674 9
  20422924.542    -2438882.082 8  -1849607.207 9
  21483008.675    -5223917.723 7  -3986557.926 9
  23057242.026    -1111853.725 6   -825710.177 9
  21826206.675     3520350.816 7   2707825.785 9
 94  3  8 20  8 59.9990000  0  7  2 31 18 19 27 28 29
  23757253.370    -1842866.252 5  -1311593.691 9
  21950669.964    -4684426.604 7  -3568770.865 9
  20086539.347      132325.799 8    119006.534 9
  20418385.628    -2462735.305 8  -1868194.137 9
  21470220.269    -5291121.549 7  -4038924.526 9
  23058626.386    -1104575.516 6   -820038.853 9
  21839338.167     3589356.580 7   2761596.414 9
 94  3  8 20  9 29.9990000  0  7  2 31 18 19 27 28 29
  23738104.308    -1943498.175 5  -1390008.134 9
  21941287.690    -4733731.049 7  -3607189.896 9
  20091058.737      156075.550 8    137512.810 9
  20413911.667    -2486245.118 8  -1886513.479 9
  21457485.854    -5358041.800 7  -4091070.163 9
  23060143.206    -1096607.627 6   -813830.116 9
  21852561.987     3658847.853 7   2815745.366 9
 94  3  8 20  9 59.9990000  0  7  2 31 18 19 27 28 29
  23719022.659    -2043774.213 5  -1468145.283 9
  21932024.901    -4782403.964 6  -3645116.829 9
  20095695.847      180445.340 8    156502.228 9
  20409501.675    -2509420.053 8  -1904571.870 9
  21444803.222    -5424686.360 7  -4143000.970 9
  23061790.401    -1087953.269 6   -807086.460 9
  21865875.847     3728812.436 7   2870263.137 9
 94  3  8 20 10 29.9990000  0  7  2 31 18 19 27 28 29
  23700003.761    -2143718.745 5  -1546024.087 9
  21922882.409    -4830450.490 6  -3682555.646 9
  20100449.706      205426.346 8    175967.924 9
  20405157.386    -2532248.406 8  -1922360.203 9
  21432172.722    -5491060.035 7  -4194720.699 9
  23063568.776    -1078605.890 6   -799802.788 9
  21879280.401     3799252.684 7   2925151.553 9
 94  3  8 20 10 59.9990000  0  7  2 31 18 19 27 28 29
  23681044.347    -2243352.028 5  -1623660.378 9
  21913859.823    -4877863.761 6  -3719501.042 9
  20105320.105      231019.057 8    195910.265 9
  20400879.972    -2554726.690 8  -1939875.753 9
  21419596.136    -5557152.478 7  -4246221.288 9
  23065479.628    -1068561.474 6   -791975.986 9
  21892774.401     3870163.415 7   2980406.578 9
 94  3  8 20 11 29.9990000  0  7  2 31 18 19 27 28 29
  23662141.050    -2342687.369 5  -1701064.503 9
  21904959.120    -4924638.695 6  -3755949.027 9
  20110305.722      257217.640 8    216324.724 9
  20396669.261    -2576853.989 8  -1957117.811 9
  21407071.862    -5622966.110 7  -4297504.618 9
  23067523.276    -1057824.495 6   -783609.518 9
  21906357.003     3941541.031 7   3036025.424 9
 94  3  8 20 11 59.9990000  0  7  2 31 18 19 27 28 29
  23643289.581    -2441753.224 5  -1778258.656 9
  21896176.769    -4970789.852 7  -3791910.943 9
  20115401.878      283998.751 8    237193.094 9
  20392527.636    -2598620.296 8  -1974078.577 9
  21394599.995    -5688507.657 7  -4348575.940 9
  23069697.253    -1046404.795 6   -774711.067 9
  21920026.464     4013372.716 7   3091998.080 9
 94  3  8 20 12 29.9990000  0  7  2 31 18 19 27 28 29
  23624488.487    -2540555.908 5  -1855247.730 9
  21887511.995    -5016325.064 7  -3827392.905 9
  20120608.894      311361.399 8    258514.607 9
  20388451.331    -2620039.582 8  -1990768.943 9
  21382179.659    -5753776.081 7  -4399434.435 9
  23071998.151    -1034308.125 6   -765285.099 9
  21933779.706     4085645.227 7   3148314.234 9
 94  3  8 20 12 59.9990000  0  7  2 31 18 19 27 28 29
  23605738.815    -2639082.950 5  -1932022.003 9
  21878968.128    -5061219.165 6  -3862375.312 9
  20125928.386      339315.752 8    280297.187 9
  20384437.370    -2641132.369 8  -2007204.889 9
  21369809.464    -5818779.815 7  -4450086.678 9
  23074425.089    -1021554.340 6   -755347.100 9
  21947614.433     4158347.495 7   3204965.265 9
 94  3  8 20 13 29.9990000  0  7  2 31 18 19 27 28 29
  23587040.440    -2737342.525 5  -2008587.855 9
  21870543.456    -5105493.610 6  -3896874.850 9
  20131357.417      367845.836 8    302528.397 9
  20380480.972    -2661924.618 8  -2023406.650 9
  21357483.183    -5883556.954 7  -4500562.354 9
  23076971.058    -1008174.719 6   -744921.431 9
  21961526.175     4231457.107 7   3261933.709 9
 94  3  8 20 13 59.9990000  0  7  2 31 18 19 27 28 29
  23568401.159    -2835292.391 5  -2084912.374 9
  21862240.237    -5149124.603 6  -3930873.011 9
  20136901.823      396981.130 8    325231.191 9
  20376584.956    -2682398.228 8  -2039360.125 9
  21345202.909    -5948087.595 7  -4550845.953 9
  23079639.151     -994156.230 6   -733997.946 9
  21975519.800     4304992.659 7   3319234.050 9
 94  3  8 20 14 29.9990000  0  7  2 31 18 19 27 28 29
  23549825.417    -2932905.750 5  -2160974.670 9
  21854065.675    -5192081.814 6  -3964346.151 9
  20142563.159      426733.761 8    348415.030 9
  20372747.823    -2702563.217 8  -2055073.111 9
  21332969.425    -6012374.048 7  -4600939.271 9
  23082426.956     -979504.779 6   -722581.237 9
  21989595.839     4378961.191 7   3376871.783 9
 94  3  8 20 14 59.9990000  0  7  2 31 18 19 27 28 29
  23531315.112    -3030178.099 5  -2236771.256 9
  21846019.987    -5234361.854 6  -3997291.618 9
  20148343.019      457106.431 8    372082.007 9
  20368970.558    -2722410.826 8  -2070538.790 9
  21320784.605    -6076409.277 7  -4650836.834 9
  23085335.456     -964219.491 6   -710670.644 9
  22003754.097     4453362.469 7   3434846.729 9
 94  3  8 20 15 29.9990000  0  7  2 31 18 19 27 28 29
  23512868.534    -3127112.450 5  -2312304.455 9
  21838099.112    -5275987.071 6  -4029726.843 9
  20154238.519      488087.914 8    396223.390 9
  20365254.112    -2741941.379 8  -2085757.412 9
  21308649.956    -6140174.891 7  -4700524.302 9
  23088368.534     -948278.619 6   -698249.197 9
  22017993.003     4528190.562 6   3493154.244 9
 94  3  8 20 15 59.9990000  0  7  2 31 18 19 27 28 29
  23494487.612    -3223710.235 5  -2387575.397 9
  21830303.456    -5316952.592 6  -4061648.017 9
  20160250.847      519681.062 8    420841.388 9
  20361598.714    -2761149.977 7  -2100725.161 9
  21296570.589    -6203652.854 7  -4749987.634 9
  23091529.253     -931669.952 6   -685307.390 9
  22032315.269     4603454.023 6   3551801.011 9
 94  3  8 20 16 29.9990000  0  7  2 31 18 19 27 28 29
  23476163.776    -3320002.815 5  -2462608.498 9
  21822632.784    -5357265.168 7  -4093060.400 9
  20166379.214      551887.918 8    445937.612 9
  20358006.589    -2780029.353 8  -2115436.365 9
  21284547.292    -6266837.014 7  -4799222.025 9
  23094819.401     -914383.763 6   -671837.654 9
  22046722.315     4679161.114 6   3610793.453 9
 94  3  8 20 16 59.9990000  0  7  2 31 18 19 27 28 29
  23457894.948    -3416006.153 5  -2537416.233 9
  21815080.714    -5396950.162 7  -4123983.768 9
  20172621.839      584690.853 8    471498.300 9
  20354476.253    -2798581.744 8  -2129892.773 9
  21272580.222    -6329723.771 7  -4848224.676 9
  23098238.972     -896412.752 6   -657834.275 9
  22061212.347     4755305.592 6   3670126.727 9
 94  3  8 20 17 29.9990000  0  7  2 31 18 19 27 28 29
  23439679.487    -3511726.519 5  -2612003.433 9
  21807647.792    -5436011.508 7  -4154421.167 9
  20178975.815      618082.524 7    497517.748 9
  20351005.784    -2816820.095 8  -2144104.475 9
  21260666.933    -6392327.986 7  -4897007.164 9
  23101788.300     -877763.593 6   -643302.477 9
  22075785.667     4831891.008 6   3729803.587 9
 94  3  8 20 17 59.9990000  0  7  2 31 18 19 27 28 29
  23421516.933    -3607171.973 5  -2686376.429 9
  21800335.503    -5474438.175 7  -4184364.007 9
  20185443.081      652067.041 8    523999.155 9
  20347596.487    -2834735.004 8  -2158064.141 9
  21248805.300    -6454661.566 7  -4945578.765 9
  23105464.144     -858446.232 6   -628249.996 9
  22090444.151     4908919.822 6   3789825.960 9
 94  3  8 20 18 29.9990000  0  7  2 31 18 19 27 28 29
  23403405.331    -3702349.232 5  -2760540.442 9
  21793144.284    -5512227.982 7  -4213810.591 9
  20192018.284      686620.574 8    550923.953 9
  20344246.769    -2852336.810 7  -2171779.833 9
  21236991.979    -6516742.930 7  -4993953.835 9
  23109265.104     -838467.721 6   -612682.358 9
  22105182.917     4986373.388 6   3850179.285 9
 94  3  8 20 18 59.9990000  0  7  2 31 18 19 27 28 29
  23385346.940    -3797246.179 5  -2834486.012 9
  21786074.136    -5549381.497 7  -4242761.367 9
  20198696.565      721716.194 8    578271.147 9
  20340951.276    -2869654.428 7  -2185274.078 9
  21225220.964    -6578599.917 7  -5042154.068 9
  23113189.401     -817850.962 6   -596617.367 9
  22119996.870     5064221.103 6   3910839.755 9
 94  3  8 20 19 29.9990000  0  7  2 31 18 19 27 28 29
  23367343.206    -3891854.297 5  -2908206.527 9
  21779130.448    -5585869.037 7  -4271193.204 9
  20205481.784      757371.522 8    606054.482 9
  20337711.253    -2886679.944 7  -2198540.709 9
  21213492.448    -6640230.580 7  -5090177.937 9
  23117232.354     -796603.190 6   -580060.676 9
  22134884.370     5142458.723 6   3971804.048 9
 94  3  8 20 19 59.9990000  0  7  2 31 18 19 27 28 29
  23349393.511    -3986183.723 5  -2981709.862 9
  21772312.831    -5621698.136 7  -4299111.962 9
  20212370.862      793573.273 8    634263.599 9
  20334525.698    -2903420.567 7  -2211585.348 9
  21201803.323    -6701657.668 7  -5138043.187 9
  23121392.589     -774744.555 6   -563028.001 9
  22149843.183     5221063.384 6   4033054.340 9
 94  3  8 20 20 29.9990000  0  7  2 31 18 19 27 28 29
  23331500.214    -4080209.557 5  -3054976.644 9
  21765622.339    -5656856.565 7  -4326508.123 9
  20219367.214      830339.062 8    662912.233 9
  20331395.776    -2919869.699 7  -2224402.850 9
  21190157.034    -6762858.666 7  -5185732.257 9
  23125668.878     -752271.417 6   -545516.482 9
  22164874.542     5300051.812 6   4094603.678 9
 94  3  8 20 20 59.9990000  0  7  2 31 18 19 27 28 29
  23313670.315    -4173909.665 6  -3127989.616 9
  21759060.862    -5691336.090 7  -4353375.262 9
  20226479.019      867712.438 8    692034.309 9
  20328325.347    -2936003.150 7  -2236974.364 9
  21178560.151    -6823801.205 7  -5233219.929 9
  23130064.198     -729170.194 6   -527515.550 9
  22179982.487     5379445.189 6   4156468.561 9
 94  3  8 20 21 29.9990000  0  7  2 31 18 19 27 28 29
  23295897.792    -4267304.361 5  -3200764.585 9
  21752624.628    -5725159.186 7  -4379730.900 9
  20233706.628      905694.488 7    721630.672 9
  20325314.448    -2951824.245 7  -2249302.488 9
  21167013.284    -6884480.471 7  -5280502.455 9
  23134580.667     -705437.156 6   -509022.297 9
  22195166.792     5459239.811 6   4218646.094 9
 94  3  8 20 21 59.9990000  0  7  2 31 18 19 27 28 29
  23278180.878    -4360404.964 5  -3273310.387 9
  21746306.019    -5758361.717 7  -4405602.979 9
  20241045.753      944262.659 7    751683.759 9
  20322358.370    -2967360.031 7  -2261408.293 9
  21155513.979    -6944908.540 7  -5327589.242 9
  23139217.175     -681072.233 6   -490036.661 9
  22210427.323     5539436.547 6   4281136.964 9
 94  3  8 20 22 29.9990000  0  7  2 31 18 19 27 28 29
  23260521.229    -4453205.826 5  -3345622.615 9
  21740106.120    -5790945.104 7  -4430992.613 9
  20248494.925      983406.128 8    782185.123 9
  20319455.847    -2982612.577 7  -2273293.385 9
  21144066.112    -7005067.353 7  -5374466.226 9
  23143974.456     -656073.685 6   -470557.289 9
  22225763.979     5620033.285 6   4343939.533 9
 94  3  8 20 22 59.9990000  0  7  2 31 18 19 27 28 29
  23242917.651    -4545714.264 5  -3417706.989 9
  21734023.339    -5822909.214 7  -4455899.689 9
  20256048.769     1023101.129 8    813116.258 9
  20316605.409    -2997592.132 7  -2284965.757 9
  21132667.855    -7064969.803 7  -5421143.433 9
  23148853.120     -630434.553 6   -450578.763 9
  22241173.417     5701007.530 6   4407036.258 9
 94  3  8 20 23 29.9990000  0  7  2 31 18 19 27 28 29
  23225368.058    -4637933.064 5  -3489565.684 9
  21728057.667    -5854258.706 7  -4480327.839 9
  20263700.394     1063312.913 7    844450.089 9
  20313804.862    -3012308.810 7  -2296433.291 9
  21121313.128    -7124636.903 7  -5467637.254 9
  23153850.722     -604173.286 6   -430115.451 9
  22256652.604     5782350.668 6   4470420.440 9
 94  3  8 20 23 59.9990000  0  7  2 31 18 19 27 28 29
  23207874.573    -4729862.466 5  -3561198.860 9
  21722210.761    -5884985.148 7  -4504270.514 9
  20271448.675     1104028.888 8    876176.782 9
  20311056.667    -3026751.213 7  -2307687.100 9
  21110001.355    -7184079.534 7  -5513956.165 9
  23158961.104     -577318.083 6   -409189.323 9
  22272200.714     5864058.224 6   4534088.578 9
 94  3  8 20 24 29.9990000  0  7  2 31 18 19 27 28 29
  23190435.925    -4821504.984 6  -3632608.494 9
  21716482.604    -5915085.349 7  -4527725.194 9
  20279292.472     1145246.893 8    908294.671 9
  20308364.980    -3040897.550 7  -2318710.205 9
  21098730.495    -7243306.482 7  -5560107.010 9
  23164181.362     -549883.369 6   -387811.638 9
  22287816.362     5946115.028 6   4598028.868 9
 94  3  8 20 24 59.9990000  0  7  2 31 18 19 27 28 29
  23173052.550    -4912854.946 6  -3703790.156 9
  21710877.339    -5944543.893 7  -4550679.895 9
  20287236.839     1186995.499 8    940826.017 9
  20305733.065    -3054727.247 7  -2329486.582 9
  21087501.808    -7302314.673 7  -5606087.399 9
  23169515.065     -521855.303 6   -365971.594 9
  22303502.784     6028547.057 6   4662261.529 9
 94  3  8 20 25 29.9990000  0  8  2 16 31 18 19 27 28 29
  23155725.151    -5003909.942 6  -3774741.985 9
  23904393.589      -55111.005 5
  21705393.823    -5973359.244 7  -4573133.400 9
  20295286.284     1229294.772 8    973786.453 9
  20303165.065    -3068223.019 7  -2340002.761 9
  21076315.776    -7361097.891 7  -5651892.489 9
  23174961.667     -493232.724 6   -343668.298 9
  22319264.956     6111376.651 6   4726803.985 9
 94  3  8 20 25 59.9980000  0  8  2 16 31 18 19 27 28 29
  23138451.115    -5094684.746 6  -3845475.473 9
  23893657.725     -111533.352 5
  21700031.396    -6001538.997 7  -4595091.642 9
  20303441.146     1272148.938 8   1007179.275 9
  20300657.186    -3081400.740 7  -2350271.108 9
  21065172.311    -7419659.405 7  -5697524.814 9
  23180521.537     -464017.273 6   -320903.023 9
  22335097.748     6194578.422 6   4791636.446 9
 94  3  8 20 26 29.9980000  0  8  2 16 31 18 19 27 28 29
  23121230.154    -5185181.138 6  -3915992.031 9
  23883033.092     -167365.165 5    -36221.39318
  21694788.092    -6029090.780 7  -4616560.563 9
  20311703.139     1315565.813 8   1041010.569 9
  20298204.154    -3094291.815 7  -2360316.093 9
  21054069.334    -7478002.998 7  -5742987.331 9
  23186195.920     -434197.062 6   -297666.509 9
  22351000.107     6278146.483 6   4856754.324 9
 94  3  8 20 26 59.9980000  0  8  2 16 31 18 19 27 28 29
  23104059.951    -5275408.987 6  -3986299.336 9
  23872515.631     -222625.600 4    -79281.475 9
  21689665.412    -6056011.567 7  -4637537.794 9
  20320070.842     1359538.999 8   1075275.350 9
  20295799.334    -3106928.851 7  -2370163.131 9
  21043010.295    -7536120.168 7  -5788273.413 9
  23191984.139     -403777.581 6   -273963.028 9
  22366967.811     6362057.494 6   4922139.429 9
 94  3  8 20 27 29.9980000  0  8  2 16 31 18 19 27 28 29
  23086940.623    -5365373.478 6  -4056401.430 9
  23862104.779     -277336.827 4   -121913.605 8
  21684661.717    -6082305.617 7  -4658026.660 9
  20328542.232     1404053.897 8   1109962.247 9
  20293439.896    -3119327.924 7  -2379824.737 9
  21031993.592    -7594012.799 7  -5833384.531 9
  23197886.256     -372763.447 6   -249796.187 9
  22382995.014     6446279.968 6   4987767.247 9
 94  3  8 20 27 59.9980000  0  8  2 16 31 18 19 27 28 29
  23069874.061    -5455060.815 6  -4126287.576 9
  23851797.022     -331510.193 5   -164126.646 9
  21679779.607    -6107961.209 7  -4678018.027 9
  20337116.232     1449113.109 8   1145073.284 9
  20291124.803    -3131493.740 7  -2389304.587 9
  21021021.186    -7651673.831 7  -5878315.181 9
  23203901.646     -341153.639 6   -225165.179 9
  22399080.795     6530808.876 6   5053633.831 9
 94  3  8 20 28 29.9980000  0  8  2 16 31 18 19 27 28 29
  23052860.271    -5544468.274 6  -4195955.613 9
  23841586.412     -385162.251 5   -205933.464 9
  21675019.514    -6132974.100 7  -4697508.589 9
  20345793.725     1494712.230 8   1180605.030 9
  20288855.178    -3143421.340 7  -2398598.813 9
  21010093.811    -7709095.682 7  -5923059.448 9
  23210031.631     -308940.609 6   -200064.132 9
  22415226.576     6615652.727 6   5119745.820 9
 94  3  8 20 28 59.9980000  0  8  2 16 31 18 19 27 28 29
  23035897.396    -5633607.139 6  -4265414.380 9
  23831478.318     -438285.184 5   -247327.952 9
  21670383.967    -6157333.926 7  -4716490.276 9
  20354570.959     1540838.414 7   1216547.470 9
  20286634.873    -3155088.340 7  -2407689.978 9
  20999211.928    -7766281.399 7  -5967619.720 9
  23216275.834     -276129.859 6   -174497.324 9
  22431432.303     6700814.725 6   5186105.721 9
 94  3  8 20 29 29.9980000  0  8  2 16 31 18 19 27 28 29
  23018986.123    -5722476.683 6  -4334663.273 9
  23821469.889     -490879.172 5   -288310.305 9
  21665870.811    -6181053.798 7  -4734973.282 9
  20363445.732     1587475.021 8   1252887.650 9
  20284466.287    -3166485.049 7  -2416570.524 9
  20988370.209    -7823253.182 7  -6012013.292 9
  23222630.303     -242736.383 6   -148476.449 9
  22447699.029     6786298.573 6   5252716.407 9
 94  3  8 20 29 59.9980000  0  8  2 16 31 18 19 27 28 29
  23002126.686    -5811074.970 6  -4403700.808 9
  23811563.107     -542940.220 5   -328877.358 9
  21661477.170    -6204143.131 7  -4752964.970 9
  20372417.162     1634617.395 8   1289621.929 9
  20282350.240    -3177604.876 7  -2425235.322 9
  20977570.318    -7880008.165 7  -6056237.929 9
  23229095.357     -208763.916 6   -122004.404 9
  22464030.029     6872117.490 6   5319588.195 9
 94  3  8 20 30 29.9980000  0  8  2 16 31 18 19 27 28 29
  22985315.857    -5899418.242 6  -4472539.647 9
  23801757.889     -594462.012 5   -369024.217 9
  21657201.342    -6226614.005 7  -4770474.725 9
  20381482.396     1682257.311 8   1326743.904 9
  20280287.982    -3188443.812 7  -2433681.242 9
  20966810.334    -7936549.614 7  -6100296.172 9
  23235668.748     -174220.408 6    -95087.402 9
  22480421.850     6958259.826 6   5386711.986 9
 94  3  8 20 30 59.9980000  0  8  2 16 31 18 19 27 28 29
  22968553.537    -5987502.291 6  -4541176.483 9
  23792057.943     -645439.588 5   -408747.007 9
  21653041.709    -6248473.618 7  -4787508.182 9
  20390641.303     1730387.778 8   1364248.128 9
  20278278.482    -3199004.266 8  -2441910.160 9
  20956088.881    -7992893.512 7  -6144200.485 9
  23242347.279     -139123.527 6    -67739.197 9
  22496874.217     7044716.061 6   5454080.373 9
 94  3  8 20 31 29.9980000  0  8  2 16 31 18 19 27 28 29
  22951843.311    -6075312.677 6  -4609600.080 9
  23782459.912     -695877.436 5   -448049.224 8
  21648997.147    -6269725.904 7  -4804068.390 9
  20399896.482     1779021.910 8   1402144.812 9
  20276321.529    -3209288.613 8  -2449923.931 9
  20945404.701    -8049040.967 7  -6187951.710 9
  23249131.193     -103470.193 6    -39957.390 9
  22513388.248     7131497.192 6   5521701.918 9
 94  3  8 20 31 59.9980000  0  8  2 16 31 18 19 27 28 29
  22935185.998    -6162848.004 6  -4677809.343 9
  23772965.162     -745775.458 5   -486930.797 9
  21645067.951    -6290374.077 7  -4820157.861 9
  20409248.998     1828169.969 8   1440441.966 9
  20274415.459    -3219303.350 8  -2457727.612 9
  20934756.217    -8104997.686 7  -6231554.313 9
  23256022.248      -67260.954 6    -11742.412 9
  22529963.740     7218602.270 6   5589575.888 9
 94  3  8 20 32 29.9980000  0  8  2 16 31 18 19 27 28 29
  22918579.928    -6250115.716 6  -4745810.074 9
  23763569.787     -795143.675 5   -525399.547 9
  21641254.506    -6310412.937 7  -4835772.544 9
  20418697.186     1877820.267 8   1479130.479 9
  20272557.600    -3229064.914 7  -2465334.010 9
  20924140.842    -8160782.812 7  -6275023.206 9
  23263012.522      -30525.573 6     16882.564 9
  22546597.678     7306012.512 6   5657687.665 9
 94  3  8 20 32 59.9980000  0  8  2 16 31 18 19 27 28 29
  22902031.897    -6337074.250 6  -4813569.885 9
  23754282.600     -843952.084 5   -563432.057 9
  21637565.803    -6329796.376 7  -4850876.507 9
  20428245.451     1927999.129 7   1518230.856 9
  20270752.904    -3238551.366 7  -2472726.042 9
  20913563.006    -8216370.131 7  -6318337.965 9
  23270109.209        6767.803 6     45942.327 9
  22563297.014     7393769.799 6   5726069.848 9
 94  3  8 20 33 29.9980000  0  8  2 16 31 18 19 27 28 29
  22885541.584    -6423730.956 6  -4881094.509 9
  23745101.678     -892197.697 5   -601026.077 9
  21634002.193    -6348524.489 7  -4865469.827 9
  20437895.256     1978707.770 7   1557744.049 9
  20268998.131    -3247770.793 7  -2479909.997 9
  20903024.811    -8271748.102 7  -6361489.597 9
  23277313.623       44626.327 6     75442.479 9
  22580064.217     7481877.423 6   5794725.028 9
 94  3  8 20 33 59.9980000  0  8  2 16 31 18 19 27 28 29
  22869107.373    -6510091.859 6  -4948388.637 9
  23736028.264     -939878.740 5   -638180.134 9
  21630564.146    -6366591.652 7  -4879548.114 9
  20447643.272     2029934.917 7   1597661.276 9
  20267292.537    -3256733.038 7  -2486893.552 9
  20892528.795    -8326902.886 7  -6404467.322 9
  23284624.873       83050.590 6    105383.455 9
  22596893.561     7570318.866 6   5863640.331 9
 94  3  8 20 34 29.9980000  0  8  2 16 31 18 19 27 28 29
  22852726.936    -6596172.038 6  -5015464.019 9
  23727061.170     -987003.839 5   -674901.017 8
  21627252.389    -6383996.431 7  -4893110.261 9
  20457484.068     2081646.790 7   1637956.206 9
  20265633.639    -3265449.441 7  -2493685.548 9
  20882077.209    -8381824.630 7  -6447263.452 9
  23292046.514      122049.281 6    135772.031 9
  22613784.217     7659076.827 6   5932802.265 9
 94  3  8 20 34 59.9980000  0  8  2 16 31 18 19 27 28 29
  22836400.021    -6681970.439 6  -5082319.819 9
  23718200.592    -1033564.731 5   -711182.254 8
  21624064.225    -6400747.521 7  -4906163.030 9
  20467416.693     2133845.478 7   1678630.479 9
  20264021.412    -3273922.153 7  -2500287.654 9
  20871671.678    -8436507.401 7  -6489873.377 9
  23299582.584      161650.650 6    166630.233 9
  22630734.936     7748152.097 6   6002211.446 9
 94  3  8 20 35 29.9980000  0  8  2 16 31 18 19 27 28 29
  22820128.420    -6767475.911 6  -5148947.359 9
  23709449.912    -1079544.719 5   -747010.832 9
  21621001.904    -6416839.294 7  -4918702.044 9
  20477445.607     2186547.193 7   1719696.724 9
  20262460.162    -3282127.407 7  -2506681.351 9
  20861314.084    -8490936.367 7  -6532285.526 9
  23307235.631      201870.423 6    197970.311 9
  22647746.732     7837551.119 6   6071872.906 9
 94  3  8 20 35 59.9980000  0  8  2 16 31 18 19 27 28 29
  22803911.279    -6852696.310 6  -5215352.767 9
  23700810.357    -1124947.960 5   -782389.974 9
  21618063.428    -6432283.341 7  -4930736.339 9
  20487567.678     2239738.002 7   1761144.077 9
  20260949.350    -3290067.696 7  -2512868.583 9
  20851001.529    -8545128.391 7  -6574513.047 9
  23315002.889      242685.571 6    229774.327 9
  22664816.240     7927252.198 6   6141769.738 9
 94  3  8 20 36 29.9980000  0  8  2 16 31 18 19 27 28 29
  22787747.740    -6937636.196 6  -5281539.598 9
  23692278.521    -1169781.325 5   -817325.065 7
  21615245.787    -6447088.213 7  -4942272.561 9
  20497784.006     2293425.400 7   1802978.382 9
  20259488.701    -3297741.777 7  -2518848.372 9
  20840732.412    -8599092.717 7  -6616563.126 9
  23322878.943      284074.941 6    262025.766 9
  22681942.389     8017251.264 6   6211898.761 9
 94  3  8 20 36 59.9980000  0  8  2 16 31 18 19 27 28 29
  22771640.240    -7022283.121 6  -5347498.135 9
  23683855.850    -1214043.341 5   -851814.958 9
  21612548.498    -6461263.504 7  -4953318.210 9
  20508099.209     2347632.221 7   1845217.434 9
  20258081.232    -3305139.784 7  -2524613.045 9
  20830505.967    -8652833.377 7  -6658438.943 9
  23330859.186      326012.836 6    294704.663 9
  22699126.029     8107553.187 6   6282263.793 9
 94  3  8 20 37 29.9980000  0  8  2 16 31 18 19 27 28 29
  22755588.678    -7106634.507 6  -5413226.382 9
  23675542.420    -1257734.107 5   -885859.684 9
  21609973.061    -6474798.878 7  -4963865.219 9
  20518514.381     2402364.987 7   1887866.318 9
  20256729.428    -3312242.480 7  -2530147.604 9
  20820324.811    -8706334.793 7  -6700128.321 9
  23338943.053      368491.011 6    327804.530 9
  22716370.670     8198170.691 6   6352874.710 9
 94  3  8 20 37 59.9980000  0  8  2 16 31 18 19 27 28 29
  22739587.654    -7190717.554 6  -5478745.541 9
  23667329.998    -1300892.738 5   -919489.800 8
  21607513.443    -6487724.560 7  -4973937.144 9
  20529024.068     2457591.833 7   1930900.197 9
  20255427.201    -3319086.482 7  -2535480.582 9
  20810185.482    -8759620.013 7  -6741649.236 9
  23347123.061      411477.001 6    361300.100 9
  22733665.936     8289057.511 6   6423695.476 9
 94  3  8 20 38 29.9980000  0  8  2 16 31 18 19 27 28 29
  22723640.178    -7274525.118 6  -5544050.032 9
  23659215.397    -1343529.494 5   -952713.251 9
  21605171.740    -6500028.175 7  -4983524.352 9
  20539627.717     2513314.982 7   1974320.797 9
  20254173.748    -3325673.283 7  -2540613.143 9
  20800088.342    -8812679.123 7  -6782993.958 9
  23355401.818      454982.467 6    395200.443 9
  22751014.506     8380224.932 6   6494734.903 9
 94  3  8 20 38 59.9980000  0  8  2 16 31 18 19 27 28 29
  22707747.857    -7358036.483 6  -5609123.722 9
  23651206.100    -1385617.960 5   -985509.438 9
  21602952.147    -6511692.365 7  -4992613.300 9
  20550327.850     2569545.391 7   2018136.673 9
  20252971.975    -3331989.222 7  -2545534.641 9
  20790036.561    -8865501.241 7  -6824154.017 9
  23363786.709      499046.030 6    429535.682 9
  22768420.740     8471694.689 6   6566009.911 9
 94  3  8 20 39 29.9980000  0  8  2 16 31 18 19 27 28 29
  22691912.451    -7441254.792 6  -5673969.069 9
  23643304.147    -1427145.296 5  -1017868.417 8
  21600857.795    -6522695.822 7  -5001187.398 9
  20561125.686     2626288.052 7   2062351.706 9
  20251820.170    -3338042.237 7  -2550251.262 9
  20780029.498    -8918088.670 7  -6865131.197 9
  23372281.795      543687.646 5    464321.329 9
  22785882.725     8563457.945 6   6637513.613 9
 94  3  8 20 39 59.9980000  0  8  2 16 31 18 19 27 28 29
  22676134.818    -7524166.821 6  -5738575.737 9
  23635511.021    -1468097.298 5  -1049779.068 9
  21598890.178    -6533037.486 7  -5009245.813 9
  20572022.975     2683552.587 7   2106973.390 9
  20250716.443    -3343840.105 7  -2554769.071 9
  20770065.123    -8970452.213 7  -6905933.926 9
  23380884.459      588893.407 6    499546.586 9
  22803400.357     8655510.040 6   6709242.375 9
 94  3  8 20 40 29.9980000  0  8  2 16 31 18 19 27 28 29
  22660412.740    -7606785.306 6  -5802953.688 9
  23627829.084    -1508465.224 5  -1081234.595 9
  21597044.701    -6542734.381 7  -5016801.813 9
  20583018.467     2741334.172 7   2151997.965 9
  20249659.014    -3349397.084 7  -2559099.177 9
  20760142.045    -9022600.679 7  -6946569.059 9
  23389591.592      634653.335 5    535203.644 9
  22820973.865     8747864.171 6   6781206.504 9
 94  3  8 20 40 59.9980000  0  8  2 16 31 18 19 27 28 29
  22644745.326    -7689116.109 6  -5867107.451 9
  23620260.186    -1548244.940 5  -1112231.775 9
  21595318.857    -6551804.745 7  -5023869.604 9
  20594111.475     2799626.370 7   2197420.430 9
  20248647.326    -3354714.369 7  -2563242.502 9
  20750256.834    -9074547.023 7  -6987046.697 9
  23398403.412      680954.298 6    571282.279 9
  22838602.662     8840499.555 6   6853389.786 9
 94  3  8 20 41 29.9980000  0  8  2 16 31 18 19 27 28 29
  22629135.326    -7771150.181 6  -5931030.016 9
  23612801.811    -1587438.532 5  -1142772.244 9
  21593713.170    -6560243.118 7  -5030444.934 9
  20605299.779     2858422.903 7   2243235.883 9
  20247684.053    -3359777.117 7  -2567187.497 9
  20740412.170    -9126279.357 7  -7027357.575 9
  23407313.350      727778.272 5    607768.462 9
  22856284.162     8933420.781 6   6925795.805 9
 94  3  8 20 41 59.9980000  0  8  2 16 31 18 19 27 28 29
  22613582.225    -7852881.328 6  -5994716.529 9
  23605451.350    -1626059.406 5  -1172866.443 9
  21592227.631    -6568049.646 7  -5036527.918 9
  20616580.514     2917703.196 7   2289428.286 9
  20246772.920    -3364566.441 7  -2570919.428 9
  20730613.076    -9177772.557 7  -7067482.116 9
  23416323.568      775129.061 5    644665.157 9
  22874024.646     9026645.045 5   6998437.955 9
 94  3  8 20 42 29.9980000  0  8  2 16 31 18 19 27 28 29
  22598085.295    -7934316.578 6  -6058172.480 9
  23598207.303    -1664131.549 5  -1202533.031 9
  21590863.029    -6575219.350 7  -5042114.698 9
  20627947.889     2977437.411 7   2335974.396 9
  20245915.287    -3369072.366 7  -2574430.534 9
  20720861.951    -9229016.915 7  -7107412.757 9
  23425437.889      823025.156 5    681986.771 9
  22891819.389     9120158.929 5   7071305.760 9
 94  3  8 20 42 59.9980000  0  8  2 16 31 18 19 27 28 29
  22582644.990    -8015454.884 6  -6121397.035 9
  23591066.818    -1701658.301 5  -1231774.694 9
  21589624.029    -6581732.304 7  -5047189.703 9
  20639398.756     3037612.571 7   2382864.106 9
  20245115.771    -3373273.997 7  -2577704.521 9
  20711155.420    -9280023.273 7  -7147157.947 9
  23434654.334      871457.984 5    719726.599 9
  22909667.873     9213952.109 5   7144391.216 9
 94  3  8 20 43 29.9980000  0  8  2 16 31 18 19 27 28 29
  22567257.271    -8096320.602 6  -6184409.192 9
  23584028.217    -1738648.024 5  -1260597.855 9
  21588509.647    -6587586.668 7  -5051751.529 9
  20650930.779     3098213.240 7   2430085.375 9
  20244371.232    -3377186.403 7  -2580753.143 9
  20701493.170    -9330804.098 7  -7186727.394 9
  23443971.248      920420.673 5    757879.322 9
  22927569.842     9308020.672 6   7217691.252 9
 94  3  8 20 43 59.9980000  0  8  2 16 31 18 19 27 28 29
  22551919.264    -8176920.459 6  -6247214.191 9
  23577092.162    -1775092.566 5  -1288996.229 9
  21587520.904    -6592785.854 7  -5055802.826 9
  20662545.592     3159249.211 7   2477645.838 9
  20243679.873    -3380820.273 7  -2583584.720 9
  20691871.787    -9381363.053 7  -7226123.952 9
  23453391.006      969919.785 5    796450.023 9
  22945518.045     9402340.736 6   7291187.246 9
 94  3  8 20 44 29.9980000  0  8  2 16 31 18 19 27 28 29
  22536629.506    -8257267.991 6  -6309822.567 9
  23570262.795    -1810985.484 5  -1316964.701 9
  21586652.967    -6597346.894 7  -5059356.869 9
  20674245.490     3220734.202 7   2525556.193 9
  20243035.107    -3384207.059 7  -2586223.764 9
  20682285.576    -9431739.510 7  -7265378.308 9
  23462908.600     1019933.104 5    835421.402 9
  22963509.318     9496884.842 6   7364857.825 9
 94  3  8 20 44 59.9980000  0  8  2 16 31 18 19 27 28 29
  22521388.771    -8337358.489 6  -6372230.651 9
  23563541.201    -1846307.135 5  -1344488.114 9
  21585905.092    -6601277.072 7  -5062419.327 9
  20686037.232     3282698.459 8   2573839.992 9
  20242435.186    -3387360.101 7  -2588680.671 9
  20672731.279    -9481943.977 7  -7304498.640 9
  23472522.240     1070455.098 5    874789.168 9
  22981545.225     9591661.919 6   7438709.943 9
 94  3  8 20 45 29.9980000  0  8  2 16 31 18 19 27 28 29
  22506197.771    -8417187.664 6  -6434435.110 9
  23556923.701    -1881083.064 5  -1371586.244 9
  21585274.021    -6604592.072 7  -5065002.418 9
  20697920.647     3345145.445 8   2622499.958 9
  20241875.201    -3390303.311 7  -2590974.070 9
  20663210.889    -9531975.163 7  -7343483.944 9
  23482231.936     1121478.164 5    914547.367 9
  22999620.420     9686651.858 5   7512727.922 9
 94  3  8 20 45 59.9980000  0  8  2 16 31 18 19 27 28 29
  22491063.639    -8496719.318 6  -6496407.727 9
  23550412.725    -1915297.443 5  -1398246.817 9
  21584764.537    -6607269.160 7  -5067088.437 9
  20709899.139     3408094.312 7   2671550.993 9
  20241358.748    -3393016.175 7  -2593087.977 9
  20653728.795    -9581802.709 7  -7382310.572 9
  23492038.631     1173014.696 5    954705.675 9
  23017742.865     9781881.796 5   7586932.895 9
 94  3  8 20 46 29.9980000  0  8  2 16 31 18 19 27 28 29
  22475987.217    -8575944.887 6  -6558141.840 9
  23544009.279    -1948948.194 5  -1424468.193 9
  21584380.186    -6609290.594 7  -5068663.572 9
  20721972.568     3471539.309 7   2720988.619 9
  20240889.600    -3395482.934 7  -2595010.103 9
  20644286.209    -9631427.078 7  -7420978.887 9
  23501943.521     1225063.793 5    995263.416 9
  23035915.482     9877378.487 5   7661345.742 9
 94  3  8 20 46 59.9980000  0  8  2 16 31 18 19 27 28 29
  22460969.037    -8654866.305 6  -6619638.952 9
  23537710.951    -1982044.900 5  -1450257.855 9
  21584120.131    -6610656.495 7  -5069727.887 9
  20734136.537     3535462.343 7   2770798.743 9
  20240469.404    -3397692.907 8  -2596732.149 9
  20634885.107    -9680828.735 7  -7459473.651 9
  23511944.936     1277618.575 5   1036215.178 9
  23054140.162     9973147.683 5   7735970.914 9
 94  3  8 20 47 29.9980000  0  8  2 16 31 18 19 27 28 29
  22446004.889    -8733500.829 6  -6680912.505 9
  23531516.803    -2014594.717 5  -1475621.367 9
  21583986.756    -6611357.804 7  -5070274.340 9
  20746385.553     3599831.445 7   2820956.453 9
  20240097.342    -3399647.480 8  -2598255.175 9
  20625530.381    -9729989.347 7  -7497780.596 9
  23522039.256     1330668.089 5   1077552.442 9
  23072416.303    10069187.163 5   7810806.716 9
 94  3  8 20 47 59.9980000  0  8  2 16 31 18 19 27 28 29
  22431096.100    -8811850.408 6  -6741964.020 9
  23525431.389    -2046571.951 5  -1500538.720 9
  21583979.006    -6611397.229 7  -5070305.042 9
  20758718.545     3664640.715 7   2871457.149 9
  20239775.381    -3401337.528 8  -2599572.070 9
  20616223.006    -9778898.005 7  -7535891.214 9
  23532230.725     1384223.436 5   1119283.865 9
  23090746.061    10165513.821 5   7885866.284 9
 94  3  8 20 48 29.9980000  0  8  2 16 31 18 19 27 28 29
  22416241.295    -8889910.951 6  -6802790.314 9
  23519458.951    -2077964.799 5  -1525000.706 8
  21584094.264    -6610793.863 7  -5069834.856 9
  20771136.584     3729898.183 7   2922307.091 9
  20239505.975    -3402754.442 8  -2600676.144 9
  20606963.717    -9827554.350 7  -7573805.227 9
  23542520.170     1438290.710 5   1161414.189 9
  23109130.631    10262123.874 5   7961146.678 9
 94  3  8 20 48 59.9980000  0  8  2 16 31 18 19 27 28 29
  22401440.186    -8967690.441 6  -6863397.601 9
  23513594.904    -2108776.481 5  -1549009.828 9
  21584327.287    -6609565.483 7  -5068877.662 9
  20783639.022     3795597.402 7   2973501.250 9
  20239286.248    -3403907.469 7  -2601574.585 9
  20597753.928    -9875953.393 7  -7611518.749 9
  23552905.975     1492872.193 5   1203945.208 9
  23127565.373    10359000.452 5   8036634.737 9
 94  3  8 20 49 29.9980000  0  8  2 16 31 18 19 27 28 29
  22386695.389    -9045172.091 6  -6923772.801 9
  23507843.764    -2138999.871 5  -1572560.555 9
  21584680.818    -6607709.822 7  -5067431.667 9
  20796225.725     3861739.935 8   3025040.846 9
  20239119.014    -3404787.307 7  -2602260.157 9
  20588591.740    -9924101.026 7  -7649036.356 9
  23563391.928     1547976.279 5   1246883.435 9
  23146050.123    10456136.963 5   8112325.333 9
 94  3  8 20 49 59.9980000  0  8  2 16 31 18 19 27 28 29
  22372011.889    -9122338.097 6  -6983902.063 9
  23502206.686    -2168622.284 5  -1595642.973 9
  21585151.264    -6605237.714 7  -5065505.336 9
  20808902.217     3928355.507 8   3076949.051 9
  20239005.732    -3405384.752 8  -2602725.689 9
  20579473.475    -9972017.740 7  -7686374.029 9
  23573979.092     1603609.053 5   1290233.651 9
  23164582.951    10553523.249 5   8188210.575 9
 94  3  8 20 50 29.9980000  0  8  2 16 31 18 19 27 28 29
  22357385.568    -9199198.016 6  -7043792.797 9
  23496682.514    -2197657.132 5  -1618267.562 9
  21585741.600    -6602134.838 7  -5063087.485 9
  20821667.506     3995438.222 7   3129221.256 9
  20238945.139    -3405700.779 8  -2602971.937 9
  20570395.904   -10019721.639 7  -7723545.880 9
  23584661.834     1659749.599 5   1333979.505 9
  23183156.936    10651129.137 5   8264266.935 9
 94  3  8 20 50 59.9980000  0  8  2 16 31 18 19 27 28 29
  22342818.662    -9275747.139 6  -7103441.366 9
  23491264.795    -2226121.844 5  -1640447.875 9
  21586456.881    -6598374.287 7  -5060157.165 9
  20834522.186     4062990.110 7   3181859.049 9
  20238938.123    -3405738.532 8  -2603001.348 9
  20561358.959   -10067210.435 7  -7760550.112 9
  23595441.943     1716398.473 5   1378121.479 9
  23201769.865    10748942.208 5   8340484.738 9
 94  3  8 20 51 29.9980000  0  8  2 16 31 18 19 27 28 29
  22328310.529    -9351986.199 6  -7162848.327 9
  23485956.584    -2254018.214 5  -1662185.340 9
  21587298.764    -6593952.873 7  -5056711.887 9
  20847467.506     4131016.251 8   3234866.399 9
  20238983.334    -3405502.401 8  -2602817.339 9
  20552362.162   -10114488.789 7  -7797390.364 9
  23606315.850     1773544.201 5   1422650.584 9
  23220423.295    10846966.662 5   8416867.249 9
 94  3  8 20 51 59.9980000  0  8  2 16 31 18 19 27 28 29
  22313856.537    -9427941.461 6  -7222034.147 9
  23480751.740    -2281367.687 5  -1683496.642 9
  21588263.787    -6588879.768 7  -5052758.794 9
  20860499.514     4199500.564 7   3288230.759 9
  20239074.545    -3405020.847 7  -2602442.093 9
  20543402.553   -10161571.420 7  -7834078.103 9
  23617279.490     1831160.927 5   1467546.741 9
  23239115.529    10945190.307 5   8493404.963 9
 94  3  8 20 52 29.9980000  0  8  2 16 31 18 19 27 28 29
  22299464.311    -9503574.249 6  -7280968.701 9
  23475656.334    -2308147.262 5  -1704363.879 9
  21589361.107    -6583113.748 7  -5048265.766 9
  20873621.162     4268456.809 7   3341962.865 9
  20239218.889    -3404261.354 8  -2601850.270 9
  20534490.232   -10208405.045 7  -7870571.810 9
  23628340.725     1889285.818 5   1512838.834 9
  23257855.061    11043667.787 5   8570140.480 9
 94  3  8 20 52 59.9980000  0  8  2 16 31 18 19 27 28 29
  22285135.811    -9578870.797 6  -7339641.239 9
  23470672.037    -2334341.493 5  -1724774.979 9
  21590589.279    -6576660.002 7  -5043236.854 9
  20886835.826     4337898.398 7   3396073.158 9
  20239416.607    -3403224.001 8  -2601041.933 9
  20525631.170   -10254960.299 7  -7906848.600 9
  23639503.928     1947944.971 5   1558547.254 9
  23276648.561    11142431.231 5   8647098.815 9
 94  3  8 20 53 29.9980000  0  8  2 16 31 18 19 27 28 29
  22270867.420    -9653851.195 6  -7398067.437 9
  23465799.397    -2359948.268 5  -1744728.337 9
  21591942.459    -6569547.951 7  -5037694.968 9
  20900138.100     4407803.298 7   3450544.476 9
  20239662.928    -3401929.772 8  -2600033.437 9
  20516823.037   -10301247.578 7  -7942916.582 9
  23650762.732     2007113.921 5   1604652.877 9
  23295495.959    11241473.466 5   8724274.377 9
 94  3  8 20 53 59.9980000  0  8  2 16 31 18 19 27 28 29
  22256659.693    -9728513.461 6  -7456245.723 9
  23461036.404    -2384978.425 5  -1764232.395 9
  21593420.811    -6561778.789 7  -5031641.059 9
  20913527.826     4478164.941 7   3505371.694 9
  20239958.248    -3400378.219 8  -2598824.426 9
  20508066.490   -10347262.776 7  -7978772.549 9
  23662120.006     2066792.625 5   1651155.741 9
  23314395.443    11340783.144 5   8801658.365 9
 94  3  8 20 54 29.9980000  0  8  2 16 31 18 19 27 28 29
  22242513.428    -9802852.840 7  -7514172.421 9
  23456383.529    -2409423.812 5  -1783280.750 9
  21595024.936    -6553354.302 7  -5025076.501 9
  20927005.803     4548993.932 7   3560563.084 9
  20240305.686    -3398551.580 8  -2597401.054 9
  20499364.084   -10392995.279 7  -8014408.231 9
  23673576.521     2126994.546 5   1698066.304 9
  23333345.670    11440370.257 5   8879258.531 9
 94  3  8 20 54 59.9980000  0  8  2 16 31 18 19 27 28 29
  22228426.857    -9876876.795 7  -7571853.337 9
  23451843.818    -2433281.920 5  -1801871.516 9
  21596750.686    -6544279.916 7  -5018005.533 9
  20940574.592     4620297.779 7   3616124.495 9
  20240707.342    -3396440.799 8  -2595756.281 9
  20490714.686   -10438448.788 7  -8049826.519 9
  23685129.451     2187709.481 5   1745376.596 9
  23352345.287    11540213.728 5   8957058.439 9
 94  3  8 20 55 29.9980000  0  8  2 16 31 18 19 27 28 29
  22214399.123    -9950592.385 7  -7629293.964 9
  23447415.615    -2456547.929 5  -1820000.882 9
  21598602.186    -6534550.905 7  -5010424.473 9
  20954231.889     4692067.202 7   3672048.688 9
  20241167.115    -3394024.964 8  -2593873.797 9
  20482114.701   -10483640.162 7  -8085040.543 9
  23696778.787     2248926.872 5   1793078.429 9
  23371392.873    11640310.404 5   9035055.644 9
 94  3  8 20 55 59.9980000  0  8  2 16 31 18 19 27 28 29
  22200428.037   -10024010.666 7  -7686502.924 9
  23443101.420    -2479218.685 5  -1837666.420 9
  21600578.006    -6524164.894 7  -5002331.467 9
  20967976.912     4764298.315 7   3728332.643 9
  20241687.990    -3391289.103 8  -2591741.944 9
  20473561.779   -10528586.390 7  -8120063.548 9
  23708524.959     2310655.980 5   1841178.980 9
  23390489.295    11740662.545 5   9113251.910 9
 94  3  8 20 56 29.9980000  0  8  2 16 31 18 19 27 28 29
  22186513.115   -10097134.945 7  -7743482.788 9
  23438903.623    -2501275.693 5  -1854853.715 9
  21602680.240    -6513118.621 7  -4993723.978 9
  20981809.975     4836991.765 7   3784976.861 9
  20242268.592    -3388236.597 7  -2589363.359 9
  20465053.865   -10573295.690 7  -8154901.934 9
  23720367.756     2372889.648 5   1889672.697 9
  23409633.936    11841264.081 5   9191642.515 9
 94  3  8 20 56 59.9980000  0  8  2 16 31 18 19 27 28 29
  22172654.725   -10169959.340 7  -7800228.977 9
  23434824.904    -2522712.015 5  -1871557.357 9
  21604909.686    -6501403.819 7  -4984595.551 9
  20995731.014     4910148.628 7   3841982.172 9
  20242908.186    -3384874.604 7  -2586743.607 9
  20456593.467   -10617755.128 7  -8189545.622 9
  23732305.170     2435619.068 5   1938552.708 9
  23428822.576    11942105.831 5   9270220.284 9
 94  3  8 20 57 29.9980000  0  8  2 16 31 18 19 27 28 29
  22158854.264   -10242480.592 7  -7856738.954 9
  23430865.670    -2543522.149 5  -1887773.072 9
  21607268.092    -6489011.425 7  -4974939.138 9
  21009739.982     4983766.757 7   3899346.923 9
  20243603.193    -3381220.603 7  -2583896.319 9
  20448180.373   -10661965.550 7  -8223995.271 9
  23744336.029     2498841.751 5   1987817.084 9
  23448059.693    12043194.937 5   9348990.815 9
 94  3  8 20 57 59.9980000  0  8  2 16 31 18 19 27 28 29
  22145117.756   -10314665.948 6  -7912987.194 9
  23427022.662    -2563712.151 5  -1903505.527 9
  21609756.389    -6475933.138 7  -4964748.260 9
  21023839.115     5057859.206 7   3957081.280 9
  20244351.467    -3377288.966 7  -2580832.689 9
  20439817.857   -10705911.279 7  -8258238.666 9
  23756459.178     2562549.482 5   2037459.445 9
  23467341.982    12144522.627 5   9427947.235 9
 94  3  8 20 58 29.9980000  0  8  2 16 31 18 19 27 28 29
  22131451.037   -10386483.378 6  -7968948.731 9
  23423298.670    -2583286.298 5  -1918758.113 9
  21612378.061    -6462153.261 7  -4954010.692 9
  21038030.357     5132433.237 7   4015190.889 9
  20245153.506    -3373075.179 8  -2577549.210 9
  20431511.342   -10749559.371 7  -8292250.137 9
  23768674.529     2626741.877 5   2087479.439 9
  23486669.475    12246088.364 5   9507089.146 9
 94  3  8 20 58 59.9980000  0  8  2 16 31 18 19 27 28 29
  22117856.631   -10457923.854 7  -8024616.545 9
  23419689.553    -2602254.341 5  -1933538.443 9
  21615134.529    -6447671.646 7  -4942726.306 9
  21052310.896     5207478.201 7   4073667.462 9
  20246012.623    -3368560.734 7  -2574031.450 9
  20423262.818   -10792906.192 7  -8326026.849 9
  23780984.068     2691432.335 5   2137887.560 9
  23506043.631    12347900.316 5   9586422.935 9
 94  3  8 20 59 29.9980000  0  8  2 16 31 18 19 27 28 29
  22104336.061   -10528975.315 7  -8079981.231 9
  23416196.584    -2620612.809 5  -1947843.737 9
  21618022.045    -6432497.563 7  -4930902.346 9
  21066681.553     5282995.016 7   4132511.706 9
  20246931.928    -3363728.119 7  -2570265.763 9
  20415067.959   -10835970.855 7  -8359583.695 9
  23793391.365     2756632.969 5   2188693.182 9
  23525466.498    12449963.675 5   9665952.605 9
 94  3  8 20 59 59.9980000  0  7  2 16 31 18 19 27 29
  22090889.811   -10599633.724 7  -8135039.638 9
  23412815.350    -2638378.979 5  -1961687.528 9
  21621038.779    -6416647.169 7  -4918551.377 9
  21081137.834     5358963.468 7   4191707.877 9
  20247913.459    -3358570.116 7  -2566246.527 9
  20406925.889   -10878756.485 7  -8392923.111 9
  23544934.662    12552268.016 5   9745670.036 9
 94  3  8 21  0 29.9980000  0  7  2 16 31 18 19 27 29
  22077514.654   -10669920.508 7  -8189808.463 9
  23409547.545    -2655550.757 5  -1975068.146 9
  21624180.170    -6400133.944 7  -4905683.925 9
  21095679.373     5435379.527 7   4251252.832 9
  20248958.529    -3353078.100 7  -2561967.027 9
  20398837.928   -10921261.093 7  -8426043.552 9
  23564450.600    12654827.141 5   9825586.006 9
 94  3  8 21  0 59.9980000  0  7  2 16 31 18 19 27 29
  22064208.842   -10739842.132 7  -8244292.750 9
  23406394.623    -2672115.107 5  -1987975.444 9
  21627446.162    -6382970.587 7  -4892309.874 9
  21110307.490     5512250.309 7   4311152.117 9
  20250067.670    -3347250.055 7  -2557425.686 9
  20390803.256   -10963483.699 7  -8458944.251 9
  23584016.693    12757648.380 5   9905706.230 9
 94  3  8 21  1 29.9980000  0  7  2 16 31 18 19 27 29
  22050971.139   -10809407.620 7  -8298499.529 9
  23403355.404    -2688085.337 5  -2000419.788 9
  21630835.084    -6365161.609 7  -4878432.741 9
  21125019.795     5589565.351 7   4371397.574 9
  20251235.146    -3341115.780 7  -2552645.727 9
  20382821.576   -11005428.247 7  -8491628.279 9
  23603628.545    12860712.177 5   9986015.465 9
 94  3  8 21  1 59.9980000  0  7  2 16 31 18 19 27 29
  22037797.381   -10878635.529 7  -8352443.261 9
  23400430.748    -2703463.318 5  -2012402.636 9
  21634350.459    -6346689.409 7  -4864038.812 9
  21139815.084     5667313.791 7   4431980.746 9
  20252459.522    -3334680.223 7  -2547631.000 9
  20374897.568   -11047067.628 7  -8524074.515 9
  23623286.576    12964015.303 5  10066511.175 9
 94  3  8 21  2 29.9980000  0  7  2 16 31 18 19 27 29
  22024686.271   -10947534.897 7  -8406130.988 9
  23397622.670    -2718216.247 5  -2023898.447 9
  21637996.373    -6327532.020 7  -4849110.968 9
  21154697.412     5745520.204 7   4492920.777 9
  20253744.396    -3327927.993 7  -2542369.519 9
  20367035.021   -11088386.876 7  -8556271.306 9
  23642991.607    13067558.310 5  10147193.801 9
 94  3  8 21  2 59.9980000  0  7  2 16 31 18 19 27 29
  22011637.990   -11016104.484 7  -8459561.733 9
  23394934.881    -2732340.091 5  -2034904.047 9
  21641775.139    -6307672.278 7  -4833635.838 9
  21169666.154     5824180.609 7   4554214.562 9
  20255088.834    -3320863.972 7  -2536865.079 9
  20359231.498   -11129392.209 7  -8588223.484 9
  23662735.842    13171319.486 5  10228046.436 9
 94  3  8 21  3 29.9980000  0  7  2 16 31 18 19 27 29
  21998653.021   -11084342.777 7  -8512734.335 9
  23392365.365    -2745839.444 5  -2045423.050 9
  21645689.639    -6287102.934 7  -4817607.766 9
  21184721.912     5903300.993 7   4615866.774 9
  20256492.404    -3313488.346 7  -2531117.834 9
  20351486.506   -11170093.584 7  -8619938.816 9
  23682519.842    13275284.261 5  10309057.707 9
 94  3  8 21  3 59.9980000  0  7  2 16 31 18 19 27 29
  21985729.115   -11152256.465 7  -8565653.997 9
  23389916.873    -2758709.094 5  -2055451.319 9
  21649735.498    -6265842.834 7  -4801041.439 9
  21199867.623     5982890.131 7   4677884.246 9
  20257956.021    -3305797.416 7  -2525124.897 9
  20343796.896   -11210502.704 7  -8651426.422 9
  23702342.076    13379449.075 5  10390224.834 9
 94  3  8 21  4 29.9980000  0  6  2 16 31 18 19 27
  21972871.615   -11219823.858 7  -8618303.817 9
  23387589.990    -2770944.089 5  -2064985.081 9
  21653911.889    -6243895.318 7  -4783939.471 9
  21215106.678     6062970.793 7   4740284.723 9
  20259480.201    -3297788.694 7  -2518884.342 9
  20336161.811   -11250624.564 7  -8682690.184 9
 94  3  8 21  4 59.9980000  0  6  2 16 31 18 19 27
  21960076.092   -11287065.146 7  -8670699.522 9
  23385372.397    -2782591.360 5  -2074060.885 9
  21658211.818    -6221297.095 7  -4766330.452 9
  21230431.396     6143502.422 7   4803036.609 9
  20261056.521    -3289502.232 7  -2512427.342 9
  20328573.842   -11290499.110 7  -8713761.245 9
 94  3  8 21  5 29.9980000  0  6  2 16 31 18 19 27
  21947350.764   -11353934.133 7  -8722805.129 9
  23383277.545    -2793600.411 5  -2082639.362 9
  21662642.772    -6198012.085 7  -4748186.281 9
  21245849.748     6224526.557 7   4866172.255 9
  20262695.881    -3280888.021 7  -2505714.972 9
  20321044.100   -11330069.217 7  -8744595.063 9
 94  3  8 21  5 59.9980000  0  6  2 16 31 18 19 27
  21934687.795   -11420478.047 7  -8774657.441 9
  23381297.646    -2804004.055 5  -2090746.112 9
  21667197.436    -6174077.429 7  -4729535.891 9
  21261351.068     6305988.202 7   4929648.824 9
  20264390.100    -3271985.256 7  -2498777.750 9
  20313565.014   -11369371.751 7  -8775220.393 9
 94  3  8 21  6 29.9980000  0  6  2 16 31 18 19 27
  21922085.764   -11486702.680 7  -8826260.954 9
  23379428.045    -2813823.898 5  -2098397.927 9
  21671874.631    -6149499.029 7  -4710383.886 9
  21276931.451     6387862.033 7   4993446.572 9
  20266138.271    -3262798.754 7  -2491619.424 9
  20306136.350   -11408411.282 7  -8805640.778 9
 94  3  8 21  6 59.9980000  0  6  2 16 31 18 19 27
  21909545.975   -11552600.440 7  -8877609.766 9
  23377670.076    -2823062.742 5  -2105597.028 9
  21676673.279    -6124280.298 7  -4690732.917 9
  21292589.178     6470143.141 7   5057561.669 9
  20267941.818    -3253320.736 7  -2484233.945 9
  20298758.279   -11447181.697 7  -8835851.462 9
 94  3  8 21  7 29.9980000  0  6  2 16 31 18 19 27
  21897066.076   -11618181.828 7  -8928712.053 9
  23376019.443    -2831742.005 5  -2112360.079 9
  21681590.365    -6098441.869 7  -4670599.059 9
  21308321.279     6552817.465 7   5121983.179 9
  20269799.631    -3243559.672 7  -2476627.908 9
  20291431.029   -11485687.611 7  -8865856.043 9
 94  3  8 21  7 59.9980000  0  6  2 16 31 18 19 27
  21884650.068   -11683428.186 7  -8979553.279 9
  23374473.326    -2839866.967 5  -2118691.244 9
  21686627.693    -6071972.965 7  -4649973.926 9
  21324128.967     6635885.701 7   5186711.621 9
  20271711.123    -3233514.393 7  -2468800.409 9
  20284154.365   -11523926.823 7  -8895652.800 9
 94  3  8 21  8 29.9980000  0  6  2 16 31 18 19 27
  21872303.873   -11748308.341 7  -9030109.155 9
  23373036.436    -2847421.082 5  -2124577.548 9
  21691787.475    -6044858.378 7  -4628845.674 9
  21340016.217     6719373.348 7   5251766.886 9
  20273680.732    -3223164.600 7  -2460735.634 9
  20276934.295   -11561867.710 7  -8925217.105 9
 94  3  8 21  8 59.9980000  0  6  2 16 31 18 19 27
  21860024.131   -11812836.048 7  -9080390.397 9
  23371708.107    -2854399.773 5  -2130015.504 9
  21697068.951    -6017104.224 7  -4607219.039 9
  21355979.850     6803263.826 7   5317136.037 9
  20275704.959    -3212526.659 7  -2452446.323 9
  20269770.240   -11599512.756 7  -8954550.876 9
 94  3  8 21  9 29.9980000  0  6  2 16 31 18 19 27
  21847808.498   -11877029.648 7  -9130411.296 9
  23370490.967    -2860797.801 5  -2135000.996 9
  21702471.912    -5988709.679 7  -4585093.422 9
  21372015.639     6887531.900 7   5382799.418 9
  20277780.772    -3201617.494 7  -2443945.671 9
  20262660.021   -11636880.522 7  -8983668.587 9
 94  3  8 21  9 59.9980000  0  6  2 16 31 18 19 27
  21835657.842   -11940883.503 7  -9180167.449 9
  23369386.842    -2866596.806 5  -2139519.675 9
  21707999.006    -5959664.343 7  -4562460.692 9
  21388124.662     6972184.832 7   5448762.693 9
  20279910.732    -3190424.191 7  -2435223.611 9
  20255601.662   -11673973.254 7  -9012571.985 9
 94  3  8 21 10 29.9980000  0  6  2 16 31 18 19 27
  21823571.264   -12004397.674 7  -9229658.932 9
  23368400.920    -2871779.449 5  -2143558.106 9
  21713652.295    -5929954.840 7  -4539310.425 9
  21404311.600     7057247.484 7   5515045.220 9
  20282099.053    -3178924.287 7  -2426262.643 9
  20248599.123   -11710771.565 8  -9041245.970 9
 94  3  8 21 10 59.9980000  0  6  2 16 31 18 19 27
  21811546.748   -12067587.212 7  -9278897.443 9
  23367531.139    -2876350.298 5  -2147119.809 9
  21719433.873    -5899573.056 7  -4515636.305 9
  21420573.865     7142707.812 7   5581637.640 9
  20284344.740    -3167124.669 7  -2417068.134 9
  20241648.975   -11747294.686 8  -9069705.513 9
 94  3  8 21 11 29.9980000  0  6  2 16 31 18 19 27
  21799586.537   -12130436.284 7  -9327870.656 9
  23366777.670    -2880308.576 5  -2150204.159 9
  21725345.576    -5868509.390 7  -4491430.841 9
  21436917.646     7228594.733 7   5648562.463 9
  20286652.498    -3154997.345 7  -2407618.267 9
  20234753.295   -11783533.752 8  -9097943.724 9
 94  3  8 21 11 59.9980000  0  6  2 16 31 18 19 27
  21787689.021   -12192958.165 7  -9376588.917 9
  23366139.217    -2883666.910 5  -2152821.048 9
  21731383.615    -5836777.313 7  -4466704.549 9
  21453344.506     7314918.529 7   5715827.712 9
  20289021.529    -3142546.023 7  -2397915.933 9
  20227911.076   -11819486.654 7  -9125958.943 9
 94  3  8 21 12 29.9980000  0  6  2 16 31 18 19 27
  21775853.162   -12255156.650 7  -9425055.189 9
  23365613.397    -2886431.036 5  -2154974.901 9
  21737549.006    -5804375.082 7  -4441456.056 9
  21469853.217     7401671.402 7   5783427.297 9
  20291449.771    -3129785.600 7  -2387972.743 9
  20221123.873   -11855153.757 7  -9153751.467 9
 94  3  8 21 12 59.9980000  0  6  2 16 31 18 19 27
  21764078.443   -12317032.470 7  -9473270.029 9
  23365195.818    -2888618.151 5  -2156679.143 9
  21743838.756    -5771329.037 7  -4415705.904 9
  21486439.061     7488828.801 7   5851342.104 9
  20293934.186    -3116730.286 7  -2377799.764 9
  20214385.834   -11890562.848 7  -9181342.942 9
 94  3  8 21 13 29.9980000  0  6  2 16 31 18 19 27
  21752366.678   -12378578.782 7  -9521228.111 9
  23364890.482    -2890222.773 5  -2157929.497 9
  21750244.803    -5737662.294 7  -4389472.079 9
  21503102.881     7576394.930 7   5919575.403 9
  20296475.764    -3103374.729 7  -2367392.832 9
  20207698.162   -11925706.552 7  -9208727.622 9
 94  3  8 21 13 59.9980000  0  6  2 16 31 18 19 27
  21740721.006   -12439776.777 7  -9568914.780 9
  23364700.162    -2891225.001 5  -2158710.456 9
  21756772.600    -5703356.011 7  -4362739.923 9
  21519844.725     7664376.580 7   5988132.482 9
  20299075.982    -3089709.995 7  -2356744.978 9
  20201066.654   -11960554.932 7  -9235882.178 9
 94  3  8 21 14 29.9980000  0  6  2 16 31 18 19 27
  21729138.209   -12500642.883 7  -9616342.830 9
  23364618.092    -2891662.543 5  -2159051.390 9
  21763415.154    -5668451.510 7  -4335541.618 9
  21536656.100     7752721.626 7   6056972.721 9
  20301730.607    -3075760.466 7  -2345875.208 9
  20194487.873   -11995126.561 7  -9262821.081 9
 94  3  8 21 14 59.9980000  0  6  2 16 31 18 19 27
  21717617.123   -12561187.952 7  -9663520.728 9
  23364640.443    -2891540.696 5  -2158956.447 9
  21770168.209    -5632962.356 7  -4307887.737 9
  21553534.092     7841414.389 7   6126083.911 9
  20304439.482    -3061524.334 7  -2334782.109 9
  20187963.771   -12029410.421 7  -9289535.751 9
 94  3  8 21 15 29.9980000  0  6  2 16 31 18 19 27
  21706164.287   -12621373.364 7  -9710418.371 9
  23364779.225    -2890816.676 5  -2158392.273 9
  21777044.123    -5596828.767 6  -4279731.699 9
  21570486.670     7930501.564 7   6195502.431 9
  20307210.678    -3046961.424 7  -2323434.380 9
  20181506.646   -12063341.895 7  -9315975.838 9
 94  3  8 21 15 59.9980000  0  6  2 16 31 18 19 27
  21694780.795   -12681191.685 7  -9757029.969 9
  23365027.678    -2889502.102 5  -2157367.933 9
  21784045.467    -5560035.141 6  -4251061.355 9
  21587514.131     8019981.112 7   6265226.690 9
  20310043.068    -3032079.100 7  -2311837.752 9
  20175117.623   -12096916.789 7  -9342138.073 9
 94  3  8 21 16 29.9980000  0  6  2 16 31 18 19 27
  21683467.709   -12740643.383 7  -9803355.892 9
  23365390.404    -2887601.154 5  -2155886.663 9
  21791171.318    -5522588.090 6  -4221881.851 9
  21604615.389     8109848.688 7   6335253.320 9
  20312934.896    -3016880.682 7  -2299994.818 9
  20168793.154   -12130151.022 7  -9368034.858 9
 94  3  8 21 16 59.9980000  0  6  2 16 31 18 19 27
  21672223.912   -12799728.628 7  -9849396.266 9
  23365862.748    -2885113.606 5  -2153948.313 9
  21798424.076    -5484477.361 6  -4192185.183 9
  21621793.647     8200123.432 7   6405597.225 9
  20315887.615    -3001363.678 7  -2287903.637 9
  20162531.021   -12163060.430 7  -9393678.536 9
 94  3  8 21 17 29.9980000  0  6  2 16 31 18 19 27
  21661050.506   -12858444.347 7  -9895148.698 9
  23366446.600    -2882048.370 5  -2151559.808 9
  21805799.678    -5445715.851 6  -4161981.412 9
  21639050.709     8290807.824 7   6476260.325 9
  20318900.022    -2985532.569 7  -2275567.701 9
  20156325.139   -12195671.120 7  -9419089.446 9
 94  3  8 21 17 59.9980000  0  6  2 16 31 18 19 27
  21649945.748   -12916801.154 7  -9940621.466 9
  23367140.889    -2878398.079 5  -2148715.423 9
  21813297.209    -5406316.970 7  -4131280.990 9
  21656384.232     8381897.516 7   6547239.251 9
  20321974.459    -2969376.590 7  -2262978.620 9
  20150174.568   -12227992.326 7  -9444274.783 9
 94  3  8 21 18 29.9980000  0  6  2 16 31 18 19 27
  21638910.139   -12974793.852 7  -9985810.500 9
  23367952.756    -2874131.837 5  -2145391.087 9
  21820919.209    -5366264.206 7  -4100071.042 9
  21673798.287     8473411.484 7   6618548.787 9
  20325118.092    -2952857.441 7  -2250106.547 9
  20144084.193   -12259998.080 7  -9469214.315 9
 94  3  8 21 18 59.9980000  0  6  2 16 31 18 19 27
  21627937.967   -13032451.907 7 -10030738.789 9
  23368877.576    -2869269.354 5  -2141602.170 9
  21828662.693    -5325573.139 7  -4068363.723 9
  21691290.771     8565332.809 7   6690175.741 9
  20328326.397    -2935998.389 7  -2236969.613 9
  20138051.209   -12291702.447 7  -9493919.002 9
 94  3  8 21 19 29.9980000  0  6  2 16 31 18 19 27
  21617030.857   -13089767.560 7 -10075400.267 9
  23369918.654    -2863798.603 5  -2137339.237 9
  21836531.334    -5284221.970 7  -4036142.033 9
  21708860.561     8657660.391 7   6762119.266 9
  20331601.193    -2918788.765 7  -2223559.511 9
  20132081.256   -12323074.615 7  -9518364.826 9
 94  3  8 21 19 59.9980000  0  6  2 16 31 18 19 27
  21606188.037   -13146747.633 7 -10119800.251 9
  23371074.178    -2857733.065 5  -2132612.848 9
  21844526.834    -5242208.701 7  -4003404.417 9
  21726504.490     8750379.388 7   6834367.788 9
  20334941.240    -2901235.609 7  -2209881.717 9
  20126176.131   -12354105.834 8  -9542544.975 9
 94  3  8 21 20 29.9980000  0  6  2 16 31 18 19 27
  21595410.857   -13203381.945 7 -10163930.813 9
  23372337.693    -2851089.545 5  -2127436.118 9
  21852645.607    -5199539.116 7  -3970155.379 9
  21744219.693     8843474.062 7   6906909.043 9
  20338343.623    -2883356.049 7  -2195949.588 9
  20120334.451   -12384805.002 8  -9566466.389 9
 94  3  8 21 20 59.9980000  0  6  2 16 31 18 19 27
  21584700.600   -13259663.639 7 -10207786.607 9
  23373710.443    -2843879.377 5  -2121817.783 9
  21860887.131    -5156230.552 7  -3936408.446 9
  21762003.045     8936926.814 7   6979729.313 9
  20341804.100    -2865169.741 7  -2181778.434 9
  20114551.990   -12415191.360 7  -9590144.053 9
 94  3  8 21 21 29.9980000  0  6  2 16 31 18 19 27
  21574054.311   -13315610.185 7 -10251381.253 9
  23375185.318    -2836123.902 5  -2115774.546 9
  21869246.037    -5112305.999 7  -3902181.515 9
  21779848.873     9030704.890 7   7052803.088 9
  20345320.193    -2846693.511 7  -2167381.375 9
  20108825.193   -12445284.959 7  -9613593.589 9
 94  3  8 21 21 59.9980000  0  6  2 16 31 18 19 27
  21563473.436   -13371213.648 7 -10294708.563 9
  23376768.975    -2827800.045 5  -2109288.449 8
  21877719.779    -5067773.663 7  -3867480.982 9
  21797758.857     9124820.659 7   7126139.997 9
  20348892.201    -2827923.333 7  -2152755.260 9
  20103153.678   -12475089.018 7  -9636817.512 9
 94  3  8 21 22 29.9980000  0  6  2 16 31 18 19 27
  21552958.756   -13426467.812 7 -10337763.685 9
  23378464.428    -2818894.985 5  -2102349.433 9
  21886310.272    -5022631.478 7  -3832305.255 9
  21815734.990     9219286.199 7   7199749.461 9
  20352519.154    -2808863.753 7  -2137903.636 9
  20097538.350   -12504598.068 7  -9659811.557 9
 94  3  8 21 22 59.9980000  0  6  2 16 31 18 19 27
  21542497.482   -13481440.063 7 -10380599.140 9
  23380262.670    -2809448.303 5  -2094988.399 9
  21895008.498    -4976923.268 7  -3796688.462 9
  21833768.404     9314050.804 7   7273591.958 9
  20356190.686    -2789569.395 7  -2122869.071 9
  20091970.045   -12533859.734 7  -9682612.841 9
 94  3  8 21 23 29.9980000  0  6  2 16 31 18 19 27
  21532099.146   -13536085.350 7 -10423179.821 9
  23382170.701    -2799413.946 5  -2087169.427 8
  21903825.147    -4930591.177 7  -3760585.540 9
  21851866.443     9409161.371 7   7347704.027 9
  20359915.998    -2769991.317 7  -2107613.425 9
  20086459.873   -12562815.340 7  -9705175.630 9
 94  3  8 21 23 59.9980000  0  6  2 16 31 18 19 27
  21521768.490   -13590373.266 7 -10465482.027 9
  23384196.154    -2788772.176 5  -2078877.115 9
  21912761.365    -4883632.375 7  -3723994.267 9
  21870035.725     9504640.125 7   7422102.993 9
  20363700.146    -2750105.117 7  -2092117.685 9
  20081011.779   -12591446.174 7  -9727485.353 9
 94  3  8 21 24 29.9980000  0  6  2 16 31 18 19 27
  21511500.725   -13644330.116 7 -10507526.266 9
  23386330.279    -2777561.788 5  -2070141.771 9
  21921810.490    -4836078.027 7  -3686938.946 9
  21888269.334     9600458.317 7   7496766.466 9
  20367540.373    -2729925.397 7  -2076393.228 9
  20075621.826   -12619769.205 7  -9749555.225 9
 94  3  8 21 24 59.9980000  0  6  2 16 31 18 19 27
  21501291.967   -13697975.750 7 -10549327.993 9
  23388566.350    -2765806.122 5  -2060981.508 9
  21930969.506    -4787947.286 7  -3649434.478 9
  21906563.482     9696592.835 7   7571676.416 9
  20371437.607    -2709445.913 7  -2060435.187 9
  20070289.795   -12647789.600 7  -9771389.275 9
 94  3  8 21 25 29.9980000  0  6  2 16 31 18 19 27
  21491144.271   -13751299.853 7 -10590879.184 9
  23390903.857    -2753525.464 5  -2051412.172 9
  21940233.842    -4739262.876 7  -3611498.598 9
  21924918.021     9793049.441 7   7646837.347 9
  20375393.975    -2688654.251 7  -2044233.891 9
  20065017.076   -12675497.196 7  -9792979.581 9
 94  3  8 21 25 59.9980000  0  6  2 16 31 18 19 27
  21481057.639   -13804308.255 7 -10632184.379 9
  23393339.967    -2740721.758 5  -2041435.263 9
  21949601.936    -4690031.438 7  -3573136.464 9
  21943336.748     9889840.703 7   7722259.051 9
  20379411.092    -2667546.349 7  -2027786.178 9
  20059803.787   -12702893.415 7  -9814327.263 9
 94  3  8 21 26 29.9980000  0  6  2 16 31 18 19 27
  21471030.279   -13857002.392 7 -10673244.679 9
  23395877.967    -2727380.268 5  -2031039.326 9
  21959082.389    -4640213.187 7  -3534317.059 9
  21961822.396     9986983.061 7   7797954.338 9
  20383488.904    -2646114.197 7  -2011085.806 9
  20054652.600   -12729962.099 7  -9835419.724 9
 94  3  8 21 26 59.9980000  0  6  2 16 31 18 19 27
  21461057.170   -13909409.193 7 -10714081.091 9
  23398511.904    -2713540.122 5  -2020254.778 9
  21968670.764    -4589823.857 7  -3495052.676 9
  21980367.334    10084433.846 7   7873889.950 9
  20387619.818    -2624405.175 7  -1994169.688 9
  20049554.865   -12756752.074 7  -9856295.009 9
 94  3  8 21 27 29.9980000  0  6  2 16 31 18 19 27
  21451142.115   -13961515.110 7 -10754683.046 9
  23401246.631    -2699170.509 5  -2009057.704 9
  21978372.764    -4538840.181 7  -3455325.161 9
  21998973.725    10182211.581 7   7950080.328 9
  20391804.928    -2602412.578 7  -1977032.603 9
  20044509.467   -12783266.015 7  -9876955.204 9
 94  3  8 21 27 59.9980000  0  6  2 16 31 18 19 27
  21441287.646   -14013299.643 7 -10795034.573 9
  23404089.326    -2684232.520 5  -1997417.704 9
  21988195.061    -4487224.971 7  -3415105.551 9
  22017644.896    10280330.193 7   8026536.324 9
  20396047.498    -2580119.112 7  -1959661.073 9
  20039518.998   -12809490.657 7  -9897389.980 9
 94  3  8 21 28 29.9980000  0  6  2 16 31 18 19 27
  21431501.842   -14064723.780 7 -10835105.275 9
  23407044.357    -2668705.483 5  -1985318.715 9
  21998140.748    -4434962.359 7  -3374381.477 9
  22036381.998    10378792.400 6   8103260.053 9
  20400351.811    -2557500.731 7  -1942036.362 9
  20034591.045   -12835387.463 7  -9917569.293 9
 94  3  8 21 28 59.9980000  0  6  2 16 31 18 19 27
  21421777.271   -14115826.462 7 -10874925.481 9
  23410098.592    -2652654.682 5  -1972811.623 9
  22008194.232    -4382130.456 7  -3333213.789 9
  22055174.272    10477546.072 6   8180210.891 9
  20404709.600    -2534600.444 7  -1924191.985 9
  20029716.928   -12861000.850 7  -9937527.766 9
 94  3  8 21 29 29.9980000  0  6  2 16 31 18 19 27
  21412116.662   -14166592.795 7 -10914483.618 9
  23413257.764    -2636056.133 5  -1959877.719 9
  22018355.709    -4328729.710 7  -3291602.853 9
  22074027.756    10576622.878 6   8257413.521 9
  20409126.061    -2511392.435 7  -1906107.823 9
  20024903.967   -12886292.752 7  -9957235.723 9
 94  3  8 21 29 59.9980000  0  6  2 16 31 18 19 27
  21402518.607   -14217031.648 7 -10953786.571 9
  23416511.264    -2618957.298 5  -1946553.974 9
  22028617.482    -4274805.294 7  -3249583.861 9
  22092936.053    10675985.995 6   8334839.241 9
  20413594.662    -2487909.699 7  -1887809.591 9
  20020148.006   -12911285.798 7  -9976710.811 9
 94  3  8 21 30 29.9980000  0  6  2 16 31 18 19 27
  21392977.529   -14267171.572 7 -10992856.591 9
  23419853.107    -2601394.067 5  -1932868.353 9
  22038973.506    -4220385.269 7  -3207178.668 9
  22111893.076    10775604.578 6   8412464.038 9
  20418109.084    -2464186.839 7  -1869324.252 9
  20015443.826   -12936008.018 7  -9995974.865 9
 94  3  8 21 30 59.9980000  0  6  2 16 31 18 19 27
  21383498.998   -14316980.951 7 -11031669.042 9
  23423295.209    -2583307.139 5  -1918774.658 9
  22049434.811    -4165409.913 7  -3164340.765 9
  22130908.100    10875529.721 6   8490327.705 9
  20422677.951    -2440176.991 7  -1850615.283 9
  20010795.943   -12960430.613 7 -10015005.440 9
 94  3  8 21 31 29.9980000  0  6  2 16 31 18 19 27
  21374084.701   -14366452.150 7 -11070217.983 9
  23426841.123    -2564677.527 5  -1904258.113 9
  22060005.592    -4109859.596 7  -3121054.843 9
  22149980.029    10975752.606 6   8568423.371 9
  20427301.686    -2415878.552 7  -1831681.437 9
  20006206.068   -12984550.131 7 -10033799.853 9
 94  3  8 21 31 59.9980000  0  6  2 16 31 18 19 27
  21364728.178   -14415620.939 7 -11108531.277 9
  23430480.975    -2545541.951 5  -1889347.286 9
  22070681.623    -4053756.061 7  -3077337.826 9
  22169098.217    11076219.794 6   8646709.407 9
  20431974.561    -2391321.374 7  -1812545.976 9
  20001667.982   -13008397.896 7 -10052382.513 9
 94  3  8 21 32 29.9980000  0  6  2 16 31 18 19 27
  21355426.373   -14464503.718 7 -11146621.707 9
  23434222.232    -2525881.907 5  -1874027.787 9
  22081468.264    -3997073.484 7  -3033169.616 9
  22188266.006    11176945.145 6   8725196.610 9
  20436700.561    -2366486.234 7  -1793193.922 9
  19997186.615   -13031948.444 7 -10070733.574 9
 94  3  8 21 32 59.9980000  0  6  2 16 31 18 19 27
  21346178.178   -14513100.218 7 -11184489.057 9
  23438062.936    -2505703.397 5  -1858304.305 9
  22092362.186    -3939823.840 6  -2988559.534 9
  22207482.639    11277931.208 6   8803886.966 9
  20441481.014    -2341364.863 7  -1773618.832 9
  19992762.896   -13055194.223 7 -10088847.157 9
 94  3  8 21 33 29.9980000  0  6  2 16 31 18 19 27
  21336987.967   -14561394.618 7 -11222121.002 9
  23441997.467    -2485027.992 5  -1842193.620 9
  22103361.412    -3882023.072 6  -2943520.007 9
  22226749.818    11379181.056 6   8882782.862 9
  20446316.318    -2315954.907 7  -1753818.870 9
  19988400.076   -13078121.658 7 -10106712.680 9
 94  3  8 21 33 59.9980000  0  6  2 16 31 18 19 27
  21327849.084   -14609421.082 7 -11259544.173 9
  23446020.209    -2463886.951 5  -1825720.089 9
  22114458.811    -3823706.953 6  -2898078.903 9
  22246065.389    11480682.266 6   8961874.624 9
  20451202.365    -2290278.979 7  -1733811.651 9
  19984092.443   -13100760.091 7 -10124353.005 9
 94  3  8 21 34 29.9980000  0  7  2 16 31 18 19  7 27
  21318765.787   -14657153.903 7 -11296738.531 9
  23450133.982    -2442267.359 5  -1808873.694 9
  22125653.232    -3764878.310 6  -2852238.432 9
  22265433.334    11582461.783 6   9041183.246 9
  20456143.201    -2264316.215 7  -1713580.930 9
  23810379.100      -17826.99714
  19979839.240   -13123108.519 7 -10141767.353 9
 94  3  8 21 34 59.9980000  0  7  2 16 31 18 19  7 27
  21309742.162   -14704572.816 7 -11333688.282 9
  23454338.873    -2420172.444 5  -1791656.931 9
  22136942.318    -3705554.284 6  -2806011.945 9
  22284853.912    11684515.397 6   9120705.452 9
  20461138.842    -2238065.476 7  -1693125.815 9
  23790027.154     -124776.861 4
  19975640.107   -13145176.029 7 -10158962.808 9
 94  3  8 21 35 29.9980000  0  7  2 16 31 18 19  7 27
  21300780.795   -14751663.404 7 -11370382.199 9
  23458638.225    -2397579.139 5  -1774051.784 9
  22148329.857    -3645711.064 6  -2759380.880 9
  22304328.568    11786858.908 6   9200453.564 9
  20466193.014    -2211504.308 7  -1672428.810 9
  23769687.998     -231660.893 4    -52743.68018
  19971497.811   -13166945.175 7 -10175925.769 9
 94  3  8 21 35 59.9980000  0  7  2 16 31 18 19  7 27
  21291879.639   -14798442.849 7 -11406833.669 9
  23463036.600    -2374465.686 5  -1756041.337 9
  22159818.998    -3585339.589 6  -2712338.215 9
  22323860.451    11889495.258 6   9280429.844 9
  20471308.748    -2184621.034 7  -1651480.805 9
  23749360.428     -338477.429 4   -135976.819 8
  19967412.943   -13188411.548 7 -10192652.805 9
 94  3  8 21 36 29.9980000  0  7  2 16 31 18 19  7 27
  21283032.076   -14844936.255 7 -11443062.245 9
  23467527.412    -2350865.029 5  -1737651.262 9
  22171402.904    -3524463.276 6  -2664902.148 9
  22343439.271    11992382.744 6   9360601.822 9
  20476479.600    -2157449.076 7  -1630307.853 9
  23729041.271     -445257.822 5   -219181.784 9
  19963381.943   -13209593.083 7 -10209157.885 9
 94  3  8 21 36 59.9980000  0  7  2 16 31 18 19  7 27
  21274235.381   -14891162.005 7 -11479082.264 9
  23472107.873    -2326796.079 5  -1718896.268 9
  22183083.561    -3463080.663 6  -2617071.573 9
  22363063.467    12095508.654 6   9440959.576 9
  20481700.443    -2130013.046 8  -1608929.137 9
  23708729.232     -551992.955 5   -302351.488 9
  19959405.451   -13230489.167 7 -10225440.533 9
 94  3  8 21 37 29.9980000  0  7  2 16 31 18 19  7 27
  21265490.982   -14937114.647 7 -11514889.471 9
  23476781.443    -2302239.116 5  -1699761.022 9
  22194865.342    -3401167.487 6  -2568827.563 9
  22382736.482    12198889.168 6   9521515.721 9
  20486973.678    -2102301.439 7  -1587335.682 9
  23688431.271     -658656.575 5   -385465.473 9
  19955485.443   -13251090.157 7 -10241493.246 9
 94  3  8 21 37 59.9980000  0  7  2 16 31 18 19  7 27
  21256794.904   -14982813.307 7 -11550498.769 9
  23481542.865    -2277215.495 5  -1680262.160 9
  22206743.131    -3338749.047 6  -2520189.846 9
  22402451.451    12302493.140 6   9602245.995 9
  20492294.998    -2074337.130 8  -1565545.317 9
  23668145.834     -765257.740 5   -468530.798 9
  19951615.865   -13271425.299 7 -10257338.799 9
 94  3  8 21 38 29.9980000  0  7  2 16 31 18 19  7 27
  21248151.936   -15028232.329 7 -11585890.173 9
  23486392.428    -2251731.761 5  -1660404.729 9
  22218718.295    -3275819.225 6  -2471153.644 9
  22422209.256    12406319.955 6   9683149.897 9
  20497665.584    -2046114.670 8  -1543553.798 9
  23647874.412     -871784.180 5   -551537.915 9
  19947798.217   -13291485.997 7 -10272970.504 9
 94  3  8 21 38 59.9980000  0  7  2 16 31 18 19  7 27
  21239565.662   -15073354.336 7 -11621050.139 9
  23491335.686    -2225758.435 5  -1640165.829 9
  22230793.959    -3212361.636 6  -2421706.213 9
  22442013.396    12510392.629 6   9764245.382 9
  20503091.373    -2017602.823 8  -1521336.777 9
  23627621.256     -978213.359 5   -634469.252 9
  19944035.162   -13311262.170 7 -10288380.505 9
 94  3  8 21 39 29.9980000  0  7  2 16 31 18 19  7 27
  21231032.404   -15118197.095 7 -11655992.514 9
  23496368.600    -2199303.441 5  -1619551.597 9
  22242965.061    -3148400.770 6  -2371866.619 9
  22461860.850    12614689.939 6   9845515.914 9
  20508571.834    -1988802.856 8  -1498895.252 9
  23607382.193    -1084564.561 5   -717339.842 9
  19940324.639   -13330761.240 7 -10303574.577 9
 94  3  8 21 39 59.9980000  0  7  2 16 31 18 19  7 27
  21222553.295   -15162753.799 7 -11690711.985 9
  23501494.772    -2172372.230 5  -1598566.270 9
  22255232.725    -3083934.183 6  -2321632.939 9
  22481748.889    12719201.173 6   9926953.137 9
  20514108.115    -1959710.457 8  -1476225.860 9
  23587160.201    -1190830.196 5   -800143.827 8
  19936671.857   -13349956.292 7 -10318531.754 9
 94  3  8 21 40 29.9980000  0  7  2 16 31 18 19  7 27
  21214134.271   -15206995.659 7 -11725186.133 9
  23506713.803    -2144951.891 5  -1577199.831 9
  22267600.975    -3018939.795 6  -2270987.992 9
  22501682.811    12823955.618 6  10008579.872 9
  20519700.834    -1930319.602 8  -1453323.905 9
  23566958.943    -1296986.238 5   -882862.397 9
  19933082.904   -13368817.829 8 -10333229.050 9
 94  3  8 21 40 59.9980000  0  7  2 16 31 18 19  7 27
  21205772.264   -15250938.359 7 -11759427.167 9
  23512021.545    -2117048.840 5  -1555457.236 9
  22280067.123    -2953428.015 6  -2219939.894 9
  22521661.162    12928943.963 6  10090388.859 9
  20525345.053    -1900658.425 8  -1430211.303 9
  23546776.771    -1403045.196 5   -965505.332 9
  19929554.787   -13387357.692 8 -10347675.691 9
 94  3  8 21 41 29.9980000  0  7  2 16 31 18 19  7 27
  21197468.756   -15294574.736 7 -11793429.503 9
  23517421.201    -2088679.708 5  -1533351.462 9
  22292633.256    -2887397.044 6  -2168487.224 9
  22541683.647    13034161.523 6  10172376.456 9
  20531039.787    -1870734.341 8  -1406893.843 9
  23526613.959    -1509000.415 5  -1048067.439 9
  19926091.897   -13405555.311 7 -10361855.648 9
 94  3  8 21 41 59.9980000  0  7  2 16 31 18 19  7 27
  21189224.092   -15337897.802 7 -11827187.709 9
  23522905.092    -2059858.450 5  -1510893.396 9
  22305296.990    -2820849.115 6  -2116631.747 9
  22561748.295    13139601.772 6  10254537.572 9
  20536781.998    -1840558.585 8  -1383380.282 9
  23506470.568    -1614855.729 5  -1130551.751 9
  19922690.771   -13423427.322 7 -10375781.883 9
 94  3  8 21 42 29.9980000  0  7  2 16 31 18 19  7 27
  21181042.725   -15380890.673 7 -11860688.619 9
  23528477.467    -2030578.370 5  -1488077.804 9
  22318057.264    -2753788.920 6  -2064377.082 9
  22581860.428    13245289.833 6  10336891.787 9
  20542573.701    -1810122.228 8  -1359663.644 9
  23486345.201    -1720613.858 5  -1212960.310 9
  19919350.975   -13440977.466 7 -10389457.318 9
 94  3  8 21 42 59.9980000  0  7  2 16 31 18 19  7 27
  21172925.498   -15423548.969 7 -11893928.821 9
  23534140.920    -2000809.421 5  -1464881.290 9
  22330917.990    -2686208.106 6  -2011716.741 9
  22602020.701    13351231.599 6  10419443.682 9
  20548422.654    -1779386.317 8  -1335713.599 9
  23466241.576    -1826259.588 5  -1295281.336 9
  19916077.709   -13458180.059 7 -10402861.928 9
 94  3  8 21 43 29.9980000  0  7  2 16 31 18 19  7 27
  21164869.256   -15465884.853 7 -11926917.796 9
  23539898.225    -1970559.052 5  -1441309.634 9
  22343873.928    -2618123.073 6  -1958663.500 9
  22622226.490    13457415.174 6  10502184.010 9
  20554329.998    -1748343.426 8  -1311524.346 9
  23446157.334    -1931801.194 5  -1377521.241 9
  19912868.334   -13475043.642 7 -10416002.376 9
 94  3  8 21 43 59.9980000  0  7  2 16 31 18 19  7 27
  21156866.639   -15507938.674 7 -11959686.975 9
  23545741.271    -1939849.732 5  -1417380.354 9
  22356918.107    -2549575.685 6  -1905250.000 9
  22642471.420    13563802.839 6  10585083.367 9
  20560289.350    -1717025.259 8  -1287120.587 9
  23426084.701    -2037281.425 5  -1459713.323 9
  19909714.631   -13491617.631 7 -10428917.175 9
 94  3  8 21 44 29.9980000  0  7  2 16 31 18 19  7 27
  21148928.467   -15549652.359 7 -11992191.117 9
  23551688.326    -1908603.485 5  -1393032.677 9
  22370064.881    -2480489.108 6  -1851416.335 9
  22662768.521    13670460.845 6  10668193.371 9
  20566315.857    -1685357.241 8  -1262444.215 9
  23406037.006    -2142628.054 5  -1541801.331 9
  19906630.670   -13507824.553 7 -10441545.945 9
 94  3  8 21 44 59.9980000  0  7  2 16 31 18 19  7 27
  21141056.357   -15591022.342 7 -12024427.433 9
  23557737.271    -1876812.502 5  -1368260.539 8
  22383320.365    -2410836.924 6  -1797141.932 9
  22683115.232    13777383.902 6  10751509.910 9
  20572411.506    -1653324.915 8  -1237483.967 9
  23386020.639    -2247814.929 5  -1623764.832 9
  19903619.475   -13523648.843 7 -10453876.562 9
 94  3  8 21 45 29.9980000  0  7  2 16 31 18 19  7 27
  21133247.803   -15632057.166 7 -12056402.592 9
  23563885.553    -1844506.044 5  -1343086.599 9
  22396679.412    -2340629.665 6  -1742435.013 9
  22703510.076    13884558.054 6  10835022.103 9
  20578571.826    -1620951.213 8  -1212257.715 9
  23366034.389    -2352841.072 5  -1705603.157 9
  19900677.709   -13539107.186 7 -10465922.028 9
 94  3  8 21 45 59.9980000  0  7  2 16 31 18 19  7 27
  21125502.146   -15672759.683 7 -12088118.806 9
  23570129.271    -1811699.021 5  -1317522.888 7
  22410144.021    -2269875.581 6  -1687302.007 9
  22723951.482    13991977.619 6  10918725.537 9
  20584796.834    -1588237.866 8  -1186766.796 9
  23346081.279    -2457696.945 5  -1787308.762 9
  19897806.076   -13554197.338 7 -10477680.589 9
 94  3  8 21 46 29.9980000  0  7  2 16 31 18 19  7 27
  21117811.006   -15713176.468 7 -12119612.371 9
  23576456.521    -1778449.268 5  -1291614.021 7
  22423699.240    -2198639.973 6  -1631793.780 9
  22744428.998    14099588.451 6  11002577.983 9
  20591077.748    -1555233.698 8  -1161049.270 9
  23326151.623    -2562425.304 5  -1868915.070 9
  19894997.373   -13568955.910 7 -10489180.773 9
 94  3  8 21 46 59.9980000  0  7  2 16 31 18 19  7 27
  21110176.311   -15753296.379 7 -12150874.606 9
  23582868.896    -1744753.130 5  -1265357.362 8
  22437343.459    -2126940.439 6  -1575924.047 9
  22764944.607    14207399.185 6  11086586.212 9
  20597415.568    -1521926.546 8  -1135095.650 9
  23306247.998    -2667018.173 5  -1950415.761 9
  19892255.225   -13583367.948 7 -10500410.934 9
 94  3  8 21 47 29.9980000  0  7  2 16 31 18 19  7 27
  21102601.670   -15793101.372 7 -12181891.455 9
  23589366.029    -1710603.193 5  -1238747.061 9
  22451073.896    -2054786.391 6  -1519700.141 9
  22785504.373    14315439.276 6  11170773.163 9
  20603815.412    -1488296.711 8  -1108890.591 9
  23286372.443    -2771467.063 5  -2031804.318 9
  19889580.795   -13597423.474 7 -10511363.288 9
 94  3  8 21 47 59.9980000  0  7  2 16 31 18 19  7 27
  21095088.115   -15832584.733 7 -12212657.678 9
  23595953.498    -1675991.015 5  -1211776.597 9
  22464891.607    -1982174.816 6  -1463119.721 9
  22806107.975    14423712.124 6  11255141.473 9
  20610277.553    -1454337.461 8  -1082428.847 9
  23266521.779    -2875780.004 5  -2113086.925 9
  19886972.084   -13611131.072 7 -10522044.529 9
 94  3  8 21 48 29.9980000  0  7  2 16 31 18 19  7 27
  21087634.592   -15871753.885 7 -12243179.062 9
  23602628.209    -1640915.244 5  -1184444.897 9
  22478797.350    -1909098.654 6  -1406177.298 9
  22826754.779    14532211.489 6  11339686.290 9
  20616801.975    -1420051.694 8  -1055712.672 9
  23246694.834    -2979969.112 5  -2194273.060 9
  19884427.990   -13624502.010 8 -10532463.435 9
 94  3  8 21 48 59.9980000  0  7  2 16 31 18 19  7 27
  21080239.896   -15910612.907 7 -12273458.787 9
  23609389.795    -1605381.881 5  -1156756.641 9
  22492796.303    -1835536.533 6  -1348856.205 9
  22847445.896    14640944.209 6  11424412.941 9
  20623388.209    -1385439.796 8  -1028742.365 9
  23226894.053    -3084022.767 5  -2275353.655 9
  19881944.904   -13637549.882 8 -10542630.602 9
 94  3  8 21 49 29.9980000  0  7  2 16 31 18 19  7 27
  21072900.771   -15949180.702 7 -12303511.582 9
  23616235.397    -1569409.318 5  -1128726.113 9
  22506888.076    -1761484.118 6  -1291153.052 9
  22868175.803    14749879.557 6  11509297.480 9
  20630031.818    -1350526.949 8  -1001537.559 9
  23207119.873    -3187937.703 5  -2356326.164 9
  19879519.092   -13650297.595 8 -10552563.880 9
 94  3  8 21 49 59.9980000  0  7  2 16 31 18 19  7 27
  21065616.990   -15987458.579 7 -12333338.465 9
  23623167.412    -1532982.957 5  -1100341.983 9
  22521075.818    -1686924.673 6  -1233054.809 9
  22888940.248    14858997.240 6  11594324.100 9
  20636731.873    -1315319.325 8   -974103.053 9
  23187372.256    -3291708.255 5  -2437186.178 9
  19877153.193   -13662729.472 8 -10562251.049 9
 94  3  8 21 50 29.9980000  0  7  2 16 31 18 19  7 27
  21058392.764   -16025420.919 7 -12362919.477 9
  23630187.850    -1496085.523 5  -1071590.813 9
  22535365.357    -1611833.321 6  -1174542.098 9
  22909745.740    14968328.314 6  11679516.990 9
  20643491.186    -1279798.716 8   -946424.665 9
  23167661.021    -3395290.346 5  -2517899.328 9
  19874856.068   -13674801.767 8 -10571658.030 9
 94  3  8 21 50 59.9980000  0  7  2 16 31 18 19  7 27
  21051230.654   -16063057.061 7 -12392246.309 9
  23637298.896    -1458714.481 5  -1042470.565 9
  22549752.779    -1536227.894 6  -1115628.806 9
  22930593.334    15077881.467 6  11764882.951 9
  20650308.943    -1243971.333 8   -918507.231 9
  23147989.592    -3498666.771 5  -2598452.241 9
  19872629.857   -13686500.020 8 -10580773.546 9
 94  3  8 21 51 29.9980000  0  7  2 16 31 18 19  7 27
  21044129.943   -16100371.575 7 -12421322.522 9
  23644500.279    -1420872.595 5  -1012983.467 9
  22564233.967    -1460126.793 6  -1056329.288 9
  22951480.334    15187643.395 6  11850411.572 9
  20657183.381    -1207846.780 8   -890358.234 9
  23128354.459    -3601847.613 5  -2678852.740 9
  19870476.318   -13697817.256 8 -10589592.164 9
 94  3  8 21 51 59.9980000  0  7  2 16 31 18 19  7 27
  21037091.006   -16137361.643 7 -12450145.920 9
  23651790.803    -1382568.021 5   -983135.812 9
  22578806.459    -1383547.870 6   -996657.449 9
  22972412.045    15297638.955 6  11936122.261 9
  20664114.068    -1171423.006 8   -861976.081 9
  23108754.709    -3704845.870 5  -2759110.958 9
  19868395.178   -13708754.541 8 -10598114.719 9
 94  3  8 21 52 29.9980000  0  7  2 16 31 18 19  7 27
  21030113.920   -16174026.197 7 -12478715.676 9
  23659165.279    -1343810.835 5   -952935.471 9
  22593467.928    -1306502.043 6   -936621.777 9
  22993390.928    15407883.367 6  12022026.842 9
  20671103.350    -1134694.474 7   -833356.457 9
  23089190.178    -3807657.024 5  -2839223.406 9
  19866384.311   -13719321.345 8 -10606348.591 9
 94  3  8 21 52 59.9980000  0  7  2 16 31 18 19  7 27
  21023198.092   -16210369.651 7 -12507035.216 9
  23666627.654    -1304596.389 5   -922378.837 9
  22608216.326    -1228998.669 6   -876229.578 9
  23014411.959    15518351.625 6  12108105.853 9
  20678152.240    -1097651.974 7   -804492.186 9
  23069658.061    -3910299.374 5  -2919204.270 9
  19864441.732   -13729528.556 8 -10614302.257 9
 94  3  8 21 53 29.9980000  0  7  2 16 31 18 19  7 27
  21016348.646   -16246363.563 7 -12535082.388 9
  23674182.428    -1264894.219 5   -891442.150 9
  22623060.381    -1150993.518 6   -815446.388 9
  23035477.131    15629049.986 6  12194364.155 9
  20685268.186    -1060257.043 7   -775353.283 9
  23050161.232    -4012755.415 5  -2999039.982 9
  19862571.615   -13739356.677 8 -10621960.531 9
 94  3  8 21 53 59.9980000  0  7  2 16 31 18 19  7 27
  21009562.771   -16282022.878 7 -12562868.835 9
  23681828.217    -1224720.462 5   -860137.964 9
  22637996.053    -1072502.874 6   -754284.889 9
  23056582.084    15739959.378 6  12280786.915 9
  20692451.217    -1022509.311 7   -745939.484 9
  23030697.514    -4115037.852 5  -3078740.416 9
  19860770.232   -13748822.673 8 -10629336.628 9
 94  3  8 21 54 29.9980000  0  7  2 16 31 18 19  7 27
  21002842.889   -16317335.970 7 -12590385.497 9
  23689564.568    -1184064.345 5   -828457.927 9
  22653029.045     -993509.565 6   -692731.691 9
  23077724.271    15851056.888 6  12367356.246 9
  20699704.982     -984390.959 7   -716236.890 9
  23011268.842    -4217137.523 6  -3158298.408 9
  19859041.146   -13757909.247 8 -10636417.075 9
 94  3  8 21 54 59.9980000  0  7  2 16 31 18 19  7 27
  20996184.295   -16352327.420 7 -12617651.529 9
  23697390.146    -1142941.600 5   -796414.295 8
  22668153.826     -914026.314 6   -630796.739 9
  23098894.123    15962305.012 6  12454042.957 9
  20707025.092     -945924.781 7   -686263.262 9
  22991871.975    -4319066.358 6  -3237723.301 9
  19857382.225   -13766626.363 7 -10643209.634 9
 94  3  8 21 55 29.9980000  0  7  2 16 31 18 19  7 27
  20989585.006   -16387005.945 7 -12644673.722 9
  23705299.271    -1101377.353 5   -764026.635 9
  22683370.217     -834067.742 6   -568491.403 9
  23120094.162    16073709.967 6  12540851.852 9
  20714408.803     -907123.552 7   -656028.560 9
  22972509.990    -4420813.739 6  -3317006.786 9
  19855794.092   -13774972.030 7 -10649712.745 9
 94  3  8 21 55 59.9980000  0  7  2 16 31 18 19  7 27
  20983047.701   -16421358.916 7 -12671442.239 9
  23713291.740    -1059375.365 5   -731297.880 9
  22698674.967     -753633.982 6   -505815.782 9
  23141329.764    16185307.632 5  12627810.934 9
  20721857.834     -867976.356 7   -625524.273 9
  22953188.006    -4522349.536 6  -3396125.416 9
  19854283.014   -13782913.433 8 -10655900.852 9
 94  3  8 21 56 29.9980000  0  7  2 16 31 18 19  7 27
  20976573.756   -16455381.286 7 -12697953.149 9
  23721366.928    -1016939.177 5   -698230.799 9
  22714070.873     -672732.366 6   -442775.597 9
  23162601.943    16297091.025 5  12714914.695 9
  20729370.897     -828495.225 7   -594759.783 9
  22933908.287    -4623665.095 6  -3475072.404 9
  19852849.529   -13790447.159 8 -10661771.286 9
 94  3  8 21 56 59.9980000  0  7  2 16 31 18 19  7 27
  20970159.982   -16489083.605 7 -12724214.654 9
  23729523.146     -974079.545 5   -664833.760 9
  22729550.193     -591388.436 6   -379390.749 9
  23183910.568    16409066.931 6  12802168.493 9
  20736945.264     -788692.787 7   -563744.919 9
  22914672.631    -4724750.995 6  -3553840.448 9
  19851490.053   -13797591.483 8 -10667338.294 9
 94  3  8 21 57 29.9980000  0  7  2 16 31 18 19  7 27
  20963808.420   -16522462.591 7 -12750224.218 9
  23737756.740     -930810.481 5   -631117.680 8
  22745108.037     -509625.727 6   -315679.583 9
  23205256.717    16521243.395 5  12889578.566 9
  20744580.748     -748569.116 7   -532479.753 9
  22895479.061    -4825612.670 6  -3632433.763 9
  19850202.014   -13804358.204 8 -10672611.053 9
 94  3  8 21 57 59.9980000  0  7  2 16 31 18 19  7 27
  20957519.107   -16555511.462 7 -12775976.557 9
  23746071.373     -887113.813 5   -597068.397 8
  22760749.803     -427432.834 6   -251633.194 9
  23226643.279    16633625.638 5  12977148.980 9
  20752278.396     -708116.222 7   -500958.049 9
  22876328.842    -4926244.274 6  -3710847.822 9
  19848985.561   -13810750.347 7 -10677591.935 9
 94  3  8 21 58 29.9980000  0  7  2 16 31 18 19  7 27
  20951293.717   -16588228.697 7 -12801470.466 9
  23754471.186     -842982.329 5   -562680.310 9
  22776473.670     -344803.258 6   -187246.529 9
  23248067.404    16746209.506 5  13064876.499 9
  20760039.334     -667334.185 7   -469179.868 9
  22857222.881    -5026645.839 6  -3789082.605 9
  19847838.436   -13816779.660 7 -10682290.093 9
 94  3  8 21 58 59.9980000  0  7  2 16 31 18 19  7 27
  20945131.373   -16620610.246 7 -12826702.804 9
  23762951.264     -798415.496 5   -527952.980 9
  22792282.779     -261721.116 6   -122507.209 9
  23269532.615    16859010.648 6  13152773.332 9
  20767864.256     -626213.876 7   -437138.097 9
  22838161.146    -5126813.235 6  -3867134.940 9
  19846764.248   -13822423.327 7 -10686687.747 9
 94  3  8 21 59 29.9980000  0  7  2 16 31 18 19  7 27
  20939030.162   -16652671.955 7 -12851685.926 9
  23771509.521     -753439.888 5   -492907.128 9
  22808179.451     -178187.010 6    -57415.721 9
  23291034.787    16972005.736 6  13240821.294 9
  20775749.115     -584776.411 7   -404849.193 9
  22819140.607    -5226768.787 6  -3945022.196 9
  19845762.553   -13827687.706 7 -10690789.849 9
 94  3  8 21 59 59.9980000  0  7  2 16 31 18 19  7 27
  20932989.436   -16684416.213 7 -12876421.683 9
  23780150.342     -708037.455 5   -457528.682 9
  22824166.615      -94176.173 6      8047.248 9
  23312573.709    17085193.133 6  13329019.084 9
  20783696.990     -543010.599 7   -372304.430 9
  22800159.951    -5326510.431 6  -4022742.782 9
  19844835.920   -13832557.281 7 -10694584.316 9
 94  3  8 22  0 29.9980000  0  7  2 16 31 18 19  7 27
  20927011.990   -16715826.493 7 -12900897.194 9
  23788874.990     -662190.055 5   -421803.524 9
  22840248.873       -9660.347 6     73903.706 9
  23334150.826    17198581.068 5  13417373.138 9
  20791712.279     -500892.197 7   -339484.921 9
  22781222.568    -5426023.632 6  -4100285.374 9
  19843991.287   -13836995.830 7 -10698042.913 9
 94  3  8 22  0 59.9980000  0  7  2 16 31 18 19  7 27
  20921093.100   -16746930.712 7 -12925134.223 9
  23797682.646     -615902.808 5   -385735.606 9
  22856423.639       75338.963 6    140136.919 9
  23355761.592    17312143.389 5  13505863.094 9
  20799791.537     -458434.825 7   -306401.273 9
  22762326.607    -5525323.434 6  -4177661.668 9
  19843224.076   -13841025.786 7 -10701183.130 9
 94  3  8 22  1 29.9980000  0  7  2 16 31 18 19  7 27
  20915231.061   -16777735.914 7 -12949138.246 9
  23806576.732     -569164.551 5   -349316.280 9
  22872688.850      160811.536 6    206738.908 9
  23377403.014    17425868.978 5  13594480.244 9
  20807935.561     -415636.836 7   -273052.210 9
  22743470.998    -5624412.405 6  -4254873.677 9
  19842529.725   -13844676.322 7 -10704027.697 9
 94  3  8 22  1 59.9980000  0  7  2 16 31 18 19  7 27
  20909425.295   -16808244.237 7 -12972910.939 9
  23815556.771     -521973.401 5   -312544.022 9
  22889041.959      246750.970 6    273704.668 9
  23399072.654    17539743.006 5  13683213.076 9
  20816147.209     -372482.816 7   -239425.711 9
  22724655.217    -5723288.711 6  -4331919.984 9
  19841909.584   -13847934.424 7 -10706566.473 9
 94  3  8 22  2 29.9980000  0  7  2 16 31 18 19  7 27
  20903676.537   -16838456.011 7 -12996452.554 9
  23824617.631     -474359.898 5   -275442.661 9
  22905479.482      333127.686 6    341011.168 9
  23420767.818    17653750.481 5  13772049.899 9
  20824424.209     -328989.379 7   -205534.733 9
  22705881.193    -5821944.610 6  -4408794.534 9
  19841361.756   -13850813.498 7 -10708809.891 9
 94  3  8 22  2 59.9980000  0  7  2 16 31 18 19  7 27
  20897987.131   -16868353.713 7 -13019749.435 9
  23833758.428     -426328.170 5   -238015.428 9
  22921998.678      419935.766 6    408653.817 9
  23442489.092    17767899.964 5  13860997.372 9
  20832767.271     -285147.870 7   -171372.529 9
  22687153.561    -5920359.675 6  -4485481.433 9
  19840886.170   -13853313.066 7 -10710757.600 9
 94  3  8 22  3 29.9980000  0  7  2 16 31 18 19  7 27
  20892362.521   -16897910.189 7 -13042780.433 9
  23842975.287     -377889.226 5   -200270.893 9
  22938600.201      507176.394 6    476633.504 9
  23464241.381    17882205.099 5  13950066.136 9
  20841179.146     -240941.788 7   -136926.243 9
  22668475.037    -6018516.820 6  -4561967.374 9
  19840488.396   -13855403.106 7 -10712386.196 9
 94  3  8 22  3 59.9980000  0  7  2 16 31 18 19  7 27
  20886806.326   -16927108.752 7 -13065532.535 9
  23852268.545     -329050.704 5   -162214.986 9
  22955284.615      594854.870 6    544954.373 9
  23486027.225    17996689.456 5  14039274.530 9
  20849661.990     -196364.513 7   -102190.716 9
  22649849.592    -6116390.836 6  -4638232.678 9
  19840174.615   -13857052.702 7 -10713671.589 9
 94  3  8 22  4 29.9980000  0  7  2 16 31 18 19  7 27
  20881318.795   -16955942.671 7 -13088000.499 9
  23861638.209     -279812.494 5   -123847.627 9
  22972052.787      682964.064 6    613610.855 9
  23507851.100    18111374.895 5  14128639.630 9
  20858213.482     -151425.006 7    -67172.922 9
  22631278.740    -6213981.521 6  -4714277.202 9
  19839940.514   -13858281.867 7 -10714629.370 9
 94  3  8 22  4 59.9980000  0  7  2 16 31 18 19  7 27
  20875895.787   -16984442.264 7 -13110207.941 9
  23871083.592     -230183.013 5    -85175.397 9
  22988895.381      771480.204 6    682584.451 9
  23529709.357    18226240.492 5  14218145.121 9
  20866831.178     -106140.291 7    -31886.136 9
  22612756.170    -6311317.547 6  -4790123.301 9
  19839782.889   -13859111.710 7 -10715275.984 9
 94  3  8 22  5 29.9980000  0  6  2 31 18 19  7 27
  20870532.928   -17012624.908 7 -13132168.420 9
  23005815.725      860396.717 6    751869.998 9
  23551599.740    18341275.358 5  14307782.469 9
  20875512.115      -60523.183 7      3659.661 9
  22594282.295    -6408399.124 6  -4865771.118 9
  19839699.975   -13859546.081 7 -10715614.441 9
 94  3  8 22  5 59.9980000  0  6  2 31 18 19  7 27
  20865227.889   -17040502.132 7 -13153890.909 9
  23022813.615      949720.107 6    821472.610 9
  23573518.256    18456457.819 5  14397534.875 9
  20884254.256      -14580.162 7     39459.419 9
  22575855.686    -6505228.250 6  -4941222.228 9
  19839690.154   -13859598.672 7 -10715655.404 9
 94  3  8 22  6 29.9980000  0  6  2 31 18 19  7 27
  20859979.920   -17068081.744 7 -13175381.492 9
  23039888.170     1039446.803 6    891389.470 9
  23595460.100    18571761.697 5  14487381.853 9
  20893058.982       31687.573 7     75512.197 9
  22557476.811    -6601811.847 6  -5016482.036 9
  19839750.467   -13859278.462 7 -10715405.878 9
 94  3  8 22  6 59.9980000  0  6  2 31 18 19  7 27
  20854785.193   -17095379.548 7 -13196652.482 9
  23057037.467     1129569.656 6    961615.031 9
  23617419.443    18687160.239 5  14577302.621 9
  20901921.654       78260.887 7    111803.087 9
  22539143.357    -6698152.616 6  -5091552.617 9
  19839883.389   -13858581.539 7 -10714862.812 9
 94  3  8 22  7 29.9980000  0  6  2 31 18 19  7 27
  20849647.732   -17122379.727 7 -13217691.557 9
  23074265.045     1220100.977 6   1032158.881 9
  23639399.365    18802664.135 5  14667305.452 9
  20910843.037      125144.606 7    148335.851 9
  22520859.693    -6794235.242 6  -5166422.057 9
  19840089.217   -13857500.244 7 -10714020.241 9
 94  3  8 22  7 59.9980000  0  6  2 31 18 19  7 27
  20844568.678   -17149068.696 7 -13238488.131 9
  23091570.154     1311038.437 6   1103019.192 9
  23661401.803    18918291.123 5  14757404.203 9
  20919826.076      172348.388 7    185118.014 9
  22502623.084    -6890068.896 6  -5241097.500 9
  19840370.568   -13856022.386 7 -10712868.661 9
 94  3  8 22  8 29.9980000  0  7  2 26 31 18 19  7 27
  20839552.936   -17175426.099 7 -13259026.349 9
  23975601.951      -83095.617 5
  23108952.873     1402387.481 6   1174200.210 9
  23683435.615    19034074.748 5  14847625.012 9
  20928870.600      219879.257 7    222155.046 9
  22484436.779    -6985637.376 6  -5315566.304 9
  19840731.842   -13854123.530 7 -10711389.028 9
 94  3  8 22  8 59.9980000  0  7  2 26 31 18 19  7 27
  20834600.936   -17201449.505 7 -13279304.305 9
  23959304.209     -168740.196 5
  23126413.373     1494139.643 6   1245695.369 9
  23705501.232    19150030.196 5  14937979.696 9
  20937978.592      267741.445 7    259450.254 9
  22466301.842    -7080936.088 6  -5389824.923 9
  19841173.295   -13851802.631 7 -10709580.530 9
 94  3  8 22  9 29.9980000  0  7  2 26 31 18 19  7 27
  20829704.811   -17227178.598 7 -13299352.927 9
  23943059.162     -254101.998 4    -59852.89718
  23143942.740     1586259.056 6   1317476.668 9
  23727593.912    19266129.829 5  15028446.742 9
  20947146.717      315919.718 7    296991.753 9
  22448212.303    -7175997.411 6  -5463898.554 9
  19841690.537   -13849085.308 7 -10707463.129 9
 94  3  8 22  9 59.9980000  0  7  2 26 31 18 19  7 27
  20824859.771   -17252639.224 7 -13319192.354 9
  23926864.771     -339207.814 5   -126169.037 8
  23161536.756     1678718.291 6   1389522.775 9
  23749708.834    19382339.073 5  15118999.216 9
  20956372.459      364402.396 7    334770.454 9
  22430162.826    -7270845.246 6  -5537805.847 9
  19842279.006   -13845992.841 7 -10705053.417 9
 94  3  8 22 10 29.9980000  0  7  2 26 31 18 19  7 27
  20820064.279   -17277838.322 7 -13338827.991 9
  23910718.537     -424053.030 5   -192282.114 8
  23179198.920     1771527.597 6   1461841.660 9
  23771841.303    19498646.460 5  15209628.119 9
  20965657.654      413196.842 7    372792.086 9
  22412159.279    -7365456.432 6  -5611528.730 9
  19842937.295   -13842533.073 7 -10702357.491 9
 94  3  8 22 10 59.9980000  0  7  2 26 31 18 19  7 27
  20815320.678   -17302767.437 7 -13358253.255 9
  23894625.146     -508625.622 5   -258182.735 8
  23196928.615     1864701.316 6   1534444.513 9
  23793993.842    19615058.773 5  15300338.789 9
  20975008.264      462335.673 7    411082.072 9
  22394203.600    -7459814.656 6  -5685054.514 9
  19843668.615   -13838691.080 7 -10699363.729 9
 94  3  8 22 11 29.9980000  0  7  2 26 31 18 19  7 27
  20810633.795   -17327396.605 7 -13377444.795 9
  23878587.475     -592907.806 5   -323857.131 9
  23214734.053     1958268.693 6   1607354.111 9
  23816166.967    19731575.394 5  15391130.737 9
  20984429.420      511842.035 7    449658.439 9
  22376299.295    -7553900.993 6  -5758368.438 9
  19844475.686   -13834448.837 7 -10696058.086 9
 94  3  8 22 11 59.9980000  0  7  2 26 31 18 19  7 27
  20806014.904   -17351668.701 7 -13396358.104 9
  23862612.537     -676852.921 5   -389268.831 9
  23232622.428     2052270.104 6   1680601.888 9
  23838365.029    19848225.794 5  15482026.922 8
  20993925.092      561742.709 7    488542.071 9
  22358455.248    -7647670.986 6  -5831435.858 9
  19845364.834   -13829775.882 7 -10692416.824 9
 94  3  8 22 12 29.9980000  0  7  2 26 31 18 19  7 27
  20801458.084   -17375615.402 7 -13415017.859 9
  23846697.115     -760489.643 5   -454440.239 9
  23250587.381     2146674.952 6   1754164.052 9
  23860583.990    19964985.657 5  15573008.412 9
  21003487.053      611990.820 7    527696.420 9
  22340666.123    -7741152.995 6  -5904278.881 9
  19846333.842   -13824684.092 7 -10688449.200 9
 94  3  8 22 12 59.9980000  0  7  2 26 31 18 19  7 27
  20796961.318   -17399245.940 7 -13433431.249 9
  23830835.248     -843842.699 5   -519390.620 8
  23268626.068     2241469.416 6   1828029.820 9
  23882818.545    20081828.722 5  15664054.721 9
  21013109.811      662560.777 7    567101.570 9
  22322926.646    -7834377.265 6  -5976921.078 9
  19847380.936   -13819182.428 7 -10684162.186 9
 94  3  8 22 13 29.9980000  0  7  2 26 31 18 19  7 27
  20792522.756   -17422572.027 7 -13451607.410 9
  23815026.045     -926920.771 5   -584126.714 9
  23286737.170     2336643.428 6   1902191.322 9
  23905067.092    20198743.220 5  15755156.680 9
  21022789.764      713428.700 7    606738.891 9
  22305236.881    -7927337.690 6  -6049357.668 9
  19848503.904   -13813281.310 7 -10679563.912 9
 94  3  8 22 13 59.9980000  0  7  2 26 31 18 19  7 27
  20788136.826   -17445620.173 8 -13469566.992 9
  23799267.123    -1009728.224 5   -648651.953 9
  23304917.068     2432178.581 6   1976634.217 9
  23927329.061    20315734.181 5  15846318.221 9
  21032523.654      764579.156 7    646596.377 9
  22287598.998    -8020025.018 6  -6121581.457 9
  19849704.576   -13806972.781 7 -10674648.176 9
 94  3  8 22 14 29.9980000  0  7  2 26 31 18 19  7 27
  20783797.701   -17468423.418 8 -13487335.741 9
  23783557.256    -1092288.866 5   -712984.894 9
  23323159.186     2528041.688 6   2051332.658 9
  23949604.443    20432786.799 5  15937527.784 9
  21042309.186      816003.187 7    686667.026 9
  22270010.803    -8112450.368 6  -6193601.113 9
  19850978.717   -13800275.148 7 -10669429.245 9
 94  3  8 22 14 59.9980000  0  7  2 26 31 18 19  7 27
  20779513.857   -17490933.157 7 -13504875.783 9
  23767904.732    -1174543.140 5   -777079.107 9
  23341470.998     2624272.515 6   2126317.639 9
  23971900.459    20549951.321 5  16028824.608 9
  21052158.725      867760.871 7    726997.673 9
  22252483.256    -8204556.008 6  -6265371.641 9
  19852333.014   -13793159.772 7 -10663884.795 9
 94  3  8 22 15 29.9980000  0  7  2 26 31 18 19  7 27
  20775284.615   -17513159.523 8 -13522195.018 9
  23752313.209    -1256478.259 5   -840924.608 9
  23359846.014     2720839.005 5   2201564.181 9
  23994216.537    20667225.478 5  16120206.774 9
  21062069.717      919845.365 7    767582.973 9
  22235016.795    -8296343.428 6  -6336894.214 9
  19853765.576   -13785631.543 7 -10658018.644 9
 94  3  8 22 15 59.9980000  0  7  2 26 31 18 19  7 27
  20771104.326   -17535125.578 8 -13539311.412 9
  23736775.459    -1338125.743 5   -904545.998 9
  23378278.631     2817701.073 5   2277041.067 9
  24016547.803    20784569.479 5  16211643.412 8
  21072038.412      972230.490 7    808402.530 9
  22217602.420    -8387856.426 6  -6408202.943 9
  19855273.693   -13777706.673 7 -10651843.417 9
 94  3  8 22 16 29.9980000  0  7  2 26 31 18 19  7 27
  20766984.037   -17556777.295 7 -13556182.862 9
  23721304.412    -1419432.740 5   -967902.040 9
  23396777.982     2914915.974 5   2352792.872 9
  24038896.678    20902018.298 5  16303161.717 8
  21082073.053     1024960.989 7    849491.207 9
  22200245.217    -8479068.387 6  -6479277.101 9
  19856863.904   -13769348.961 7 -10645330.912 9
 94  3  8 22 16 59.9980000  0  6  2 26 31 19  7 27
  20762916.271   -17578153.639 7 -13572839.737 9
  23705890.967    -1500430.704 5  -1031017.294 9
  23415339.568     3012451.524 5   2428794.514 9
  21092162.975     1077987.130 7    890810.253 9
  22182936.537    -8570025.334 6  -6550152.546 9
  19858530.600   -13760590.365 7 -10638506.033 9
 94  3  8 22 17 29.9980000  0  6  2 26 31 19  7 27
  20758906.397   -17599226.499 7 -13589260.133 9
  23690540.982    -1581096.666 5  -1093873.854 9
  23433964.717     3110332.862 5   2505065.605 9
  21102314.990     1131334.836 7    932379.871 9
  22165682.248    -8660696.569 6  -6620805.361 9
  19860279.889   -13751397.527 7 -10631342.780 9
 94  3  8 22 17 59.9980000  0  6  2 26 31 19  7 27
  20754954.912   -17619993.378 8 -13605442.103 9
  23675253.936    -1661429.553 5  -1156470.862 9
  23452660.943     3208578.288 5   2581620.405 9
  21112529.951     1185013.337 7    974207.244 9
  22148483.412    -8751075.522 6  -6691230.418 9
  19862110.139   -13741779.409 7 -10623848.142 9
 94  3  8 22 18 29.9980000  0  6  2 26 31 19  7 27
  20751058.092   -17640469.109 7 -13621397.203 9
  23660029.373    -1741431.862 5  -1218810.270 9
  23471423.701     3307172.984 5   2658447.360 9
  21122806.920     1239020.811 7   1016290.966 9
  22131340.334    -8841162.503 6  -6761427.967 9
  19864015.506   -13731768.464 7 -10616047.408 9
 94  3  8 22 18 59.9980000  0  6  2 26 31 19  7 27
  20747215.795   -17660660.153 7 -13637130.473 9
  23644867.420    -1821109.130 5  -1280896.406 9
  23490246.967     3406090.813 5   2735526.118 9
  21133148.850     1293367.336 7   1058638.880 9
  22114254.592    -8930951.024 6  -6831392.936 9
  19865991.998   -13721381.147 7 -10607953.398 9
 94  3  8 22 19 29.9980000  0  6  2 26 31 19  7 27
  20743426.896   -17680570.950 7 -13652645.366 9
  23629766.264    -1900464.969 5  -1342732.064 9
  23509129.029     3505317.575 5   2812845.584 9
  21143555.014     1348053.089 7   1101251.121 9
  22097224.068    -9020443.853 6  -6901127.504 9
  19868038.381   -13710627.012 7 -10599573.554 9
 94  3  8 22 19 59.9980000  0  6  2 26 31 19  7 27
  20739693.318   -17700191.597 7 -13667934.165 9
  23614731.756    -1979472.415 5  -1404296.277 9
  23528074.779     3604875.863 5   2890423.395 9
  21154029.592     1403097.913 7   1144143.164 9
  22080252.514    -9109630.082 6  -6970623.163 9
  19870160.271   -13699477.262 7 -10590885.443 9
 94  3  8 22 20 29.9980000  0  6  2 26 31 19  7 27
  20736008.053   -17719557.450 7 -13683024.433 9
  23599754.943    -2058174.477 5  -1465622.509 9
  23547073.795     3704721.357 5   2968224.984 9
  21164568.217     1458478.756 7   1187297.038 9
  22063334.271    -9198536.730 6  -7039900.975 9
  19872354.826   -13687944.238 7 -10581898.673 9
 94  3  8 22 20 59.9980000  0  6  2 26 31 19  7 27
  20732377.326   -17738638.000 8 -13697892.383 9
  23584841.975    -2136541.740 5  -1526687.854 9
  23566133.951     3804879.550 5   3046270.250 9
  21175174.092     1514214.638 7   1230727.572 9
  22046473.896    -9287136.496 6  -7108939.643 9
  19874631.225   -13675982.482 7 -10572577.827 9
 94  3  8 22 21 29.9980000  0  6  2 26 31 19  7 27
  20728800.303   -17757433.629 7 -13712538.318 9
  23569992.467    -2214577.486 5  -1587494.870 9
  23585252.803     3905352.453 5   3124560.741 9
  21185845.514     1570290.518 7   1274423.040 9
  22029673.107    -9375425.355 6  -7177736.042 9
  19876992.404   -13663573.625 7 -10562908.591 9
 94  3  8 22 21 59.9980000  0  6  2 26 31 19  7 27
  20725275.779   -17775954.421 7 -13726970.100 9
  23555201.412    -2292302.410 5  -1648059.726 9
  23604429.779     4006131.662 5   3203089.899 9
  21196578.404     1626692.946 7   1318372.957 9
  22012930.350    -9463409.688 6  -7246295.160 9
  19879435.459   -13650734.556 7 -10552904.128 9
 94  3  8 22 22 29.9980000  0  6  2 26 31 19  7 27
  20721806.857   -17794182.702 7 -13741173.951 9
  23540471.545    -2369711.577 5  -1708378.512 9
  23623665.709     4107215.118 5   3281856.155 9
  21207373.732     1683423.053 7   1362578.211 9
  21996250.123    -9551063.701 6  -7314596.883 9
  19881961.162   -13637463.273 7 -10542562.877 9
 94  3  8 22 22 59.9980000  0  6  2 26 31 19  7 27
  20718394.193   -17812118.635 7 -13755149.994 9
  23525805.420    -2446780.532 5  -1768432.203 9
  23642961.256     4208610.349 5   3360865.314 9
  21218226.904     1740454.935 7   1407018.619 9
  21979634.389    -9638378.208 6  -7382634.074 9
  19884566.553   -13623771.535 7 -10531893.999 9
 94  3  8 22 23 29.9980000  0  6  2 26 31 19  7 27
  20715038.998   -17829750.651 7 -13768889.228 9
  23511208.131    -2523490.393 5  -1828206.060 9
  23662318.842     4310339.541 5   3440134.673 9
  21229139.748     1797802.961 7   1451705.371 9
  21963088.600    -9725327.876 6  -7450386.960 9
  19887253.764   -13609650.191 7 -10520890.355 9
 94  3  8 22 23 59.9980000  0  6  2 26 31 19  7 27
  20711734.279   -17847116.987 7 -13782421.435 9
  23496676.021    -2599858.410 5  -1887713.555 9
  23681735.053     4412368.676 5   3519637.836 9
  21240109.506     1855445.507 7   1496621.620 9
  21946607.771    -9811937.272 6  -7517874.707 9
  19890016.873   -13595129.723 7 -10509575.712 9
 94  3  8 22 24 29.9980000  0  6  2 26 31 19  7 27
  20708478.342   -17864225.999 7 -13795753.129 9
  23482212.264    -2675868.120 5  -1946941.865 9
  23701203.701     4514676.687 5   3599358.295 9
  21251133.889     1913379.962 7   1541765.331 9
  21930191.514    -9898203.710 6  -7585095.221 9
  19892855.951   -13580210.135 7 -10497950.075 9
 94  3  8 22 24 59.9980000  0  6  2 26 31 19  7 27
  20705269.428   -17881088.668 7 -13808892.872 9
  23467813.897    -2751523.165 5  -2005893.802 9
  23720724.631     4617258.172 5   3679291.819 9
  21262214.951     1971612.152 7   1587141.036 9
  21913836.076    -9984150.730 6  -7652066.837 9
  19895768.295   -13564905.576 7 -10486024.454 9
 94  3  8 22 25 29.9980000  0  6  2 26 31 19  7 27
  20702109.459   -17897695.087 7 -13821832.927 9
  23453486.154    -2826823.268 5  -2064569.136 9
  23740297.889     4720118.188 5   3759442.376 9
  21273358.420     2030171.549 7   1632771.714 9
  21897541.107   -10069783.107 6  -7718793.287 9
  19898759.014   -13549190.216 7 -10473778.726 9
 94  3  8 22 25 59.9980000  0  6  2 26 31 19  7 27
  20698998.553   -17914044.017 7 -13834572.348 9
  23439223.092    -2901776.003 5  -2122973.824 9
  23759923.982     4823250.303 5   3839804.999 9
  21284564.615     2089059.928 7   1678658.738 9
  21881302.967   -10155115.024 6  -7785285.600 9
  19901827.256   -13533067.389 7 -10461215.491 9
 94  3  8 22 26 29.9980000  0  6  2 26 31 19  7 27
  20695938.748   -17930122.072 7 -13847100.698 9
  23425024.967    -2976386.604 5  -2181111.910 9
  23779602.045     4926658.880 5   3920383.045 9
  21295832.240     2148271.171 7   1724797.346 9
  21865119.771   -10240156.988 6  -7851551.990 9
  19904969.678   -13516550.789 7 -10448345.422 9
 94  3  8 22 26 59.9980000  0  6  2 26 31 19  7 27
  20692935.396   -17945904.661 7 -13859398.811 9
  23410895.404    -3050637.262 5  -2238969.519 9
  23799340.014     5030381.615 5   4001205.887 9
  21307164.154     2207823.735 7   1771201.913 9
  21848995.147   -10324892.052 6  -7917579.229 9
  19908194.842   -13499603.601 7 -10435139.830 9
 94  3  8 22 27 29.9980000  0  6  2 26 31 19  7 27
  20689980.592   -17961432.153 7 -13871498.140 9
  23396827.326    -3124567.112 5  -2296577.151 9
  23819126.256     5134359.983 5   4082227.923 9
  21318550.936     2267662.230 7   1817829.284 9
  21832921.631   -10409356.078 6  -7983395.281 9
  19911495.373   -13482259.727 7 -10421625.136 9
 94  3  8 22 27 59.9980000  0  6  2 26 31 19  7 27
  20687084.334   -17976651.869 7 -13883357.645 9
  23382829.209    -3198123.339 5  -2353893.665 9
  23838965.467     5238618.957 5   4163468.565 9
  21329999.264     2327823.554 7   1864708.204 9
  21816911.045   -10493491.579 6  -8048955.330 9
  19914877.045   -13464489.734 7 -10407778.400 9
 94  3  8 22 28 29.9980000  0  5  2 26 19  7 27
  20684251.318   -17991539.613 7 -13894958.473 9
  23368911.311    -3271266.727 5  -2410888.460 9
  21341514.943     2388336.476 7   1911861.101 9
  21800970.826   -10577257.946 6  -8114227.759 9
  19918348.162   -13446248.088 7 -10393564.139 9
 94  3  8 22 28 59.9990000  0  5  2 26 19  7 27
  20681474.472   -18006133.757 7 -13906330.517 9
  23355065.690    -3344024.078 5  -2467582.471 9
  21353093.972     2449185.619 7   1959275.983 9
  21785098.823   -10660667.452 6  -8179222.105 9
  19921907.690   -13427542.721 7 -10378988.545 9
 94  3  8 22 29 29.9990000  0  5  2 26 19  7 27
  20678754.120   -18020427.190 7 -13917468.253 9
  23341294.159    -3416394.383 5  -2523974.867 9
  21364737.128     2510370.594 7   2006952.551 9
  21769295.870   -10743711.809 6  -8243931.926 9
  19925552.237   -13408391.173 7 -10364065.271 9
 94  3  8 22 29 59.9990000  0  5  2 26 19  7 27
  20676087.269   -18034441.939 7 -13928388.814 9
  23327592.089    -3488395.583 5  -2580079.676 9
  21376445.058     2571893.365 7   2054892.337 9
  21753562.784   -10826389.837 6  -8308356.284 9
  19929279.440   -13388803.249 7 -10348801.969 9
 94  3  8 22 30 29.9990000  0  5  2 26 19  7 27
  20673471.222   -18048189.106 7 -13939100.881 9
  23313959.589    -3560036.743 5  -2635903.924 9
  21388217.901     2633760.794 7   2103100.679 9
  21737899.839   -10908699.560 6  -8372493.663 9
  19933092.815   -13368765.639 7 -10333188.264 9
 94  3  8 22 30 59.9990000  0  5  2 26 19  7 27
  20670907.706   -18061660.082 7 -13949597.735 9
  23300400.003    -3631297.419 5  -2691431.693 9
  21400056.956     2695974.590 7   2151578.934 9
  21722309.487   -10990627.609 6  -8436333.625 9
  19936990.667   -13348281.602 7 -10317226.694 9
 94  3  8 22 31 29.9990000  0  5  2 26 19  7 27
  20668395.925   -18074860.343 7 -13959883.639 9
  23286911.964    -3702173.125 5  -2746659.500 9
  21411959.862     2758526.343 7   2200320.524 9
  21706789.784   -11072181.385 6  -8499881.952 9
  19940972.542   -13327357.613 7 -10300922.301 9
 94  3  8 22 31 59.9990000  0  5  2 26 19  7 27
  20665931.972   -18087807.861 7 -13969972.605 9
  23273498.112    -3772663.835 5  -2801587.288 9
  21423926.214     2821407.756 7   2249318.986 9
  21691341.565   -11153360.995 6  -8563138.730 9
  19945038.128   -13305993.259 7 -10284274.772 9
 94  3  8 22 32 29.9990000  0  5  2 26 19  7 27
  20663520.245   -18100480.293 7 -13979847.216 9
  23260162.050    -3842744.019 5  -2856195.188 9
  21435954.331     2884613.951 7   2298570.527 9
  21675966.729   -11234157.157 7  -8626096.710 9
  19949189.370   -13284177.398 7 -10267275.420 9
 94  3  8 22 32 59.9990000  0  5  2 26 19  7 27
  20661157.839   -18112894.551 7 -13989520.660 9
  23246902.933    -3912423.201 5  -2910490.643 9
  21448039.097     2948122.031 7   2348057.311 9
  21660661.604   -11314587.589 7  -8688769.711 9
  19953421.503   -13261937.493 7 -10249945.642 9
 94  3  8 22 33 29.9990000  0  5  2 26 19  7 27
  20658847.800   -18125033.930 7 -13998979.913 9
  23233718.808    -3981701.850 5  -2964473.984 9
  21460184.901     3011954.433 7   2397796.803 9
  21645427.456   -11394644.037 7  -8751151.297 9
  19957735.253   -13239267.769 7 -10232280.941 9
 94  3  8 22 33 59.9990000  0  5  2 26 19  7 27
  20656595.253   -18136872.355 7 -14008204.656 9
  23220615.855    -4050560.216 5  -3018129.814 9
  21472395.597     3076122.042 7   2447797.495 9
  21630269.081   -11474299.562 7  -8813220.478 9
  19962132.019   -13216163.793 7 -10214277.861 9
 94  3  8 22 34 29.9990000  0  5  2 26 19  7 27
  20654397.698   -18148419.577 7 -14017202.485 9
  23207592.792    -4118998.855 5  -3071458.589 9
  21484669.292     3140618.848 7   2498054.697 9
  21615185.167   -11553565.898 7  -8874986.408 9
  19966610.714   -13192626.988 7 -10195937.508 9
 94  3  8 22 34 59.9990000  0  5  2 26 19  7 27
  20652249.331   -18159710.678 7 -14026000.745 9
  23194644.948    -4187041.549 6  -3124478.838 9
  21497003.722     3205433.264 7   2548559.407 9
  21600168.808   -11632478.544 7  -8936476.730 9
  19971167.690   -13168681.076 7 -10177278.365 9
 94  3  8 22 35 29.9990000  0  5  2 26 19  7 27
  20650152.909   -18170725.987 7 -14034584.104 9
  23181774.300    -4254677.687 6  -3177182.285 9
  21509399.769     3270574.706 7   2599318.924 9
  21585224.026   -11711014.065 7  -8997673.181 9
  19975806.433   -13144302.851 7 -10158282.352 9
 94  3  8 22 35 59.9990000  0  5  2 26 19  7 27
  20648103.269   -18181498.138 7 -14042977.984 9
  23168976.675    -4321928.203 6  -3229585.234 9
  21521851.269     3336008.777 7   2650306.463 9
  21570346.425   -11789195.031 7  -9058593.367 9
  19980525.206   -13119506.775 7 -10138960.737 9
 94  3  8 22 36 29.9990000  0  5  2 26 19  7 27
  20646100.284   -18192023.474 7 -14051179.538 9
  23156255.128    -4388778.760 5  -3281676.546 9
  21534361.815     3401752.625 7   2701535.395 9
  21555538.198   -11867012.908 7  -9119230.621 9
  19985329.854   -13094258.180 7 -10119286.523 9
 94  3  8 22 36 59.9990000  0  5  2 26 19  7 27
  20644144.776   -18202300.109 7 -14059187.298 9
  23143607.753    -4455237.342 5  -3333462.405 9
  21546929.026     3467795.144 7   2752997.052 9
  21540799.339   -11944466.270 7  -9179583.850 9
  19990216.628   -13068576.971 7 -10099275.197 9
 94  3  8 22 37 29.9990000  0  5  2 26 19  7 27
  20642238.964   -18212315.605 7 -14066991.571 9
  23131036.354    -4521301.930 5  -3384941.250 9
  21559556.378     3534146.729 7   2804699.544 9
  21526134.690   -12021529.859 7  -9239633.354 9
  19995186.690   -13042458.623 7 -10078923.243 9
 94  3  8 22 37 59.9990000  0  5  2 26 19  7 27
  20640382.300   -18222071.055 7 -14074593.214 9
  23118542.276    -4586962.398 5  -3436105.205 9
  21572243.456     3600819.454 7   2856652.272 9
  21511542.644   -12098209.714 7  -9299383.846 9
  20000239.604   -13015907.186 7 -10058233.828 9
 94  3  8 22 38 29.9990000  0  5  2 26 19  7 27
  20638574.839   -18231569.796 7 -14081994.819 9
  23106122.042    -4652224.641 5  -3486958.864 9
  21584991.612     3667814.625 7   2908856.259 9
  21497022.675   -12174511.489 7  -9358839.737 9
  20005371.784   -12988936.951 7 -10037218.066 9
 94  3  8 22 38 59.9990000  0  5  2 26 19  7 27
  20636814.948   -18240818.019 7 -14089201.222 9
  23093776.823    -4717101.761 5  -3537512.435 9
  21597802.401     3735132.976 7   2961312.084 9
  21482571.995   -12250451.216 7  -9418013.506 9
  20010578.823   -12961573.452 7 -10015895.872 9
 94  3  8 22 39 29.9990000  0  5  2 26 19  7 27
  20635102.792   -18249815.156 7 -14096211.969 9
  23081503.261    -4781599.338 5  -3587770.262 9
  21610677.042     3802790.894 7   3014032.496 9
  21468189.784   -12326030.534 7  -9476906.435 9
  20015864.206   -12933798.151 7  -9994252.800 9
 94  3  8 22 39 59.9990000  0  5  2 26 19  7 27
  20633444.964   -18258526.586 7 -14103000.092 9
  23069309.644    -4845674.089 5  -3637698.610 9
  21623621.792     3870815.696 7   3067038.790 9
  21453880.909   -12401223.228 7  -9535498.100 9
  20021236.034   -12905570.045 7  -9972256.893 9
 94  3  8 22 40 29.9990000  0  5  2 26 19  7 27
  20631835.847   -18266982.291 7 -14109588.950 9
  23057195.729    -4909333.710 5  -3687303.479 9
  21636630.245     3939175.497 7   3120306.129 9
  21439642.440   -12476047.649 7  -9593802.796 9
  20026693.292   -12876890.267 7  -9949909.032 9
 94  3  8 22 40 59.9990000  0  5  2 26 19  7 27
  20630275.519   -18275183.065 8 -14115979.163 9
  23045162.745    -4972568.396 5  -3736577.230 9
  21649700.276     4007857.826 7   3173824.779 9
  21425476.003   -12550491.726 7  -9651811.121 9
  20032238.315   -12847750.607 7  -9927202.813 9
 94  3  8 22 41 29.9990000  0  5  2 26 19  7 27
  20628761.089   -18283139.451 7 -14122178.935 9
  23033209.831    -5035382.881 6  -3785523.554 9
  21662824.284     4076824.211 7   3227564.780 9
  21411383.979   -12624546.904 7  -9709516.406 9
  20037869.206   -12818159.045 7  -9904144.467 9
 94  3  8 22 41 59.9990000  0  5  2 26 19  7 27
  20627290.644   -18290867.934 7 -14128201.130 9
  23021337.362    -5097772.310 6  -3834138.636 9
  21675996.472     4146045.293 7   3281503.237 9
  21397367.245   -12698204.266 7  -9766911.701 9
  20043583.542   -12788132.319 7  -9880747.028 9
 94  3  8 22 42 29.9990000  0  5  2 26 19  7 27
  20625863.792   -18298365.145 7 -14134043.110 9
  23009547.378    -5159732.459 6  -3882419.235 9
  21689218.917     4215526.332 7   3335644.264 9
  21383426.511   -12771463.946 7  -9823997.111 9
  20049380.104   -12757670.782 7  -9857010.778 9
 94  3  8 22 42 59.9990000  0  5  2 26 19  7 27
  20624482.534   -18305625.872 8 -14139700.810 9
  22997832.644    -5221296.117 6  -3930390.864 9
  21702490.206     4285269.538 7   3389989.574 9
  21369560.690   -12844329.594 7  -9880775.490 9
  20055252.433   -12726811.431 7  -9832964.537 9
 94  3  8 22 43 29.9990000  0  5  2 26 19  7 27
  20623145.675   -18312650.571 8 -14145174.597 9
  22986191.354    -5282467.904 6  -3978057.144 9
  21715815.979     4355294.280 7   3444554.265 9
  21355768.034   -12916811.207 7  -9937254.620 9
  20061201.331   -12695548.197 7  -9808603.578 9
 94  3  8 22 43 59.9990000  0  5  2 26 19  7 27
  20621850.714   -18319456.442 8 -14150477.859 9
  22974623.269    -5343258.417 6  -4025426.330 9
  21729196.839     4425610.146 7   3499345.803 9
  21342042.440   -12988938.705 7  -9993457.814 9
  20067224.987   -12663894.247 7  -9783938.162 9
 94  3  8 22 44 29.9990000  0  5  2 26 19  7 27
  20620600.456   -18326023.719 7 -14155595.210 9
  22963129.956    -5403658.191 6  -4072491.035 9
  21742635.136     4496231.097 7   3554375.074 9
  21328384.190   -13060713.625 7 -10049386.271 9
  20073323.722   -12631845.803 7  -9758965.356 9
 94  3  8 22 44 59.9990000  0  5  2 26 19  7 27
  20619393.354   -18332370.679 8 -14160540.879 9
  22951707.308    -5463683.036 6  -4119263.597 9
  21756128.104     4567135.537 7   3609625.254 9
  21314793.526   -13132131.189 7 -10105036.271 9
  20079495.339   -12599415.216 7  -9733694.769 9
 94  3  8 22 45 29.9990000  0  5  2 26 19  7 27
  20618222.050   -18338525.381 8 -14165336.738 9
  22940356.659    -5523331.966 6  -4165743.243 9
  21769668.855     4638295.575 7   3665074.593 9
  21301269.300   -13203201.816 7 -10160415.935 9
  20085739.229   -12566604.210 7  -9708127.764 9
 94  3  8 22 45 59.9990000  0  5  2 26 19  7 27
  20617091.940   -18344462.045 8 -14169962.689 9
  22929083.909    -5582570.773 6  -4211903.304 9
  21783261.058     4709724.905 7   3720733.775 9
  21287816.987   -13273895.659 7 -10215501.999 9
  20092058.308   -12533395.662 7  -9682250.985 9
 94  3  8 22 46 29.9990000  0  5  2 26 19  7 27
  20616000.198   -18350199.938 8 -14174433.759 9
  22917885.698    -5641418.626 6  -4257758.741 9
  21796901.292     4781403.273 7   3776587.021 9
  21274436.229   -13344212.074 7 -10270293.963 9
  20098453.190   -12499791.948 7  -9656066.289 9
 94  3  8 22 46 59.9990000  0  5  2 26 19  7 27
  20614943.097   -18355756.142 8 -14178763.255 9
  22906758.448    -5699889.373 6  -4303320.321 9
  21810589.136     4853329.867 7   3832633.672 9
  21261125.940   -13414159.141 7 -10324798.122 9
  20104924.347   -12465784.419 7  -9629566.933 9
 94  3  8 22 47 29.9990000  0  5  2 26 19  7 27
  20613920.933   -18361127.257 8 -14182948.523 9
  22895706.909    -5757963.222 6  -4348572.627 9
  21824327.190     4925523.530 7   3888888.441 9
  21247884.112   -13483742.801 7 -10379019.105 9
  20111473.847   -12431365.490 7  -9602747.006 9
 94  3  8 22 47 59.9990000  0  5  2 26 19  7 27
  20612934.237   -18366314.569 8 -14186990.576 9
  22884733.472    -5815633.164 6  -4393510.224 9
  21838117.339     4997995.460 7   3945360.042 9
  21234710.972   -13552967.448 7 -10432960.345 9
  20118101.972   -12396534.345 7  -9575605.879 9
 94  3  8 22 48 29.9990000  0  5  2 26 19  7 27
  20611980.198   -18371323.161 8 -14190893.358 9
  22873835.620    -5872900.698 6  -4438134.242 9
  21851959.847     5070735.110 7   4002040.233 9
  21221607.659   -13621824.277 7 -10486614.966 9
  20124806.894   -12361301.159 7  -9548151.471 9
 94  3  8 22 48 59.9990000  0  6  2 26 15 19  7 27
  20611071.620   -18376099.497 8 -14194615.175 9
  22863027.073    -5929698.247 6  -4482392.032 9
  23871009.761      -15237.57415
  21865863.081     5143798.044 7   4058972.342 9
  21208584.808   -13690260.511 7 -10539941.857 9
  20131595.698   -12325625.748 7  -9520352.473 9
 94  3  8 22 49 29.9990000  0  6  2 26 15 19  7 27
  20610202.565   -18380667.277 8 -14198174.476 9
  22852306.190    -5986039.830 6  -4526294.526 9
  23863150.425      -56537.279 5
  21879823.065     5217159.617 6   4116137.165 9
  21195639.050   -13758290.100 7 -10592951.880 9
  20138459.878   -12289552.284 7  -9492243.301 9
 94  3  8 22 49 59.9990000  0  6  2 26 15 19  7 27
  20609373.706   -18385022.855 8 -14201568.421 9
  22841666.144    -6041946.845 6  -4569858.412 9
  23855363.675      -97457.240 5    -24415.02719
  21893837.370     5290803.373 7   4173521.860 9
  21182774.480   -13825894.237 7 -10645630.380 9
  20145399.089   -12253086.941 7  -9463828.770 9
 94  3  8 22 50 29.9990000  0  6  2 26 15 19  7 27
  20608591.948   -18389131.332 8 -14204769.814 9
  22831115.745    -6097393.838 6  -4613063.827 9
  23847657.198     -137954.973 5    -55971.635 9
  21907910.526     5364758.881 7   4231149.484 9
  21169998.448   -13893033.124 7 -10697946.349 9
  20152419.847   -12216193.611 7  -9435080.732 9
 94  3  8 22 50 59.9990000  0  6  2 26 15 19  7 27
  20607851.878   -18393018.398 8 -14207798.681 9
  22820646.706    -6152412.968 6  -4655935.849 9
  23840027.769     -178046.582 5    -87211.791 9
  21922040.362     5439010.726 6   4289008.028 9
  21157303.573   -13959744.882 7 -10749929.491 9
  20159518.433   -12178888.186 7  -9406011.582 9
 94  3  8 22 51 29.9990000  0  6  2 26 15 19  7 27
  20607159.245   -18396658.789 8 -14210635.329 9
  22810259.050    -6206992.270 6  -4698465.145 9
  23832480.175     -217714.456 5   -118121.726 9
  21936228.323     5513569.453 6   4347105.687 9
  21144694.206   -14026006.982 7 -10801562.242 9
  20166702.480   -12141138.603 7  -9376596.338 9
 94  3  8 22 51 59.9990000  0  6  2 26 15 19  7 27
  20606512.612   -18400055.794 8 -14213282.332 9
  22799958.175    -6261123.855 6  -4740645.566 9
  23825010.175     -256961.666 5   -148703.890 9
  21950472.354     5588422.550 6   4405432.727 9
  21132168.558   -14091828.225 7 -10852851.474 9
  20173973.901   -12102926.526 7  -9346820.704 9
 94  3  8 22 52 29.9990000  0  6  2 26 15 19  7 27
  20605918.698   -18403177.764 8 -14215715.021 9
  22789754.253    -6314750.261 6  -4782432.357 9
  23817629.854     -295746.649 5   -178925.871 9
  21964781.487     5663618.871 6   4464027.226 9
  21119729.847   -14157192.998 7 -10903785.017 9
  20181340.940   -12064209.609 7  -9316651.681 9
 94  3  8 22 52 59.9990000  0  6  2 26 15 19  7 27
  20605377.050   -18406023.857 8 -14217932.743 9
  22779642.769    -6367878.756 6  -4823831.148 9
  23810334.550     -334083.920 5   -208798.986 9
  21979153.151     5739141.980 6   4522876.351 9
  21107376.745   -14222111.811 7 -10954371.059 9
  20188803.300   -12024995.763 7  -9286095.444 9
 94  3  8 22 53 29.9990000  0  6  2 26 15 19  7 27
  20604889.526   -18408585.807 8 -14219929.059 9
  22769631.847    -6420489.506 6  -4864826.502 9
  23803126.706     -371957.815 5   -238311.037 9
  21993590.058     5815006.538 6   4581991.556 9
  21095111.081   -14286566.801 7 -11004595.685 9
  20196362.870   -11985269.913 7  -9255140.247 9
 94  3  8 22 53 59.9990000  0  6  2 26 15 19  7 27
  20604448.269   -18410905.546 8 -14221736.649 9
  22759711.667    -6472624.644 6  -4905451.258 9
  23796001.886     -409401.587 5   -267487.956 9
  22008085.089     5891180.248 6   4641347.643 9
  21082924.706   -14350607.125 7 -11054497.187 9
  20204010.105   -11945085.459 7  -9223827.695 9
 94  3  8 22 54 29.9990000  0  6  2 26 15 19  7 27
  20604060.870   -18412941.379 8 -14223323.006 9
  22749883.323    -6524269.706 6  -4945694.122 9
  23788965.542     -446379.286 5   -296301.664 9
  22022646.222     5967697.107 6   4700971.113 9
  21070822.573   -14414203.065 7 -11104052.421 9
  20211747.769   -11904422.089 7  -9192141.966 9
 94  3  8 22 54 59.9990000  0  6  2 26 15 19  7 27
  20603713.370   -18414767.131 8 -14224745.672 9
  22740131.901    -6575516.925 6  -4985626.990 9
  23782002.292     -482971.265 5   -324814.848 9
  22037254.870     6044465.423 6   4760790.528 9
  21058790.831   -14477429.854 7 -11153320.001 9
  20219560.620   -11863364.598 7  -9160149.129 9
 94  3  8 22 55 29.9990000  0  6  2 26 15 19  7 27
  20603413.870   -18416341.744 8 -14225972.640 9
  22730465.511    -6626311.196 6  -5025206.900 9
  23775121.815     -519129.959 6   -352990.404 9
  22051922.253     6121546.733 6   4820853.842 9
  21046836.776   -14540248.251 7 -11202269.355 9
  20227455.472   -11821878.312 7  -9127822.164 9
 94  3  8 22 55 59.9990000  0  6  2 26 15 19  7 27
  20603162.558   -18417662.086 8 -14227001.472 9
  22720884.479    -6676654.623 6  -5064435.492 9
  23768321.378     -554862.504 5   -380833.886 9
  22066649.065     6198934.728 6   4881156.119 9
  21034961.050   -14602656.755 7 -11250899.310 9
  20235429.917   -11779973.299 7  -9095168.927 9
 94  3  8 22 56 29.9990000  0  6  2 26 15 19  7 27
  20602966.589   -18418691.536 8 -14227803.638 9
  22711401.698    -6726491.334 6  -5103269.256 9
  23761610.409     -590130.525 5   -408315.423 9
  22081441.433     6276667.525 6   4941727.072 9
  21023173.964   -14664597.431 7 -11299164.729 9
  20243491.964   -11737607.014 7  -9062156.253 9
 94  3  8 22 56 59.9990000  0  6  2 26 15 19  7 27
  20602813.409   -18419496.380 8 -14228430.782 9
  22702007.401    -6775853.302 6  -5141733.082 9
  23754978.206     -624982.494 5   -435472.752 9
  22096288.151     6354685.809 6   5002520.487 9
  21011469.894   -14726104.443 7 -11347092.227 9
  20251632.479   -11694828.968 7  -9028822.720 9
 94  3  8 22 57 29.9990000  0  6  2 26 15 19  7 27
  20602694.433   -18420121.636 8 -14228917.989 9
  22692702.300    -6824758.010 6  -5179840.615 9
  23748421.019     -659440.588 5   -462323.177 9
  22111181.862     6432953.980 6   5063508.619 9
  20999845.550   -14787192.128 7 -11394692.976 9
  20259846.737   -11651663.748 7  -8995187.500 9
 94  3  8 22 57 59.9990000  0  6  2 26 15 19  7 27
  20602609.573   -18420567.257 8 -14229265.220 9
  22683485.229    -6873191.334 6  -5217580.825 9
  23741942.808     -693485.289 6   -488851.480 9
  22126120.667     6511458.033 6   5124680.562 9
  20988305.714   -14847832.216 7 -11441944.949 9
  20268139.167   -11608085.202 7  -8961230.207 9
 94  3  8 22 58 29.9990000  0  6  2 26 15 19  7 27
  20602552.128   -18420868.572 8 -14229499.998 9
  22674352.690    -6921185.698 6  -5254978.994 9
  23735536.878     -727145.575 5   -515080.243 9
  22141095.878     6590153.187 6   5186001.414 9
  20976843.597   -14908065.440 7 -11488879.885 9
  20276506.042   -11564118.693 7  -8926970.605 9
 94  3  8 22 58 59.9990000  0  6  2 26 15 19  7 27
  20602522.995   -18421024.449 8 -14229621.455 9
  22665301.565    -6968748.370 6  -5292040.775 9
  23729207.206     -760408.832 5   -540999.616 9
  22156109.292     6669048.936 6   5247478.576 9
  20965458.089   -14967897.965 7 -11535502.594 9
  20284948.620   -11519751.411 7  -8892398.711 9
 94  3  8 22 59 29.9990000  0  6  2 26 15 19  7 27
  20602523.964   -18421018.167 8 -14229616.548 9
  22656332.753    -7015881.119 6  -5328767.573 9
  23722956.362     -793260.276 5   -566598.099 9
  22171169.026     6748185.242 6   5309143.176 9
  20954149.909   -15027321.860 7 -11581806.887 9
  20293469.839   -11474973.534 7  -8857506.874 9
 94  3  8 22 59 59.9990000  0  6  2 26 15 19  7 27
  20602561.300   -18420822.454 8 -14229464.037 9
  22647444.964    -7062585.538 6  -5365160.590 9
  23716784.519     -825692.357 5   -591869.815 9
  22186277.565     6827584.588 6   5371012.753 9
  20942920.144   -15086335.383 7 -11627791.411 9
  20302067.565   -11429790.750 7  -8822299.525 9
 94  3  8 23  0 29.9990000  0  6  2 26 15 19  7 27
  20602630.933   -18420455.764 8 -14229178.296 9
  22638632.901    -7108893.749 6  -5401244.864 9
  23710687.769     -857731.664 5   -616835.480 9
  22201433.878     6907229.846 6   5433073.937 9
  20931763.378   -15144964.139 7 -11673476.112 9
  20310735.433   -11384241.767 7  -8786806.824 9
 94  3  8 23  0 59.9990000  0  6  2 26 15 19  7 27
  20602729.745   -18419935.492 8 -14228772.882 9
  22629894.050    -7154817.495 6  -5437029.579 9
  23704664.495     -889383.672 5   -641499.334 9
  22216636.644     6987121.445 6   5495327.079 9
  20920680.448   -15203204.593 7 -11718858.240 9
  20319469.144   -11338345.381 7  -8751043.420 9
 94  3  8 23  1 29.9990000  0  6  2 26 15 19  7 27
  20602865.909   -18419219.931 8 -14228215.300 9
  22621236.034    -7200316.215 6  -5472483.089 9
  23698720.487     -920618.066 5   -665837.757 9
  22231888.854     7067271.176 6   5557781.355 9
  20909677.362   -15261025.437 7 -11763913.401 9
  20328273.636   -11292076.704 7  -8714989.920 9
 94  3  8 23  1 59.9990000  0  6  2 26 15 19  7 27
  20603036.808   -18418323.256 8 -14227516.582 9
  22612660.284    -7245381.442 6  -5507598.816 9
  23692854.034     -951443.393 5   -689857.471 9
  22247182.229     7147636.497 6   5620403.624 9
  20898750.222   -15318448.713 7 -11808658.769 9
  20337148.042   -11245442.750 7  -8678651.792 9
 94  3  8 23  2 29.9990000  0  6  2 26 15 19  7 27
  20603240.237   -18417252.998 8 -14226682.611 9
  22604170.550    -7289997.448 6  -5542364.510 9
  23687067.284     -981855.355 5   -713555.053 9
  22262516.573     7228222.263 6   5683197.675 9
  20887898.737   -15375474.394 7 -11853094.326 9
  20346095.901   -11198421.348 7  -8642011.752 9
 94  3  8 23  2 59.9990000  0  6  2 26 15 19  7 27
  20603476.440   -18416013.527 8 -14225716.785 9
  22595765.901    -7334160.813 6  -5576777.483 9
  23681357.245    -1011857.540 5   -736933.304 9
  22277895.503     7309037.909 6   5746170.856 9
  20877120.714   -15432110.007 7 -11897225.930 9
  20355117.847   -11151010.832 7  -8605068.510 9
 94  3  8 23  3 29.9990000  0  6  2 26 15 19  7 27
  20603747.753   -18414586.486 8 -14224604.800 9
  22587451.604    -7377852.349 6  -5610822.815 9
  23675728.183    -1041443.017 5   -759986.866 9
  22293320.042     7390093.114 6   5809330.699 9
  20866419.315   -15488347.670 7 -11941047.450 9
  20364217.690   -11103191.740 7  -8567806.897 9
 94  3  8 23  3 59.9990000  0  6  2 26 15 19  7 27
  20604054.292   -18412974.226 7 -14223348.491 9
  22579227.729    -7421070.659 6  -5644499.390 9
  23670177.448    -1070606.564 5   -782711.666 9
  22308795.065     7471416.392 6   5872699.434 9
  20855799.058   -15544158.298 7 -11984536.209 9
  20373398.097   -11054949.385 8  -8530215.466 9
 94  3  8 23  4 29.9990000  0  6  2 26 15 19  7 27
  20604397.300   -18411172.506 8 -14221944.552 9
  22571090.737    -7463830.428 6  -5677818.670 9
  23664709.987    -1099339.989 5   -805101.326 9
  22324324.628     7553023.978 6   5936289.695 9
  20845264.425   -15599517.209 7 -12027672.977 9
  20382660.979   -11006273.535 8  -8492286.249 9
 94  3  8 23  4 59.9990000  0  6  2 26 15 19  7 27
  20604770.214   -18409213.297 8 -14220417.900 9
  22563035.472    -7506162.816 6  -5710804.907 9
  23659319.737    -1127664.991 5   -827172.680 9
  22339899.347     7634868.658 6   6000064.725 9
  20834810.511   -15654453.918 7 -12070480.763 9
  20391998.683   -10957201.774 7  -8454048.533 9
 94  3  8 23  5 29.9990000  0  6  2 26 15 19  7 27
  20605174.847   -18407086.422 8 -14218760.585 9
  22555064.292    -7548051.368 6  -5743445.308 9
  23654011.362    -1155561.286 5   -848910.024 9
  22355517.198     7716942.677 6   6064018.454 9
  20824438.901   -15708956.411 7 -12112950.198 9
  20401414.729   -10907719.317 7  -8415490.792 9
 94  3  8 23  5 59.9990000  0  6  2 26 15 19  7 27
  20605607.769   -18404812.805 8 -14216988.929 9
  22547171.409    -7589523.089 6  -5775760.911 9
  23648783.081    -1183040.703 5   -870322.513 9
  22371173.003     7799213.298 6   6128125.371 9
  20814143.620   -15763055.970 7 -12155105.659 9
  20410902.167   -10857861.672 7  -8376640.693 9
 94  3  8 23  6 29.9990000  0  6  2 26 15 19  7 27
  20606072.886   -18402366.291 7 -14215082.543 9
  22539365.917    -7630540.492 6  -5807722.486 9
  23643639.120    -1210068.032 5   -891382.707 9
  22386870.159     7881704.133 6   6192403.895 9
  20803925.659   -15816751.446 7 -12196946.242 9
  20420464.425   -10807612.385 7  -8337485.416 9
 94  3  8 23  6 59.9990000  0  6  2 26 15 19  7 27
  20606570.729   -18399749.273 8 -14213043.296 9
  22531651.589    -7671085.036 6  -5839315.611 9
  23638580.776    -1236649.359 5   -912095.373 9
  22402609.550     7964417.287 6   6256855.632 9
  20793783.112   -15870052.368 7 -12238479.391 9
  20430097.956   -10756987.083 7  -8298037.150 9
 94  3  8 23  7 29.9990000  0  6  2 26 15 19  7 27
  20607098.659   -18396976.734 8 -14210882.863 9
  22524022.261    -7711174.789 6  -5870554.349 9
  23633603.940    -1262802.402 5   -932474.290 9
  22418393.972     8047359.935 6   6321486.204 9
  20783715.354   -15922956.040 7 -12279702.992 9
  20439801.573   -10705995.376 7  -8258303.364 9
 94  3  8 23  7 59.9990000  0  6  2 26 15 19  7 27
  20607655.019   -18394051.909 8 -14208603.764 9
  22516479.800    -7750806.778 6  -5901436.386 9
  23628709.323    -1288527.116 5   -952519.505 9
  22434224.347     8130548.521 6   6386308.423 9
  20773726.206   -15975447.937 7 -12320605.728 9
  20449575.558   -10654633.446 7  -8218281.098 9
 94  3  8 23  8 29.9990000  0  6  2 26 15 19  7 27
  20608241.050   -18390973.711 8 -14206205.151 9
  22509030.394    -7789956.776 6  -5931942.845 9
  23623896.276    -1313815.800 5   -972224.898 9
  22450104.089     8213997.632 6   6451333.643 9
  20763822.042   -16027497.138 7 -12361163.508 9
  20459424.409   -10602876.988 7  -8177951.406 9
 94  3  8 23  8 59.9990000  0  6  2 26 15 19  7 27
  20608850.737   -18387769.011 8 -14203707.969 9
  22501663.229    -7828670.180 6  -5962109.102 9
  23619160.081    -1338706.519 5   -991620.209 9
  22466024.167     8297658.719 6   6516524.047 9
  20753997.690   -16079125.236 7 -12401393.150 9
  20469343.604   -10550751.016 7  -8137333.785 9
 94  3  8 23  9 29.9990000  0  6  2 26 15 19  7 27
  20609493.487   -18384390.719 8 -14201075.522 9
  22494385.667    -7866916.089 6  -5991911.072 9
  23614508.714    -1363147.016 5  -1010664.671 9
  22481990.659     8381563.612 6   6581904.423 9
  20744261.636   -16130286.084 7 -12441258.706 9
  20479342.753   -10498202.592 7  -8096386.976 9
 94  3  8 23  9 59.9990000  0  6  2 26 15 19  7 27
  20610171.323   -18380829.236 8 -14198300.334 9
  22487197.073    -7904688.810 6  -6021344.318 9
  23609944.558    -1387136.334 5  -1029357.595 9
  22497999.089     8465686.961 6   6647455.032 9
  20734611.745   -16180997.836 7 -12480774.308 9
  20489421.878   -10445238.980 7  -8055116.639 9
 94  3  8 23 10 29.9990000  0  6  2 26 15 19  7 27
  20610888.042   -18377063.502 8 -14195365.989 9
  22480099.339    -7941988.938 6  -6050409.319 9
  23605467.394    -1410662.232 5  -1047689.385 9
  22514051.159     8550039.006 6   6713183.836 9
  20725045.909   -16231266.518 7 -12519944.678 9
  20499582.034   -10391846.277 7  -8013511.949 9
 94  3  8 23 10 59.9990000  0  6  2 26 15 19  7 27
  20611640.909   -18373105.372 8 -14192281.731 9
  22473086.183    -7978845.488 6  -6079128.673 9
  23601076.292    -1433734.680 5  -1065667.858 9
  22530143.284     8634606.232 6   6779080.309 9
  20715560.940   -16281108.843 7 -12558782.813 9
  20509820.284   -10338042.681 7  -7971587.082 9
 94  3  8 23 11 29.9990000  0  6  2 26 15 19  7 27
  20612430.995   -18368953.096 7 -14189046.188 9
  22466160.925    -8015234.771 6  -6107483.921 9
  23596774.315    -1456339.928 5  -1083282.274 9
  22546278.964     8719399.241 6   6845152.734 9
  20706159.597   -16330514.481 7 -12597280.668 9
  20520137.245   -10283827.970 7  -7929341.871 9
 94  3  8 23 11 59.9990000  0  6  2 26 15 19  7 27
  20613253.628   -18364630.679 7 -14185678.063 9
  22459321.065    -8051176.769 6  -6135490.640 9
  23592557.597    -1478502.328 5  -1100551.611 9
  22562454.214     8804402.285 6   6911388.812 9
  20696835.800   -16379511.249 7 -12635459.926 9
  20530526.386   -10229232.766 7  -7886800.168 9
 94  3  8 23 12 29.9990000  0  6  2 26 15 19  7 27
  20614107.479   -18360140.804 7 -14182179.452 9
  22452569.714    -8086656.408 6  -6163137.087 9
  23588427.151    -1500203.613 5  -1117461.682 9
  22578674.706     8889641.089 6   6977808.596 9
  20687595.128   -16428071.585 7 -12673299.108 9
  20540989.081   -10174249.126 7  -7843955.793 9
 94  3  8 23 12 59.9990000  0  6  2 26 15 19  7 27
  20615001.800   -18355443.198 7 -14178518.975 9
  22445919.503    -8121607.868 6  -6190371.968 9
  23584395.479    -1521391.822 5  -1133971.911 9
  22594947.581     8975155.869 6   7044443.428 9
  20678448.534   -16476135.508 7 -12710751.476 9
  20551534.042   -10118837.076 7  -7800777.582 9
 94  3  8 23 13 29.9990000  0  6  2 26 15 19  7 27
  20615926.753   -18350582.474 7 -14174731.387 9
  22439361.386    -8156065.461 6  -6217222.024 9
  23580451.995    -1542114.827 5  -1150119.677 9
  22611263.479     9060895.011 6   7111253.091 9
  20669384.011   -16523770.406 7 -12747869.534 9
  20562147.909   -10063060.229 7  -7757315.115 9
 94  3  8 23 13 59.9990000  0  6  2 26 15 19  7 27
  20616881.847   -18345564.488 8 -14170821.265 9
  22432897.159    -8190036.470 6  -6243692.918 9
  23576596.472    -1562377.281 5  -1165908.564 9
  22627621.839     9146858.805 6   7178237.799 9
  20660399.612   -16570983.572 7 -12784658.969 9
  20572830.612   -10006922.168 7  -7713571.180 9
 94  3  8 23 14 29.9990000  0  6  2 26 15 19  7 27
  20617866.128   -18340391.377 7 -14166790.259 9
  22426528.315    -8223507.843 6  -6269774.485 9
  23572828.323    -1582176.388 5  -1181336.386 9
  22644023.472     9233049.161 6   7245399.051 9
  20651497.448   -16617764.350 7 -12821111.482 9
  20583584.323    -9950410.979 7  -7669536.494 9
 94  3  8 23 14 59.9990000  0  6  2 26 15 19  7 27
  20618883.222   -18335046.305 7 -14162625.259 9
  22420253.917    -8256479.399 6  -6295466.587 9
  23569148.886    -1601512.160 5  -1196403.190 9
  22660467.737     9319466.194 6   7312736.933 9
  20642676.636   -16664118.259 7 -12857231.378 9
  20594410.276    -9893520.792 7  -7625206.488 9
 94  3  8 23 15 29.9990000  0  6  2 26 15 19  7 27
  20619933.112   -18329530.173 8 -14158326.967 9
  22414071.823    -8288963.277 6  -6320778.666 9
  23565557.394    -1620386.151 5  -1211110.150 9
  22676955.464     9406107.463 6   7380249.539 9
  20633936.472   -16710046.873 7 -12893019.867 9
  20605306.558    -9836259.320 7  -7580587.167 9
 94  3  8 23 15 59.9990000  0  6  2 26 15 19  7 27
  20621013.144   -18323854.771 7 -14153904.569 9
  22407981.925    -8320966.637 6  -6345716.328 9
  23562053.050    -1638801.462 5  -1225459.705 9
  22693485.058     9492970.918 6   7447935.279 9
  20625281.683   -16755527.787 7 -12928459.500 9
  20616276.089    -9778615.947 7  -7535670.263 9
 94  3  8 23 16 29.9990000  0  6  2 26 15 19  7 27
  20622122.995   -18318022.548 8 -14149359.976 9
  22401980.237    -8352505.954 6  -6370292.397 9
  23558635.089    -1656761.296 5  -1239454.327 9
  22710056.042     9580049.123 6   7515788.366 9
  20616712.940   -16800560.184 7 -12963549.646 9
  20627317.394    -9720594.803 7  -7490458.998 9
 94  3  8 23 16 59.9990000  0  6  2 26 15 19  7 27
  20623263.854   -18312028.061 8 -14144688.944 9
  22396065.120    -8383590.621 6  -6394514.189 9
  23555305.503    -1674258.455 5  -1253088.430 9
  22726667.714     9667343.127 6   7583809.612 9
  20608227.667   -16845150.199 7 -12998295.076 9
  20638427.964    -9662205.741 7  -7444961.041 9
 94  3  8 23 17 29.9990000  0  6  2 26 15 19  7 27
  20624430.604   -18305896.798 8 -14139911.325 9
  22390235.565    -8414225.837 6  -6418385.761 9
  23552062.487    -1691299.899 5  -1266367.440 9
  22743316.479     9754836.674 6   7651986.341 9
  20599825.409   -16889303.432 7 -13032700.157 9
  20649607.511    -9603457.557 7  -7399183.251 9
 94  3  8 23 17 59.9990000  0  6  2 26 15 19  7 27
  20625624.300   -18299622.890 8 -14135022.560 9
  22384492.730    -8444405.258 6  -6441902.169 9
  23548907.792    -1707881.769 5  -1279288.312 9
  22760006.440     9842541.666 6   7720327.823 9
  20591506.284   -16933020.793 7 -13066765.598 9
  20660860.073    -9544326.729 7  -7353107.298 9
 94  3  8 23 18 29.9990000  0  6  2 26 15 19  7 27
  20626845.761   -18293202.837 8 -14130019.912 9
  22378835.073    -8474134.225 6  -6465067.580 9
  23545839.081    -1724004.081 5  -1291851.117 9
  22776736.644     9930459.324 6   7788835.020 9
  20583266.901   -16976319.011 7 -13100504.440 9
  20672184.636    -9484814.814 7  -7306734.402 9
 94  3  8 23 18 59.9990000  0  6  2 26 15 19  7 27
  20628094.479   -18286642.613 8 -14124908.038 9
  22373266.378    -8503398.161 6  -6487870.621 9
  23542858.933    -1739667.404 5  -1304056.263 9
  22793505.112    10018575.667 6   7857497.050 9
  20575106.495   -17019202.864 7 -13133920.392 9
  20683581.409    -9424924.053 7  -7260066.291 9
 94  3  8 23 19 29.9990000  0  6  2 26 15 19  7 27
  20629369.581   -18279940.010 7 -14119685.216 9
  22367789.378    -8532181.470 6  -6510299.154 9
  23539966.042    -1754869.613 5  -1315902.084 9
  22810310.644    10106889.038 6   7926312.596 9
  20567026.495   -17061662.697 7 -13167005.943 9
  20695052.995    -9364641.681 7  -7213093.034 9
 94  3  8 23 19 59.9990000  0  6  2 26 15 19  7 27
  20630673.565   -18273088.290 8 -14114346.202 9
  22362402.659    -8560489.761 6  -6532357.535 9
  23537161.206    -1769608.419 5  -1327386.829 9
  22827154.862    10195406.019 6   7995286.810 9
  20559028.308   -17103693.028 7 -13199756.816 9
  20706598.331    -9303971.238 7  -7165817.388 9
 94  3  8 23 20 29.9990000  0  6  2 26 15 19  7 27
  20632004.065   -18266097.125 8 -14108898.530 9
  22357105.792    -8588322.999 6  -6554045.745 9
  23534444.370    -1783886.548 5  -1338512.618 9
  22844034.347    10284108.333 6   8064405.421 9
  20551113.870   -17145286.004 7 -13232166.892 9
  20718213.120    -9242933.196 7  -7118255.296 9
 94  3  8 23 20 59.9990000  0  6  2 26 15 19  7 27
  20633360.464   -18258969.711 8 -14103344.686 9
  22351900.511    -8615672.877 6  -6575357.302 9
  23531814.901    -1797700.402 5  -1349276.611 9
  22860948.495    10372991.452 6   8133664.923 9
  20543284.120   -17186431.045 7 -13264227.931 9
  20729896.120    -9181538.825 7  -7070415.544 9
 94  3  8 23 21 29.9990000  0  6  2 26 15 19  7 27
  20634740.589   -18251715.270 7 -14097691.864 9
  22346788.198    -8642544.248 6  -6596296.008 9
  23529274.987    -1811050.251 5  -1359679.065 9
  22877897.698    10462064.868 6   8203072.703 9
  20535539.909   -17227126.142 7 -13295938.361 9
  20741645.847    -9119795.271 7  -7022303.706 9
 94  3  8 23 21 59.9990000  0  6  2 26 15 19  7 27
  20636145.394   -18244333.400 7 -14091939.748 9
  22341764.651    -8668941.956 6  -6616865.621 9
  23526822.886    -1823930.950 5  -1369715.931 9
  22894884.409    10551327.601 6   8272628.013 9
  20527883.159   -17267363.542 7 -13327292.147 9
  20753461.597    -9057702.214 7  -6973919.527 9
 94  3  8 23 22 29.9990000  0  6  2 26 15 19  7 27
  20637575.495   -18236818.790 8 -14086084.200 9
  22336834.331    -8694851.862 6  -6637055.131 9
  23524462.808    -1836333.939 5  -1379380.575 9
  22911906.386    10640779.436 6   8342330.673 9
  20520311.370   -17307152.804 7 -13358296.736 9
  20765346.300    -8995246.907 7  -6925253.074 9
 94  3  8 23 22 59.9990000  0  6  2 26 15 19  7 27
  20639032.026   -18229164.692 8 -14080119.956 9
  22331995.972    -8720273.399 6  -6656864.102 9
  23522196.190    -1848252.098 5  -1388667.437 9
  22928965.690    10730425.072 6   8412184.336 9
  20512821.940   -17346508.581 7 -13388963.543 9
  20777302.878    -8932414.827 7  -6876293.027 9
 94  3  8 23 23 29.9990000  0  6  2 26 15 19  7 27
  20640517.144   -18221359.654 8 -14074038.099 9
  22327249.198    -8745219.589 6  -6676302.670 9
  23520020.417    -1859683.301 5  -1397574.843 9
  22946062.003    10820268.485 6   8482192.116 9
  20505414.940   -17385433.359 7 -13419294.513 9
  20789335.769    -8869181.210 7  -6827020.097 9
 94  3  8 23 23 59.9990000  0  6  2 26 15 19  7 27
  20642033.972   -18213390.090 8 -14067828.041 9
  22322592.034    -8769694.018 6  -6695373.633 9
  23517938.190    -1870624.343 5  -1406100.321 9
  22963196.729    10910312.590 6   8552356.289 9
  20498090.440   -17423923.449 7 -13449286.757 9
  20801446.964    -8805535.977 7  -6777426.428 9
 94  3  8 23 24 29.9990000  0  6  2 26 15 19  7 27
  20643583.175   -18205248.718 8 -14061484.100 9
  22318025.628    -8793693.218 6  -6714074.275 9
  23515950.190    -1881073.726 5  -1414242.658 9
  22980371.995    11000566.318 6   8622683.808 9
  20490848.729   -17461980.173 7 -13478941.316 9
  20813636.612    -8741481.008 7  -6727513.482 9
 94  3  8 23 24 59.9990000  0  6  2 26 15 19  7 27
  20645164.581   -18196937.103 7 -14055007.508 9
  22313549.487    -8817211.038 6  -6732399.826 9
  23514055.198    -1891029.987 5  -1422000.775 9
  22997587.128    11091032.419 6   8693176.806 9
  20483691.948   -17499588.662 7 -13508246.605 9
  20825901.636    -8677026.856 7  -6677289.488 9
 94  3  8 23 25 29.9990000  0  6  2 26 15 19  7 27
  20646778.589   -18188456.642 8 -14048399.349 9
  22309168.495    -8840235.493 6  -6750340.940 9
  23512254.472    -1900492.194 5  -1429373.888 9
  23014844.261    11181718.807 6   8763841.447 9
  20476624.058   -17536729.118 7 -13537187.187 9
  20838238.487    -8612197.549 7  -6626773.169 9
 94  3  8 23 25 59.9990000  0  6  2 26 15 19  7 27
  20648422.612   -18179817.238 8 -14041667.340 9
  22304883.511    -8862753.959 6  -6767887.779 9
  23510548.519    -1909456.530 5  -1436359.073 9
  23032141.729    11272616.804 6   8834670.987 9
  20469646.479   -17573397.064 7 -13565759.581 9
  20850640.456    -8547021.697 7  -6575986.810 9
 94  3  8 23 26 29.9990000  0  6  2 26 15 19  7 27
  20650095.183   -18171027.051 8 -14034817.833 9
  22300695.065    -8884762.255 6  -6785037.084 9
  23508938.300    -1917922.246 5  -1442955.720 9
  23049476.698    11363712.744 6   8905654.759 9
  20462756.151   -17609603.047 7 -13593972.008 9
  20863108.909    -8481503.169 7  -6524933.426 9
 94  3  8 23 26 59.9990000  0  6  2 26 15 19  7 27
  20651795.659   -18162092.453 8 -14027855.801 9
  22296605.089    -8906258.618 6  -6801787.461 9
  23507422.058    -1925887.643 5  -1449162.515 9
  23066847.534    11454998.859 6   8976786.724 9
  20455954.159   -17645348.389 7 -13621825.487 9
  20875639.956    -8415650.502 7  -6473619.690 9
 94  3  8 23 27 29.9990000  0  6  2 26 15 19  7 27
  20653524.972   -18153004.349 8 -14020774.151 9
  22292609.065    -8927256.438 6  -6818149.372 9
  23506002.378    -1933349.059 5  -1454976.587 9
  23084255.050    11546471.491 6   9048064.032 9
  20449241.394   -17680624.445 7 -13649313.295 9
  20888237.745    -8349446.672 7  -6422032.309 9
 94  3  8 23 27 59.9990000  0  6  2 26 15 19  7 27
  20655282.972   -18143765.154 8 -14013574.761 9
  22288705.269    -8947767.096 6  -6834131.693 9
  23504677.972    -1940308.602 5  -1460399.595 9
  23101694.589    11638117.092 6   9119476.111 9
  20442615.808   -17715442.660 7 -13676444.342 9
  20900907.940    -8282865.856 7  -6370151.184 9
 94  3  8 23 28 29.9990000  0  6  2 26 15 19  7 27
  20657071.769   -18134365.928 8 -14006250.682 9
  22284898.831    -8967769.206 6  -6849717.722 9
  23503449.901    -1946761.837 5  -1465428.085 9
  23119167.097    11729936.056 6   9191023.260 9
  20436077.042   -17749803.839 7 -13703219.261 9
  20913652.823    -8215891.210 7  -6317963.171 9
 94  3  8 23 28 59.9990000  0  6  2 26 15 19  7 27
  20658890.987   -18124805.389 8 -13998800.908 9
  22281189.870    -8987264.720 6  -6864909.010 9
  23502318.315    -1952708.792 5  -1470062.083 9
  23136674.878    11821937.536 6   9262712.667 9
  20429627.144   -17783699.079 7 -13729631.109 9
  20926471.542    -8148531.123 7  -6265474.828 9
 94  3  8 23 29 29.9990000  0  6  2 26 15 19  7 27
  20660740.448   -18115086.552 7 -13991227.785 9
  22277576.292    -9006255.732 6  -6879707.187 9
  23501283.651    -1958146.209 5  -1474298.995 9
  23154218.722    11914133.889 6   9334553.909 9
  20423266.362   -17817125.405 7 -13755677.569 9
  20939365.542    -8080769.371 7  -6212673.495 9
 94  3  8 23 29 59.9990000  0  6  2 26 15 19  7 27
  20662619.269   -18105211.851 7 -13983533.206 9
  22274060.362    -9024726.828 6  -6894100.222 9
  23500345.378    -1963074.865 5  -1478139.514 9
  23171801.136    12006528.069 6   9406549.282 9
  20416992.729   -17850093.389 7 -13781366.882 9
  20952334.636    -8012617.359 7  -6159568.060 9
 94  3  8 23 30 29.9990000  0  6  2 26 15 19  7 27
  20664529.190   -18095177.268 7 -13975714.048 9
  22270644.362    -9042680.810 6  -6908090.319 9
  23499504.565    -1967492.374 5  -1481581.723 9
  23189422.300    12099132.161 5   9478708.237 9
  20410807.206   -17882597.223 7 -13806694.516 9
  20965374.964    -7944092.299 7  -6106171.942 9
 94  3  8 23 30 59.9990000  0  6  2 26 15 19  7 27
  20666469.425   -18084980.022 7 -13967768.137 9
  22267322.065    -9060137.405 6  -6921692.845 9
  23498763.503    -1971392.720 5  -1484620.929 9
  23207088.065    12191962.651 6   9551043.599 9
  20404713.269   -17914621.260 7 -13831648.285 9
  20978487.425    -7875183.665 7  -6052476.930 9
 94  3  8 23 31 29.9990000  0  6  2 26 15 19  7 27
  20668442.120   -18074613.571 7 -13959690.378 9
  22264095.573    -9077090.945 6  -6934903.382 9
  23498119.354    -1974774.216 5  -1487255.841 9
  23224793.308    12285004.770 5   9623543.861 9
  20398711.089   -17946163.267 7 -13856226.444 9
  20991673.206    -7805892.463 7  -5998483.815 9
 94  3  8 23 31 59.9990000  0  6  2 26 15 19  7 27
  20670448.854   -18064069.044 8 -13951473.858 9
  22260967.519    -9093531.115 6  -6947713.890 9
  23497575.206    -1977635.112 5  -1489485.095 9
  23242535.370    12378236.138 6   9696191.593 9
  20392801.284   -17977219.459 7 -13880426.043 9
  21004928.940    -7736233.637 7  -5944204.242 9
 94  3  8 23 32 29.9990000  0  6  2 26 15 19  7 27
  20672485.339   -18053365.114 7 -13943133.126 9
  22257934.683    -9109466.267 6  -6960130.871 9
  23497128.378    -1979976.760 5  -1491309.720 9
  23260311.104    12471651.484 5   9768982.672 9
  20386983.190   -18007793.890 7 -13904250.246 9
  21018254.894    -7666205.172 7  -5889636.639 9
 94  3  8 23 32 59.9990000  0  6  2 26 15 19  7 27
  20674552.042   -18042504.514 8 -13934670.312 9
  22255001.261    -9124887.608 6  -6972147.491 9
  23496782.698    -1981798.138 5  -1492728.969 9
  23278120.065    12565238.652 5   9841907.654 9
  20381255.112   -18037895.128 7 -13927705.727 9
  21031653.276    -7595795.071 7  -5834771.667 9
 94  3  8 23 33 29.9990000  0  6  2 26 15 19  7 27
  20676648.425   -18031488.684 8 -13926086.532 9
  22252167.058    -9139778.977 6  -6983751.150 9
  23496535.800    -1983093.849 5  -1493738.615 9
  23295961.011    12658993.610 5   9914963.363 9
  20375616.550   -18067527.748 7 -13950796.051 9
  21045125.136    -7525001.623 7  -5779607.958 9
 94  3  8 23 33 59.9990000  0  6  2 26 15 19  7 27
  20678773.144   -18020323.519 8 -13917386.396 9
  22249434.644    -9154137.420 6  -6994939.526 9
  23496389.690    -1983863.738 5  -1494338.500 9
  23313837.003    12752930.653 5   9988160.984 9
  20370064.058   -18096705.450 7 -13973531.900 9
  21058673.339    -7453807.522 7  -5724132.072 9
 94  3  8 23 34 29.9990000  0  6  2 26 15 19  7 27
  20680927.151   -18009001.603 7 -13908564.128 9
  22246803.097    -9167964.185 6  -7005713.622 9
  23496343.628    -1984103.718 5  -1494525.467 9
  23331752.011    12847070.075 6  10061516.293 9
  20364597.487   -18125430.227 7 -13995914.811 9
  21072300.151    -7382195.516 7  -5668330.539 9
 94  3  8 23 34 59.9990000  0  6  2 26 15 19  7 27
  20683114.167   -17997507.474 7 -13899607.661 9
  22244274.519    -9181255.064 6  -7016070.133 9
  23496399.167    -1983811.041 5  -1494297.389 9
  23349704.683    12941418.301 5  10135034.270 9
  20359221.120   -18153683.373 7 -14017930.226 9
  21086005.956    -7310172.306 7  -5612208.584 9
 94  3  8 23 35 29.9990000  0  6  2 26 15 19  7 27
  20685331.792   -17985854.460 7 -13890527.384 9
  22241845.276    -9194016.889 6  -7026014.398 9
  23496554.073    -1982993.336 5  -1493660.210 9
  23367699.636    13035979.774 5  10208718.460 9
  20353935.839   -18181458.264 7 -14039572.971 9
  21099784.081    -7237766.628 7  -5555788.606 9
 94  3  8 23 35 59.9990000  0  6  2 26 15 19  7 27
  20687582.097   -17974029.695 7 -13881313.289 9
  22239518.276    -9206246.205 6  -7035543.731 9
  23496810.862    -1981647.418 5  -1492611.434 9
  23385736.440    13130761.520 5  10282574.268 9
  20348742.636   -18208748.066 7 -14060837.722 9
  21113633.737    -7164987.381 7  -5499077.535 9
 94  3  8 23 36 29.9990000  0  6  2 26 15 19  7 27
  20689863.370   -17962041.953 7 -13871972.190 9
  22237290.979    -9217952.784 6  -7044665.733 9
  23497168.104    -1979769.332 5  -1491147.984 9
  23403813.925    13225756.948 5  10356596.581 9
  20343647.331   -18235525.260 7 -14081703.046 9
  21127549.729    -7091859.035 7  -5442094.442 9
 94  3  8 23 36 59.9990000  0  6  2 26 15 19  7 27
  20692172.659   -17949907.194 7 -13862516.529 9
  22235162.354    -9229141.293 6  -7053384.036 9
  23497627.456    -1977359.359 5  -1489270.070 9
  23421929.675    13320959.662 5  10430780.423 9
  20338649.948   -18261786.041 7 -14102165.956 9
  21141526.917    -7018410.421 7  -5384861.785 9
 94  3  8 23 37 29.9990000  0  6  2 26 15 19  7 27
  20694512.581   -17937611.169 7 -13852935.227 9
  22233133.503    -9239798.313 6  -7061688.207 9
  23498190.308    -1974401.081 5  -1486964.908 9
  23440086.550    13416372.257 5  10505127.803 9
  20333749.956   -18287533.817 7 -14122229.135 9
  21155566.667    -6944627.480 7  -5327368.616 9
 94  3  8 23 37 59.9990000  0  6  2 26 15 19  7 27
  20696886.214   -17925138.567 7 -13843216.319 9
  22231206.714    -9249924.618 6  -7069578.815 9
  23498857.886    -1970890.929 5  -1484229.717 9
  23458281.065    13511987.039 5  10579632.732 9
  20328948.042   -18312771.478 8 -14141894.823 9
  21169676.151    -6870484.808 7  -5269595.130 9
 94  3  8 23 38 29.9990000  0  6  2 26 15 19  7 27
  20699290.417   -17912502.394 7 -13833369.957 9
  22229378.065    -9259534.820 6  -7077067.286 9
  23499630.151    -1966834.877 5  -1481069.138 9
  23476514.417    13607800.517 5  10654292.488 9
  20324240.339   -18337507.411 7 -14161169.546 9
  21183853.675    -6795979.548 7  -5211539.116 9
 94  3  8 23 38 59.9990000  0  6  2 26 15 19  7 27
  20701729.112   -17899688.647 7 -13823385.230 9
  22227647.706    -9268627.080 6  -7084152.147 9
  23500505.003    -1962237.297 5  -1477486.603 9
  23494785.003    13703813.602 5  10729107.769 9
  20319623.698   -18361768.802 7 -14180074.497 9
  21198104.511    -6721091.883 7  -5153185.126 9
 94  3  8 23 39 29.9990000  0  6  2 26 15 19  7 27
  20704203.753   -17886683.817 7 -13813251.593 9
  22226018.089    -9277193.197 6  -7090827.031 9
  23501482.612    -1957098.631 5  -1473482.445 9
  23513092.878    13800025.329 5  10804077.833 9
  20315096.792   -18385559.034 7 -14198612.313 9
  21212435.362    -6645783.280 7  -5094503.126 9
 94  3  8 23 39 59.9990000  0  6  2 26 15 19  7 27
  20706716.292   -17873482.345 8 -13802964.740 9
  22224487.870    -9285235.368 6  -7097093.651 9
  23502563.542    -1951418.306 5  -1469056.187 9
  23531442.019    13896446.409 5  10879211.036 9
  20310659.526   -18408875.083 7 -14216780.641 9
  21226847.745    -6570043.522 7  -5035485.174 9
 94  3  8 23 40 29.9990000  0  6  2 26 15 19  7 27
  20709262.612   -17860099.954 7 -13792536.904 9
  22223055.792    -9292760.386 6  -7102957.287 9
  23503747.159    -1945198.513 5  -1464209.582 9
  23549828.831    13993069.435 5  10954501.618 9
  20306310.808   -18431728.544 8 -14234588.511 9
  21241338.050    -6493897.512 7  -4976150.661 9
 94  3  8 23 40 59.9990000  0  6  2 26 15 19  7 27
  20711842.948   -17846540.162 8 -13781970.835 9
  22221723.995    -9299756.321 6  -7108408.660 9
  23505034.269    -1938437.422 5  -1458941.156 9
  23568251.175    14089875.852 5  11029935.080 9
  20302050.323   -18454117.796 8 -14252034.659 9
  21255902.769    -6417358.668 7  -4916510.035 9
 94  3  8 23 41 29.9990000  0  6  2 26 15 19  7 27
  20714455.878   -17832809.926 8 -13771271.954 9
  22220493.190    -9306223.407 6  -7113447.936 9
  23506424.378    -1931127.395 5  -1453245.047 9
  23586705.526    14186856.694 5  11105504.490 9
  20297880.651   -18476030.188 8 -14269109.228 9
  21270538.151    -6340449.044 7  -4856580.492 9
 94  3  8 23 41 59.9990000  0  6  2 26 15 19  7 27
  20717098.823   -17818918.938 7 -13760447.803 9
  22219360.128    -9312178.906 6  -7118088.572 9
  23507920.651    -1923270.031 5  -1447122.384 9
  23605190.815    14283997.588 5  11181198.589 9
  20293801.644   -18497465.382 8 -14285811.956 9
  21285238.511    -6263199.337 7  -4796385.956 9
 94  3  8 23 42 29.9990000  0  6  2 26 15 19  7 27
  20719770.808   -17804879.886 8 -13749508.286 9
  22218327.081    -9317609.050 6  -7122319.842 9
  23509519.597    -1914863.277 5  -1440571.671 9
  23623704.464    14381285.984 5  11257007.623 9
  20289815.917   -18518409.902 7 -14302132.340 9
  21300001.769    -6185615.485 7  -4735931.039 9
 94  3  8 23 42 59.9990000  0  6  2 26 15 19  7 27
  20722472.198   -17790684.878 8 -13738447.238 9
  22217397.003    -9322495.393 6  -7126127.368 9
  23511224.519    -1905904.459 5  -1433590.753 9
  23642247.120    14478729.810 5  11332937.773 9
  20285924.503   -18538859.248 7 -14318066.878 9
  21314835.081    -6107669.578 7  -4675194.007 9
 94  3  8 23 43 29.9990000  0  6  2 26 15 19  7 27
  20725206.097   -17776316.908 8 -13727251.418 9
  22216570.753    -9326835.571 6  -7129509.315 9
  23513034.487    -1896388.866 5  -1426176.000 9
  23660823.276    14576346.157 5  11409002.365 9
  20282126.995   -18558813.080 7 -14333615.299 9
  21329741.315    -6029336.101 7  -4614154.974 9
 94  3  8 23 43 59.9990000  0  6  2 26 15 19  7 27
  20727974.237   -17761769.885 8 -13715916.072 9
  22215853.222    -9330608.182 6  -7132449.005 9
  23514952.042    -1886313.334 5  -1418324.936 9
  23679436.378    14674158.481 5  11485219.644 9
  20278426.323   -18578261.000 7 -14348769.505 9
  21344726.323    -5950587.351 7  -4552792.352 9
 94  3  8 23 44 29.9990000  0  6  2 26 15 19  7 27
  20730778.245   -17747035.057 8 -13704434.381 9
  22215244.112    -9333807.478 6  -7134941.951 9
  23516976.839    -1875678.092 5  -1410037.727 9
  23698088.745    14772175.366 5  11561596.342 9
  20274820.886   -18597206.183 7 -14363531.963 9
  21359792.620    -5871414.732 7  -4491099.440 9
 94  3  8 23 44 59.9990000  0  6  2 26 15 19  7 27
  20733621.081   -17732094.895 7 -13692792.689 9
  22214739.612    -9336458.531 6  -7137007.690 9
  23519106.542    -1864481.872 5  -1401313.400 9
  23716782.440    14870409.868 5  11638142.598 9
  20271310.542   -18615654.306 7 -14377907.098 9
  21374938.503    -5791822.000 7  -4429079.166 9
 94  3  8 23 45 29.9990000  0  6  2 26 15 19  7 27
  20736503.808   -17716947.460 7 -13680989.487 9
  22214336.433    -9338579.000 6  -7138659.992 9
  23521344.511    -1852724.083 5  -1392151.474 9
  23735514.604    14968850.627 5  11714849.581 9
  20267897.237   -18633592.539 7 -14391884.922 9
  21390158.354    -5711840.166 7  -4366755.691 9
 94  3  8 23 45 59.9990000  0  6  2 26 15 19  7 27
  20739424.565   -17701596.566 7 -13669027.742 9
  22214031.151    -9340179.976 6  -7139907.492 9
  23523689.214    -1840403.661 5  -1382551.127 9
  23754283.831    15067482.040 5  11791705.104 9
  20264580.636   -18651019.744 7 -14405464.536 9
  21405448.050    -5631493.391 7  -4304147.859 9
 94  3  8 23 46 29.9990000  0  6  2 26 15 19  7 27
  20742384.300   -17686044.238 7 -13656909.031 9
  22213824.237    -9341271.798 6  -7140758.252 9
  23526140.683    -1827516.444 5  -1372509.105 9
  23773086.183    15166290.251 5  11868698.428 9
  20261361.034   -18667940.880 7 -14418649.814 9
  21420804.503    -5550796.683 7  -4241267.339 9
 94  3  8 23 46 59.9990000  0  6  2 26 15 19  7 27
  20745376.995   -17670316.390 7 -13644653.556 9
  22213713.839    -9341850.307 6  -7141209.031 9
  23528700.464    -1814067.773 5  -1362029.604 9
  23791921.019    15265268.916 5  11945824.540 9
  20258236.456   -18684360.636 7 -14431444.405 9
  21436224.128    -5469765.535 7  -4178126.217 9
 94  3  8 23 47 29.9990000  0  6  2 26 15 19  7 27
  20748401.315   -17654423.312 7 -13632269.325 9
  22213706.808    -9341884.584 6  -7141235.722 9
  23531366.526    -1800052.543 5  -1351108.622 9
  23810787.026    15364413.672 5  12023080.082 9
  20255207.229   -18700279.202 7 -14443848.455 9
  21451709.714    -5388389.100 7  -4114716.049 9
 94  3  8 23 47 59.9990000  0  6  2 26 15 19  7 27
  20751456.808   -17638367.166 7 -13619758.035 9
  22213807.167    -9341359.233 6  -7140826.352 9
  23534142.487    -1785468.971 5  -1339744.783 9
  23829690.151    15463746.559 5  12100482.227 9
  20252272.769   -18715698.554 7 -14455863.502 9
  21467264.776    -5306647.503 7  -4051021.328 9
 94  3  8 23 48 29.9990000  0  6  2 26 15 19  7 27
  20754540.167   -17622164.861 7 -13607132.860 9
  22214014.979    -9340267.541 6  -7139975.660 9
  23537024.644    -1770324.087 5  -1327943.548 9
  23848631.565    15563284.162 5  12178043.900 9
  20249431.979   -18730626.545 7 -14467495.677 9
  21482890.925    -5224531.567 7  -3987034.917 9
 94  3  8 23 48 59.9990000  0  6  2 26 15 19  7 27
  20757653.198   -17605801.794 7 -13594382.412 9
  22214331.698    -9338603.747 6  -7138679.193 9
  23540014.058    -1754615.192 5  -1315702.821 9
  23867612.940    15663031.499 5  12255768.969 9
  20246686.519   -18745054.598 7 -14478738.295 9
  21498589.401    -5142035.088 7  -3922751.985 9
 94  3  8 23 49 29.9990000  0  6  2 26 15 19  7 27
  20760799.722   -17589268.990 7 -13581499.709 9
  22214753.729    -9336382.459 6  -7136948.302 9
  23543109.198    -1738348.247 5  -1303027.229 8
  23886633.464    15762981.951 5  12333652.333 9
  20244034.237   -18758991.274 7 -14489598.018 9
  21514360.097    -5059160.950 7  -3858174.770 9
 94  3  8 23 49 59.9990000  0  6  2 26 15 19  7 27
  20763979.339   -17572559.720 7 -13568479.486 9
  22215279.331    -9333621.091 6  -7134796.566 9
  23546309.980    -1721524.560 5  -1289917.820 9
  23905693.534    15863141.535 5  12411698.647 9
  20241475.542   -18772438.027 7 -14500075.977 9
  21530200.269    -4975918.775 7  -3793310.775 9
 94  3  8 23 50 29.9990000  0  6  2 26 15 19  7 27
  20767193.659   -17555671.072 8 -13555319.486 9
  22215906.245    -9330330.114 6  -7132232.156 9
  23549618.464    -1704145.808 5  -1276375.977 9
  23924788.042    15963485.426 5  12489888.566 9
  20239009.558   -18785395.538 7 -14510172.714 9
  21546110.269    -4892313.345 7  -3728163.726 9
 94  3  8 23 50 59.9990000  0  6  2 26 15 19  7 27
  20770442.159   -17538599.495 8 -13542016.943 9
  22216630.659    -9326521.928 6  -7129264.725 9
  23553029.870    -1686214.138 5  -1262403.204 9
  23943912.003    16063982.819 5  12568198.106 9
  20236638.940   -18797854.761 7 -14519881.172 9
  21562085.823    -4808360.419 7  -3662745.891 9
 94  3  8 23 51 29.9990000  0  6  2 26 15 19  7 27
  20773723.331   -17521356.921 8 -13528581.153 9
  22217454.042    -9322198.192 6  -7125895.554 9
  23556547.245    -1667733.415 5  -1248002.624 9
  23963064.019    16164626.936 5  12646621.980 9
  20234362.245   -18809818.382 7 -14529203.447 9
  21578127.112    -4724061.845 7  -3597058.732 9
 94  3  8 23 51 59.9990000  0  6  2 26 15 19  7 27
  20777035.948   -17503947.425 7 -13515015.288 9
  22218375.753    -9317350.721 6  -7122118.278 9
  23560168.300    -1648702.079 5  -1233173.002 9
  23982241.729    16265404.457 5  12725149.826 9
  20232181.581   -18821277.996 7 -14538132.989 9
  21594235.448    -4639412.414 7  -3531098.170 9
 94  3  8 23 52 29.9990000  0  6  2 26 15 19  7 27
  20780378.847   -17486380.749 8 -13501326.946 9
  22219398.472    -9311973.017 6  -7117927.845 9
  23563893.862    -1629124.609 5  -1217917.807 9
  24001440.831    16366299.206 5  12803769.009 9
  20230096.651   -18832234.224 7 -14546670.282 9
  21610409.347    -4554418.149 7  -3464868.910 9
 94  3  8 23 52 59.9990000  0  6  2 26 15 19  7 27
  20783750.792   -17468658.640 7 -13487517.489 9
  22220525.433    -9306056.396 6  -7113317.464 9
  23567723.136    -1609000.473 5  -1202236.651 9
  24020665.573    16467327.994 5  12882492.629 9
  20228105.534   -18842696.290 7 -14554822.511 9
  21626647.495    -4469086.072 7  -3398376.422 9
 94  3  8 23 53 29.9990000  0  6  2 26 15 19  7 27
  20787153.761   -17450776.413 7 -13473583.269 9
  22221754.620    -9299596.200 6  -7108283.519 9
  23571656.659    -1588329.539 5  -1186129.392 9
  24039919.847    16568505.593 5  12961332.203 9
  20226206.284   -18852678.309 7 -14562600.681 9
  21642950.448    -4383413.155 7  -3331618.340 9
 94  3  8 23 53 59.9990000  0  6  2 26 15 19  7 27
  20790587.878   -17432732.394 8 -13459522.970 9
  22223083.417    -9292611.056 6  -7102840.524 9
  23575693.214    -1567114.442 5  -1169598.156 9
  24059201.362    16669831.805 5  13040287.552 9
  20224396.058   -18862190.953 7 -14570013.104 9
  21659316.737    -4297408.564 7  -3264601.808 9
 94  3  8 23 54 29.9990000  0  6  2 26 15 19  7 27
  20794053.487   -17414520.174 8 -13445331.616 9
  22224508.464    -9285123.571 6  -7097006.105 9
  23579833.753    -1545359.021 5  -1152645.837 9
  24078513.206    16771315.748 5  13119365.850 9
  20222673.081   -18871245.988 7 -14577068.954 9
  21675741.940    -4211093.910 6  -3197343.683 9
 94  3  8 23 54 59.9990000  0  5  2 26 15  7 27
  20797553.776   -17396126.544 8 -13430998.906 9
  22226026.784    -9277146.227 6  -7090789.970 9
  23584076.042    -1523060.843 5  -1135270.611 9
  20221037.573   -18879839.047 7 -14583764.817 9
  21692226.386    -4124467.036 6  -3129842.254 9
 94  3  8 23 55 29.9990000  0  5  2 26 15  7 27
  20801088.651   -17377550.855 8 -13416524.333 9
  22227636.620    -9268685.942 6  -7084197.513 9
  23588423.331    -1500219.892 5  -1117472.454 9
  20219490.995   -18887966.656 7 -14590097.992 9
  21708770.847    -4037527.296 7  -3062097.038 9
 94  3  8 23 55 59.9990000  0  5  2 26 15  7 27
  20804657.503   -17358796.737 8 -13401910.726 9
  22229337.651    -9259743.416 6  -7077229.301 9
  23592872.261    -1476837.408 5  -1099252.311 9
  20218034.519   -18895620.569 7 -14596062.049 9
  21725374.284    -3950275.365 7  -2994108.556 9
 94  3  8 23 56 29.9990000  0  5  2 26 15  7 27
  20808258.511   -17339870.842 8 -13387163.262 9
  22231134.972    -9250301.647 6  -7069872.056 9
  23597424.870    -1452914.889 5  -1080611.377 9
  20216670.261   -18902789.599 7 -14601648.273 9
  21742037.472    -3862708.919 6  -2925875.002 9
 94  3  8 23 56 59.9990000  0  5  2 26 15  7 27
  20811889.323   -17320791.772 8 -13372296.444 9
  22233030.542    -9240340.374 6  -7062110.011 9
  23602080.823    -1428449.721 5  -1061547.579 9
  20215399.253   -18909469.348 7 -14606853.237 9
  21758766.144    -3774798.649 6  -2857373.510 9
 94  3  8 23 57 29.9990000  0  5  2 26 15  7 27
  20815544.550   -17301581.619 8 -13357327.471 9
  22235025.769    -9229855.633 6  -7053940.071 9
  23606838.729    -1403444.083 5  -1042062.626 9
  20214219.847   -18915666.442 7 -14611682.102 9
  21775562.565    -3686530.831 6  -2788593.419 9
 94  3  8 23 57 59.9990000  0  5  2 26 15  7 27
  20819224.003   -17282248.133 8 -13342262.396 9
  22237118.690    -9218854.705 6  -7045367.896 9
  23611700.417    -1377899.405 5  -1022157.664 9
  20213132.378   -18921381.763 8 -14616135.566 9
  21792430.714    -3597893.618 6  -2719525.496 9
 94  3  8 23 58 29.9990000  0  5  2 26 15  7 27
  20822925.058   -17262799.167 8 -13327107.340 9
  22239310.269    -9207339.104 6  -7036394.691 9
  23616663.761    -1351818.464 5  -1001834.822 9
  20212133.776   -18926628.899 7 -14620224.211 9
  21809367.628    -3508887.611 6  -2650170.189 9
 94  3  8 23 58 59.9990000  0  5  2 26 15  7 27
  20826650.386   -17243221.161 8 -13311851.733 9
  22241600.198    -9195307.145 6  -7027019.118 9
  23621729.308    -1325194.817 5   -981089.111 9
  20211221.894   -18931421.030 7 -14623958.307 9
  21826377.183    -3419500.574 6  -2580517.969 9
 94  3  8 23 59 29.9990000  0  5  2 26 15  7 27
  20830404.565   -17223493.622 8 -13296479.614 9
  22243985.925    -9182767.280 6  -7017247.781 9
  23626898.339    -1298031.974 5   -959923.243 9
  20210394.347   -18935769.249 7 -14627346.494 9
  21843454.636    -3329760.732 6  -2510590.848 9
 94  3  8 23 59 59.9990000  0  5  2 26 15  7 27
  20834190.464   -17203597.152 8 -13280975.862 9
  22246469.440    -9169718.936 6  -7007080.228 9
  23632168.511    -1270333.898 5   -938340.298 9
  20209650.370   -18939678.297 8 -14630392.481 9
  21860591.104    -3239704.602 6  -2440417.255 9
 94  3  9  0  0 29.9990000  0  5  2 26 15  7 27
  20838012.706   -17183511.692 8 -13265324.841 9
  22249050.065    -9156153.758 6  -6996509.942 9
  23637541.511    -1242096.282 5   -916336.940 9
  20208989.753   -18943151.271 8 -14633098.667 9
  21877787.183    -3149342.963 6  -2370005.612 9
 94  3  9  0  0 59.9990000  0  5  2 26 15  7 27
  20841872.714   -17163226.706 8 -13249518.350 9
  22251727.745    -9142085.267 6  -6985547.462 9
  23643018.464    -1213320.171 5   -893913.986 9
  20208413.011   -18946181.183 8 -14635459.609 9
  21895039.589    -3058679.903 6  -2299359.100 9
 94  3  9  0  1 29.9990000  0  5  2 26 15  7 27
  20845768.972   -17142753.472 8 -13233565.170 9
  22254499.386    -9127518.964 6  -6974197.077 9
  23648594.964    -1184008.265 5   -871073.515 9
  20207924.550   -18948748.253 8 -14637459.895 9
  21912345.808    -2967734.132 6  -2228492.283 9
 94  3  9  0  1 59.9990000  0  5  2 26 15  7 27
  20849698.690   -17122099.124 8 -13217470.860 9
  22257365.050    -9112456.760 6  -6962460.265 9
  23654276.245    -1154156.839 5   -847812.629 9
  20207527.542   -18950833.639 8 -14639084.837 9
  21929707.925    -2876493.667 6  -2157395.836 9
 94  3  9  0  2 29.9990000  0  5  2 26 15  7 27
  20853660.128   -17101283.105 8 -13201250.573 9
  22260325.440    -9096901.675 6  -6950339.409 9
  23660059.222    -1123769.364 5   -824134.046 9
  20207221.659   -18952442.753 8 -14640338.654 9
  21947129.917    -2784939.131 6  -2086054.661 9
 94  3  9  0  2 59.9990000  0  5  2 26 15  7 27
  20857650.394   -17080315.236 8 -13184911.962 9
  22263381.440    -9080844.741 6  -6937827.503 9
  23665944.011    -1092843.954 5   -800036.285 9
  20207007.495   -18953566.726 8 -14641214.439 9
  21964610.964    -2693080.047 6  -2014476.179 9
 94  3  9  0  3 29.9990000  0  5  2 26 15  7 27
  20861668.136   -17059200.527 8 -13168458.927 9
  22266533.167    -9064280.049 6  -6924919.921 9
  23671930.972    -1061382.510 5   -775520.875 9
  20206883.112   -18954220.031 8 -14641723.467 9
  21982146.503    -2600929.622 6  -1942670.673 9
 94  3  9  0  3 59.9990000  0  5  2 26 15  7 27
  20865716.854   -17037924.481 8 -13151880.181 9
  22269780.284    -9047214.962 6  -6911622.441 9
  23678019.183    -1029387.594 5   -750589.725 9
  20206844.823   -18954420.750 8 -14641879.837 9
  21999737.831    -2508486.723 6  -1870637.268 9
 94  3  9  0  4 29.9990000  0  5  2 26 15  7 27
  20869796.987   -17016481.228 8 -13135171.145 9
  22273124.276    -9029643.434 6  -6897930.328 9
  23684208.909     -996855.692 5   -725240.161 9
  20206892.847   -18954167.956 8 -14641682.814 9
  22017385.815    -2415745.114 6  -1798371.092 9
 94  3  9  0  4 59.9990000  0  5  2 26 15  7 27
  20873911.136   -16994863.473 8 -13118326.128 9
  22276563.019    -9011572.790 6  -6883849.297 9
  23690502.870     -963786.400 5   -699471.863 9
  20207030.308   -18953447.587 8 -14641121.450 9
  22035090.550    -2322704.766 6  -1725872.144 9
 94  3  9  0  5 29.9990000  0  5  2 26 15  7 27
  20878058.261   -16973072.271 8 -13101345.964 9
  22280093.745    -8993018.577 6  -6869391.444 9
  23696896.847     -930185.259 5   -673289.133 9
  20207257.667   -18952251.098 8 -14640189.087 9
  22052856.550    -2229345.597 6  -1653124.771 9
 94  3  9  0  5 59.9990000  0  5  2 26 15  7 27
  20882234.675   -16951121.952 8 -13084241.810 9
  22283717.019    -8973980.055 6  -6854556.205 9
  23703392.276     -896051.303 5   -646691.235 9
  20207578.503   -18950565.154 8 -14638875.335 9
  22070685.167    -2135654.805 6  -1580118.982 9
 94  3  9  0  6 29.9990000  0  5  2 26 15  7 27
  20886437.331   -16929038.890 8 -13067034.222 9
  22287431.901    -8954454.290 6  -6839341.309 9
  23709988.370     -861388.710 5   -619681.389 9
  20207992.651   -18948388.506 8 -14637179.215 9
  22088576.081    -2041638.926 6  -1506859.882 9
 94  3  9  0  6 59.9990000  0  5  2 26 15  7 27
  20890664.081   -16906827.109 8 -13049726.328 9
  22291240.667    -8934440.869 6  -6823746.414 9
  23716685.073     -826196.947 5   -592259.227 9
  20208498.847   -18945728.611 8 -14635106.540 9
  22106526.011    -1947311.827 6  -1433358.265 9
 94  3  9  0  7 29.9990000  0  5  2 26 15  7 27
  20894914.284   -16884491.960 8 -13032322.311 9
  22295141.894    -8913939.972 6  -6807771.662 9
  23723481.019     -790482.509 5   -564429.753 9
  20209091.651   -18942613.751 8 -14632679.347 9
  22124530.433    -1852697.982 6  -1359633.228 9
 94  3  9  0  7 59.9990000  0  5  2 26 15  7 27
  20899189.230   -16862026.429 8 -13014816.691 9
  22299139.026    -8892934.764 6  -6791403.947 9
  23730376.761     -754243.852 5   -536191.801 9
  20209767.081   -18939062.996 8 -14629912.497 9
  22142587.222    -1757809.916 6  -1285694.498 9
 94  3  9  0  8 29.9990000  0  5  2 26 15  7 27
  20903492.800   -16839409.818 8 -12997193.339 9
  22303232.519    -8871425.298 6  -6774643.297 9
  23737372.089     -717484.656 5   -507548.263 9
  20210523.479   -18935089.713 8 -14626816.405 9
  22160695.979    -1662646.109 6  -1211540.901 9
 94  3  9  0  8 59.9990000  0  5  2 26 15  7 27
  20907829.964   -16816618.498 8 -12979433.854 9
  22307421.714    -8849407.537 6  -6757486.581 9
  23744465.183     -680207.017 5   -478500.708 9
  20211359.737   -18930695.101 8 -14623392.005 9
  22178857.229    -1567207.605 6  -1137173.263 9
 94  3  9  0  9 29.9990000  0  5  2 26 15  7 27
  20912202.526   -16793639.827 8 -12961528.376 9
  22311709.370    -8826875.263 6  -6739928.943 9
  23751657.925     -642407.670 5   -449046.654 8
  20212276.651   -18925875.642 8 -14619636.563 9
  22197072.526    -1471483.380 6  -1062582.988 9
 94  3  9  0  9 59.9990000  0  5  2 26 15  7 27
  20916609.636   -16770481.218 8 -12943482.676 9
  22316093.136    -8803840.082 6  -6721979.695 9
  23758950.136     -604088.247 5   -419187.336 9
  20213277.698   -18920616.015 8 -14615538.125 9
  22215345.745    -1375460.329 6   -987759.856 9
 94  3  9  0 10 29.9990000  0  5  2 26 15  7 27
  20921050.331   -16747144.511 8 -12925298.236 9
  22320568.675    -8780322.493 6  -6703653.997 9
  23766342.456     -565247.349 5   -388921.672 9
  20214364.784   -18914901.912 8 -14611085.553 9
  22233673.573    -1279145.748 6   -912709.551 9
 94  3  9  0 10 59.9990000  0  5  2 26 15  7 27
  20925522.769   -16723641.916 8 -12906984.511 9
  22325132.581    -8756335.737 6  -6684963.001 9
  23773832.136     -525883.839 5   -358248.800 9
  20215540.206   -18908725.037 8 -14606272.387 9
  22252055.995    -1182548.973 6   -837439.367 9
 94  3  9  0 11 29.9990000  0  5  2 26 15  7 27
  20930023.354   -16699990.979 8 -12888555.202 9
  22329781.636    -8731905.015 6  -6665926.063 9
  23781422.151     -486001.013 5   -327171.242 9
  20216802.386   -18902092.183 8 -14601103.909 9
  22270491.144    -1085670.621 6   -761949.762 9
 94  3  9  0 11 59.9990000  0  5  2 26 15  7 27
  20934553.628   -16676185.490 8 -12870005.460 9
  22334515.792    -8707027.861 6  -6646541.252 9
  23789109.151     -445599.129 5   -295689.254 9
  20218151.026   -18895004.916 8 -14595581.341 9
  22288979.870     -988509.933 6   -686240.175 9
 94  3  9  0 12 29.9990000  0  6  2 26 15  9  7 27
  20939115.347   -16652211.028 8 -12851324.048 9
  22339336.925    -8681692.983 6  -6626799.763 9
  23796897.425     -404675.002 5   -263800.300 9
  24037347.144      -15936.73615
  20219585.214   -18887469.619 8 -14589709.656 9
  22307520.183     -891083.061 6   -610323.150 9
 94  3  9  0 12 59.9990000  0  6  2 26 15  9  7 27
  20943708.894   -16628072.559 8 -12832514.839 9
  22344246.159    -8655892.960 6  -6606695.828 9
  23804784.167     -363232.480 5   -231507.415 9
  24019156.409     -111532.040 5
  20221103.464   -18879491.350 8 -14583492.800 9
  22326109.745     -793393.265 6   -534201.257 9
 94  3  9  0 13 29.9990000  0  6  2 26 15  9  7 27
  20948334.745   -16603762.451 8 -12813571.881 9
  22349247.573    -8629611.282 6  -6586216.581 9
  23812769.706     -321270.360 5   -198809.658 9
  24000979.862     -207048.856 5     -4958.01119
  20222705.058   -18871073.711 8 -14576933.575 9
  22344748.925     -695442.410 6   -457875.937 9
 94  3  9  0 13 59.9990000  0  6  2 26 15  9  7 27
  20952992.347   -16579288.676 8 -12794501.394 9
  22354342.323    -8602839.816 6  -6565355.680 9
  23820853.604     -278788.521 5   -165706.912 9
  23982817.550     -302494.265 5    -79330.949 9
  20224391.175   -18862213.194 8 -14570029.257 9
  22363436.808     -597236.915 6   -381352.199 9
 94  3  9  0 14 29.9990000  0  6  2 26 15  9  7 27
  20957677.722   -16554667.116 8 -12775315.747 9
  22359526.370    -8575593.525 6  -6544124.776 9
  23829035.315     -235785.934 5   -132198.380 9
  23964666.034     -397882.685 5   -153659.502 9
  20226163.050   -18852901.519 8 -14562773.385 9
  22382172.854     -498776.901 6   -304630.132 9
 94  3  9  0 14 59.9990000  0  6  2 26 15  9  7 27
  20962388.308   -16529909.854 8 -12756024.358 9
  22364801.104    -8547877.280 6  -6522527.692 9
  23837317.878     -192266.784 5    -98287.341 9
  23946521.128     -493233.041 5   -227958.417 9
  20228020.511   -18843140.973 8 -14555167.744 9
  22400962.651     -400039.373 6   -227691.829 9
 94  3  9  0 15 29.9990000  0  6  2 26 15  9  7 27
  20967126.745   -16505011.722 8 -12736623.199 9
  22370164.058    -8519695.630 6  -6500567.943 9
  23845696.222     -148232.164 5    -63974.634 9
  23928380.995     -588556.193 5   -302236.079 9
  20229962.175   -18832936.882 8 -14547216.488 9
  22419806.792     -301012.241 6   -150527.858 9
 94  3  9  0 15 59.9990000  0  6  2 26 15  9  7 27
  20971891.956   -16479970.480 8 -12717110.528 9
  22375615.183    -8491048.399 6  -6478245.406 9
  23854175.386     -103679.805 5    -29258.476 9
  23910247.636     -683852.263 5   -376492.698 9
  20231987.534   -18822292.846 8 -14538922.411 9
  22438708.128     -201682.668 6    -73128.220 9
 94  3  9  0 16 29.9990000  0  6  2 26 15  9  7 27
  20976686.089   -16454777.814 8 -12697479.860 9
  22381153.956    -8461942.089 6  -6455565.143 9
  23862749.183      -58619.895 5      5853.137 9
  23892120.206     -779109.632 5   -450719.142 9
  20234093.722   -18811224.756 8 -14530297.907 9
  22457665.870     -102062.353 6      4497.972 9
 94  3  9  0 16 59.9990000  0  6  2 26 15  9  7 27
  20981512.050   -16429417.009 8 -12677718.186 9
  22386781.276    -8432368.388 6  -6432520.689 9
  23871420.917      -13050.664 5     41361.663 9
  23874003.901     -874307.239 5   -524899.015 9
  20236279.722   -18799737.226 8 -14521346.566 9
  22476677.964       -2153.518 6     82348.967 9
 94  3  9  0 17 29.9990000  0  6  2 26 15  9  7 27
  20986371.362   -16403880.563 8 -12657819.641 9
  22392498.167    -8402328.200 6  -6409112.740 9
  23880190.230       33028.831 5     77267.772 9
  23855903.479     -969429.666 5   -599020.315 9
  20238545.667   -18787830.125 8 -14512068.283 9
  22495740.800       98024.269 6    160409.554 9
 94  3  9  0 17 59.9990000  0  7  2 26 15  9  7 27  4
  20991261.065   -16378182.691 8 -12637795.310 9
  22398302.644    -8371825.429 6  -6385344.328 9
  23889053.644       79608.018 5    113563.267 9
  23837818.050    -1064465.138 5   -673073.863 9
  20240891.026   -18775503.695 7 -14502463.256 9
  22514850.261      198444.862 6    238659.327 9
  23967483.597      -96491.741 5
 94  3  9  0 18 29.9990000  0  7  2 26 15  9  7 27  4
  20996184.933   -16352307.332 8 -12617632.689 9
  22404195.276    -8340860.181 6  -6361215.549 9
  23898013.862      126694.596 5    150254.111 9
  23819750.878    -1159404.374 5   -747052.397 9
  20243322.948   -18762723.789 8 -14492504.871 9
  22534006.065      299110.535 6    317100.078 9
  23948481.401     -196347.506 5    -25936.34919
 94  3  9  0 18 59.9990000  0  6  2 26  9  7 27  4
  21001141.269   -16326261.685 8 -12597337.367 9
  22410175.394    -8309434.724 6  -6336728.166 9
  23801699.151    -1254269.041 5   -820972.814 9
  20245842.706   -18749481.308 7 -14482186.036 9
  22553209.722      400027.225 6    395736.422 9
  23929473.120     -296235.705 5   -103771.059 9
 94  3  9  0 19 29.9990000  0  6  2 26  9  7 27  4
  21006128.589   -16300053.911 8 -12576915.712 9
  22416245.433    -8277537.148 6  -6311872.892 9
  23783659.362    -1349073.592 5   -894846.434 9
  20248451.315   -18735773.960 7 -14471504.973 9
  22572461.433      501194.064 6    474567.692 9
  23910461.167     -396141.738 5   -181619.640 9
 94  3  9  0 19 59.9990000  0  6  2 26  9  7 27  4
  21011148.394   -16273674.749 8 -12556360.513 9
  22422405.573    -8245163.731 6  -6286646.837 9
  23765630.073    -1443817.487 5   -968672.753 9
  20251148.386   -18721603.685 8 -14460463.185 9
  22591762.995      602626.203 6    553605.681 9
  23891451.839     -496037.858 5   -259460.514 9
 94  3  9  0 20 29.9990000  0  6  2 26  9  7 27  4
  21016202.042   -16247117.772 8 -12535666.758 9
  22428654.300    -8212323.514 6  -6261057.047 9
  23747609.144    -1538513.712 5  -1042461.925 9
  20253928.151   -18706993.516 8 -14449078.617 9
  22611116.831      704329.268 6    632854.793 9
  23872447.253     -595904.928 5   -337278.780 9
 94  3  9  0 20 59.9990000  0  6  2 26  9  7 27  4
  21021287.651   -16220391.580 8 -12514841.147 9
  22434994.425    -8179007.684 6  -6235096.647 9
  23729598.823    -1633158.390 5  -1116210.941 9
  20256786.784   -18691972.934 8 -14437374.256 9
  22630520.159      806294.668 6    712308.313 9
  23853443.675     -695765.334 5   -415091.844 9
 94  3  9  0 21 29.9990000  0  6  2 26  9  7 27  4
  21026405.300   -16193499.067 8 -12493885.933 9
  22441423.534    -8145222.001 6  -6208770.129 9
  23711601.995    -1727730.645 5  -1189903.509 9
  20259720.065   -18676556.987 7 -14425361.818 9
  22649972.495      908515.774 6    791961.083 9
  23834439.479     -795629.773 5   -492908.057 9
 94  3  9  0 21 59.9990000  0  6  2 26  9  7 27  4
  21031555.034   -16166437.418 7 -12472798.928 9
  22447937.237    -8110991.579 6  -6182097.055 9
  23693621.659    -1822219.177 5  -1263530.857 9
  20262728.558   -18660746.614 7 -14413042.030 9
  22669469.917     1010975.443 6    871799.762 9
  23815434.261     -895509.203 5   -570736.003 9
 94  3  9  0 22 29.9990000  0  6  2 26  9  7 27  4
  21036734.636   -16139219.489 7 -12451590.147 9
  22454536.269    -8076315.143 6  -6155076.446 9
  23675655.667    -1916627.547 5  -1337095.733 9
  20265814.651   -18644530.435 7 -14400406.031 9
  22689009.808     1113659.014 6    951812.902 9
  23796425.183     -995401.871 5   -648574.249 9
 94  3  9  0 22 59.9990000  0  6  2 26  9  7 27  4
  21041940.831   -16111858.439 7 -12430269.847 9
  22461219.292    -8041194.488 6  -6127709.702 9
  23657707.503    -2010948.621 5  -1410592.599 9
  20268979.901   -18627896.609 7 -14387444.595 9
  22708591.854     1216565.148 6   1031999.478 9
  23777412.737    -1095312.224 5   -726426.241 9
 94  3  9  0 23 29.9990000  0  6  2 26  9  7 27  4
  21047177.722   -16084338.862 7 -12408826.015 9
  22467985.378    -8005637.878 6  -6100003.231 9
  23639777.659    -2105170.505 5  -1484012.153 9
  20272227.589   -18610829.663 7 -14374145.659 9
  22728218.917     1319705.018 6   1112368.174 9
  23758401.058    -1195214.688 5   -804272.106 9
 94  3  9  0 23 59.9990000  0  6  2 26  9  7 27  4
  21052446.628   -16056651.937 7 -12387251.785 9
  22474834.159    -7969646.728 6  -6071958.169 9
  23621866.698    -2199293.328 5  -1557354.550 9
  20275557.292   -18593332.779 7 -14360511.712 9
  22747890.948     1423077.672 6   1192918.251 9
  23739394.964    -1295092.742 5   -882098.951 9
 94  3  9  0 24 29.9990000  0  6  2 26  9  7 27  4
  21057747.550   -16028793.528 7 -12365543.928 9
  22481767.831    -7933209.750 6  -6043565.716 9
  23603977.276    -2293304.150 5  -1630609.668 9
  20278967.003   -18575412.390 7 -14346547.761 9
  22767609.995     1526705.447 6   1273667.126 9
  23720393.542    -1394944.137 5   -959905.019 9
 94  3  9  0 24 59.9990000  0  6  2 26  9  7 27  4
  21063086.761   -16000737.780 7 -12343682.307 9
  22488784.667    -7896336.038 6  -6014832.945 9
  23586112.612    -2387182.974 5  -1703761.919 9
  20282457.440   -18557070.341 7 -14332255.241 9
  22787379.901     1630596.894 6   1354621.474 9
  23701396.159    -1494774.882 5  -1037694.983 9
 94  3  9  0 25 29.9990000  0  6  2 26  9  7 27  4
  21068466.378   -15972467.856 8 -12321653.790 9
  22495884.323    -7859024.543 6  -5985759.051 9
  23568273.261    -2480924.422 5  -1776807.149 9
  20286029.378   -18538300.894 7 -14317629.684 9
  22807200.073     1734752.499 6   1435781.661 9
  23682404.847    -1594575.592 5  -1115461.554 9
 94  3  9  0 25 59.9990000  0  6  2 26  9  7 27  4
  21073882.503   -15944005.192 7 -12299475.094 9
  22503067.831    -7821275.690 6  -5956344.356 9
  23550459.714    -2574541.328 5  -1849755.324 9
  20289680.651   -18519113.383 7 -14302678.365 9
  22827067.948     1839157.513 6   1517136.182 9
  23663418.519    -1694350.126 5  -1193207.710 9
 94  3  9  0 26 29.9990000  0  6  2 26  9  7 27  4
  21079336.534   -15915344.751 8 -12277142.284 9
  22510337.573    -7783075.803 6  -5926578.217 9
  23532667.026    -2668042.402 5  -1922613.235 9
  20293414.237   -18499492.638 7 -14287389.455 9
  22846984.315     1943816.152 6   1598688.321 9
  23644436.815    -1794099.187 5  -1270934.019 9
 94  3  9  0 26 59.9990000  0  6  2 26  9  7 27  4
  21084826.604   -15886495.767 8 -12254662.558 9
  22517692.511    -7744424.602 6  -5896460.399 9
  23514894.065    -2761442.090 5  -1995392.163 9
  20297231.573   -18479430.949 7 -14271756.959 9
  22866945.815     2048715.790 6   1680428.260 9
  23625461.987    -1893810.580 5  -1348630.995 9
 94  3  9  0 27 29.9990000  0  6  2 26  9  7 27  4
  21090347.855   -15857477.504 7 -12232050.921 9
  22525134.909    -7705312.526 6  -5865983.461 9
  23497137.542    -2854748.630 5  -2068098.509 9
  20301132.558   -18458932.001 7 -14255783.741 9
  22886952.644     2153855.191 6   1762355.030 9
  23606498.800    -1993460.963 5  -1426280.395 9
 94  3  9  0 27 59.9990000  0  6  2 26  9  7 27  4
  21095900.964   -15828295.848 8 -12209311.966 9
  22532666.628    -7665736.327 6  -5835144.867 9
  23479400.120    -2947961.326 5  -2140731.721 9
  20305113.878   -18438008.855 7 -14239479.982 9
  22907005.323     2259227.898 6   1844463.587 9
  23587547.144    -2093050.463 5  -1503882.379 9
 94  3  9  0 28 29.9990000  0  6  2 26  9  7 27  4
  21101486.370   -15798943.654 7 -12186440.128 9
  22540284.925    -7625705.370 6  -5803951.921 9
  23461682.425    -3041066.774 5  -2213281.368 9
  20309176.854   -18416660.156 7 -14222844.622 9
  22927101.667     2364835.985 6   1926755.566 9
  23568607.597    -2192580.505 5  -1581438.054 9
 94  3  9  0 28 59.9990000  0  6  2 26  9  7 27  4
  21107102.714   -15769431.772 8 -12163443.851 9
  22547982.690    -7585249.515 6  -5772427.886 9
  23443988.487    -3134050.097 5  -2285735.855 9
  20313318.050   -18394896.969 7 -14205886.289 9
  22947238.972     2470662.304 6   2009217.587 9
  23549681.667    -2292036.531 5  -1658936.058 9
 94  3  9  0 29 29.9990000  0  6  2 26  9  7 27  4
  21112750.206   -15739753.629 8 -12140318.021 9
  22555761.487    -7544371.755 6  -5740575.092 9
  23426318.378    -3226905.059 5  -2358090.321 9
  20317536.003   -18372729.547 7 -14188612.965 9
  22967420.104     2576710.040 6   2091852.142 9
  23530768.987    -2391420.814 5  -1736378.164 9
 94  3  9  0 29 59.9990000  0  6  2 26  9  7 27  4
  21118429.229   -15709910.371 8 -12117063.531 9
  22563618.440    -7503084.710 6  -5708403.384 9
  23408672.706    -3319634.485 5  -2430346.966 9
  20321831.487   -18350158.591 7 -14171025.201 9
  22987640.901     2682973.508 6   2174654.795 9
  23511865.519    -2490760.553 5  -1813785.594 9
 94  3  9  0 30 29.9990000  0  6  2 26  9  7 27  4
  21124140.456   -15679897.802 8 -12093677.110 9
  22571551.081    -7461396.474 6  -5675919.062 9
  23391050.769    -3412242.397 6  -2502508.921 9
  20326206.104   -18327169.222 7 -14153111.401 9
  23007904.987     2789464.453 6   2257634.708 9
  23492970.394    -2590053.339 5  -1891156.405 9
 94  3  9  0 30 59.9990000  0  6  2 26  9  7 27  4
  21129884.894   -15649710.772 8 -12070154.750 9
  22579563.050    -7419292.575 6  -5643110.840 9
  23373448.339    -3504740.792 5  -2574585.546 9
  20330661.011   -18303759.358 7 -14134869.945 9
  23028215.839     2896191.123 6   2340798.280 9
  23474085.042    -2689294.556 5  -1968487.056 9
 94  3  9  0 31 29.9990000  0  6  2 26  9  7 27  4
  21135662.261   -15619350.427 8 -12046497.341 9
  22587657.261    -7376759.105 6  -5609967.885 9
  23355864.394    -3597144.086 5  -2646588.061 9
  20335195.058   -18279932.715 7 -14116303.726 9
  23048569.526     3003155.745 6   2424147.305 9
  23455205.198    -2788509.977 5  -2045797.623 9
 94  3  9  0 31 59.9990000  0  6  2 26  9  7 27  4
  21141473.581   -15588811.364 8 -12022700.666 9
  22595831.753    -7333803.009 6  -5576495.618 9
  23338302.472    -3689436.105 6  -2718503.868 9
  20339809.714   -18255680.399 7 -14097405.817 9
  23068969.159     3110355.774 6   2507679.748 9
  23436332.276    -2887685.747 5  -2123077.273 9
 94  3  9  0 32 29.9990000  0  6  2 26  9  7 27  4
  21147321.808   -15558078.237 8 -11998752.779 9
  22604087.737    -7290416.270 6  -5542687.790 9
  23320764.573    -3781592.504 5  -2790313.993 9
  20344505.659   -18231004.411 7 -14078177.768 9
  23089412.644     3217786.859 6   2591392.223 9
  23417474.229    -2986785.593 5  -2200297.774 9
 94  3  9  0 32 59.9990000  0  6  2 26  9  7 27  4
  21153207.448   -15527150.032 8 -11974652.878 9
  22612425.683    -7246599.823 6  -5508545.111 9
  23303255.917    -3873600.194 5  -2862008.234 9
  20349277.464   -18205928.129 7 -14058637.804 9
  23109894.683     3325421.416 5   2675263.255 9
  23398630.300    -3085811.427 5  -2277460.604 9
 94  3  9  0 33 29.9990000  0  6  2 26  9  7 27  4
  21159130.222   -15496026.046 8 -11950400.424 9
  22620843.542    -7202362.147 6  -5474074.202 9
  23285780.636    -3965438.217 6  -2933570.283 9
  20354124.120   -18180458.208 7 -14038791.116 9
  23130412.183     3433242.281 6   2759279.462 9
  23379802.073    -3184748.940 5  -2354554.607 9
 94  3  9  0 33 59.9990000  0  6  2 26  9  7 27  4
  21165089.245   -15464710.302 8 -11925998.550 9
  22629339.831    -7157718.117 6  -5439286.655 9
  23268338.542    -4057095.538 5  -3004991.509 9
  20359044.269   -18154600.953 7 -14018642.605 9
  23150963.901     3541240.421 5   2843433.805 9
  23360995.034    -3283584.207 5  -2431568.947 9
 94  3  9  0 34 29.9990000  0  6  2 26  9  7 27  4
  21171084.761   -15433203.071 8 -11901447.463 9
  22637912.503    -7112665.624 6  -5404180.832 9
  23250926.386    -4148592.962 5  -3076288.141 9
  20364036.386   -18128369.017 7 -13998202.139 9
  23171548.433     3649412.001 5   2927723.299 9
  23342202.417    -3382335.532 5  -2508517.870 9
 94  3  9  0 34 59.9990000  0  6  2 26  9  7 27  4
  21177113.823   -15401519.144 8 -11876758.694 9
  22646561.370    -7067214.279 6  -5368764.205 9
  23233542.831    -4239947.390 6  -3147473.354 9
  20369098.151   -18101770.814 7 -13977476.270 9
  23192167.378     3757762.300 5   3012152.037 9
  23323423.636    -3481017.848 5  -2585413.025 9
 94  3  9  0 35 29.9990000  0  6  2 26  9  7 27  4
  21183177.190   -15369657.567 8 -11851931.499 9
  22655285.784    -7021370.906 6  -5333042.094 9
  23216185.792    -4331155.602 5  -3218544.643 9
  20374231.878   -18074791.490 7 -13956453.417 9
  23212822.417     3866309.705 5   3096734.369 9
  23304660.870    -3579620.856 5  -2662246.369 9
 94  3  9  0 35 59.9990000  0  6  2 26  9  7 27  4
  21189274.159   -15337617.944 8 -11826965.567 9
  22664081.339    -6975146.634 6  -5297023.183 9
  23198855.409    -4422226.780 5  -3289509.157 9
  20379437.870   -18047431.473 7 -13935133.932 9
  23233518.925     3975065.616 5   3181479.189 9
  23285910.183    -3678154.195 5  -2739025.419 9
 94  3  9  0 36 29.9990000  0  6  2 26  9  7 27  4
  21195407.394   -15305386.638 8 -11801850.270 9
  22672954.214    -6928521.156 6  -5260691.644 9
  23181552.917    -4513153.737 5  -3360361.284 9
  20384718.378   -18019684.490 7 -13913512.906 9
  23254258.011     4084051.217 5   3266402.982 9
  23267177.308    -3776598.790 5  -2815735.322 9
 94  3  9  0 36 59.9990000  0  6  2 26  9  7 27  4
  21201577.948   -15272962.767 8 -11776584.927 9
  22681903.839    -6881491.410 6  -5224045.089 9
  23164282.753    -4603906.427 5  -3431077.623 9
  20390076.519   -17991526.436 7 -13891571.569 9
  23275041.394     4193267.300 5   3351506.357 9
  23248467.526    -3874917.987 5  -2892347.526 9
 94  3  9  0 37 29.9990000  0  6  2 26  9  7 27  4
  21207784.784   -15240342.184 8 -11751166.295 9
  22690930.815    -6834052.826 6  -5187079.964 9
  23147046.628    -4694485.150 5  -3501658.393 9
  20395515.433   -17962945.071 7 -13869300.377 9
  23295865.479     4302701.840 5   3436779.977 9
  23229782.597    -3973105.265 5  -2968856.933 9
 94  3  9  0 37 59.9990000  0  6  2 26  9  7 27  4
  21214028.995   -15207531.512 8 -11725599.544 9
  22700036.448    -6786200.828 6  -5149792.693 9
  23129841.987    -4784898.388 6  -3572110.220 9
  20401034.448   -17933942.442 7 -13846700.926 9
  23316731.362     4412349.627 5   3522219.751 9
  23211124.097    -4071156.056 5  -3045259.970 9
 94  3  9  0 38 29.9990000  0  6  2 26  9  7 27  4
  21220306.331   -15174543.401 8 -11699894.520 9
  22709220.644    -6737939.157 6  -5112186.202 9
  23112667.839    -4875148.622 6  -3642435.035 9
  20406631.792   -17904528.025 7 -13823780.603 9
  23337632.972     4522187.564 5   3607807.690 9
  23192491.808    -4169067.878 5  -3121554.729 9
 94  3  9  0 38 59.9990000  0  6  2 26  9  7 27  4
  21226616.948   -15141381.878 8 -11674054.374 9
  22718478.339    -6689289.200 6  -5074277.153 9
  23095523.847    -4965239.468 6  -3712635.650 9
  20412305.761   -17874712.704 7 -13800547.891 9
  23358567.370     4632196.821 5   3693529.120 9
  23173881.581    -4266859.907 5  -3197756.167 9
 94  3  9  0 39 29.9990000  0  6  2 26  9  7 27  4
  21232958.253   -15108057.171 8 -11648087.065 9
  22727805.565    -6640275.467 6  -5036084.636 9
  23078405.737    -5055195.166 6  -3782730.946 9
  20418048.003   -17844534.380 7 -13777032.312 9
  23379532.987     4742376.645 5   3779383.455 9
  23155289.503    -4364565.580 5  -3273890.312 9
 94  3  9  0 39 59.9990000  0  6  2 26  9  7 27  4
  21239330.573   -15074569.528 8 -11621992.794 9
  22737200.573    -6590904.091 6  -4997613.428 9
  23061315.362    -5145002.458 6  -3852710.610 9
  20423857.519   -17814006.908 7 -13753244.668 9
  23400534.190     4852738.810 5   3865379.893 9
  23136713.144    -4462182.393 5  -3349955.204 9
 94  3  9  0 40 29.9990000  0  6  2 26  9  7 27  4
  21245733.597   -15040920.944 8 -11595773.116 9
  22746661.136    -6541186.555 6  -4958872.496 9
  23044255.800    -5234653.900 6  -3922568.818 9
  20429729.644   -17783148.451 7 -13729199.115 9
  23421567.667     4963268.794 5   3951507.080 9
  23118153.776    -4559715.550 5  -3425954.920 9
 94  3  9  0 40 59.9990000  0  6  2 26  9  7 27  4
  21252167.800   -15007110.216 8 -11569427.097 9
  22756187.651    -6491126.314 6  -4919864.528 9
  23027223.503    -5324155.285 5  -3992310.117 9
  20435663.894   -17751962.322 7 -13704898.232 9
  23442633.526     5073971.442 5   4037768.826 9
  23099607.745    -4657171.298 5  -3501894.325 9
 94  3  9  0 41 29.9990000  0  6  2 26  9  7 27  4
  21258632.808   -14973135.789 8 -11542953.517 9
  22765783.464    -6440698.674 6  -4880570.269 9
  23010222.761    -5413494.872 6  -4061925.330 9
  20441663.792   -17720432.370 7 -13680329.437 9
  23463733.058     5184846.882 5   4124165.196 9
  23081081.300    -4754528.248 5  -3577756.738 9
 94  3  9  0 41 59.9990000  0  6  2 26  9  7 27  4
  21265129.823   -14938993.229 8 -11516348.924 9
  22775452.167    -6389890.774 6  -4840979.710 9
  22993254.394    -5502665.422 6  -4131408.835 9
  20447730.323   -17688553.649 7 -13655488.868 9
  23484860.651     5295874.613 5   4210680.231 9
  23062574.550    -4851779.561 5  -3653536.866 9
 94  3  9  0 42 29.9990000  0  6  2 26  9  7 27  4
  21271661.737   -14904668.043 8 -11489602.025 9
  22785193.308    -6338698.659 6  -4801089.756 9
  22976318.714    -5591663.247 6  -4200757.744 9
  20453866.136   -17656310.439 7 -13630364.288 9
  23506016.792     5407050.934 5   4297311.061 9
  23044088.339    -4948926.507 5  -3729235.667 9
 94  3  9  0 42 59.9990000  0  6  2 26  9  7 27  4
  21278225.784   -14870174.937 8 -11462724.278 9
  22795008.995    -6287118.572 6  -4760897.494 9
  22959413.550    -5680498.951 6  -4269980.338 9
  20460071.722   -17623700.652 7 -13604954.060 9
  23527202.315     5518385.254 5   4384065.013 9
  23025619.831    -5045977.139 6  -3804859.408 9
 94  3  9  0 43 29.9990000  0  6  2 26  9  7 27  4
  21284821.276   -14835513.319 8 -11435715.221 9
  22804896.425    -6235158.962 6  -4720409.496 9
  22942541.651    -5769161.254 6  -4339067.817 9
  20466348.464   -17590715.500 7 -13579251.343 9
  23548419.347     5629876.777 5   4470941.445 9
  23007170.894    -5142927.806 6  -3880405.276 9
 94  3  9  0 43 59.9990000  0  6  2 26  9  7 27  4
  21291447.690   -14800691.705 8 -11408581.495 9
  22814850.151    -6182851.889 6  -4679650.759 9
  22925701.394    -5857660.528 6  -4408028.250 9
  20472693.761   -17557371.280 7 -13553268.829 9
  23569664.792     5741522.630 5   4557938.149 9
  22988739.542    -5239787.984 6  -3955880.632 9
 94  3  9  0 44 29.9990000  0  7  2 26 12  9  7 27  4
  21298104.253   -14765711.668 8 -11381324.325 9
  22824869.339    -6130201.715 6  -4638624.668 9
  23822688.104      -50608.38513    -55671.89619
  22908889.979    -5945998.505 6  -4476863.014 9
  20479108.089   -17523663.344 7 -13527002.906 9
  23590941.854     5853331.689 5   4645062.016 9
  22970327.987    -5336541.401 6  -4031272.801 9
 94  3  9  0 44 59.9990000  0  7  2 26 12  9  7 27  4
  21304789.737   -14730580.960 8 -11353949.744 9
  22834951.667    -6077217.841 6  -4597338.553 9
  23805689.440     -139937.985 3   -125279.315 9
  22892109.979    -6034178.974 6  -4545575.036 9
  20485589.019   -17489606.602 7 -13500465.182 9
  23612245.503     5965289.472 5   4732301.774 9
  22951939.940    -5433169.054 6  -4106566.981 9
 94  3  9  0 45 29.9990000  0  7  2 26 12  9  7 27  4
  21311508.464   -14695270.879 7 -11326435.398 9
  22845096.237    -6023907.576 6  -4555798.106 9
  23788687.284     -229285.936 3   -194901.045 9
  22875362.995    -6122185.491 6  -4614151.488 9
  20492134.847   -17455206.106 7 -13473659.601 9
  23633577.128     6077384.141 5   4819648.196 9
  22933579.628    -5529655.963 6  -4181751.497 9
 94  3  9  0 45 59.9990000  0  7  2 26 12  9  7 27  4
  21318264.050   -14659769.466 7 -11298771.957 9
  22855303.198    -5970271.900 6  -4514004.099 9
  23771682.183     -318651.068 3   -264536.163 9
  22858649.675    -6210013.888 6  -4682589.165 9
  20498743.972   -17420475.925 7 -13446597.116 9
  23654933.878     6189613.037 5   4907099.201 9
  22915245.753    -5625995.819 6  -4256821.428 9
 94  3  9  0 46 29.9990000  0  7  2 26 12  9  7 27  4
  21325057.815   -14624069.500 8 -11270953.797 9
  22865571.308    -5916310.543 6  -4471956.308 9
  23754673.159     -408033.325 3   -334184.632 9
  22841972.909    -6297651.500 6  -4750878.172 9
  20505416.565   -17385409.670 7 -13419272.762 9
  23676315.565     6301979.234 5   4994657.192 9
  22896942.401    -5722177.543 6  -4331768.138 9
 94  3  9  0 46 59.9990000  0  7  2 26 12  9  7 27  4
  21331887.440   -14588179.585 7 -11242987.631 9
  22875897.167    -5862048.197 6  -4429673.983 9
  23737660.034     -497436.636 3   -403849.493 9
  22825332.815    -6385090.876 6  -4819012.713 9
  20512152.433   -17350013.409 7 -13391691.264 9
  23697724.565     6414478.291 5   5082318.722 9
  22878668.628    -5818207.806 6  -4406596.851 9
 94  3  9  0 47 29.9990000  0  7  2 26 12  9  7 27  4
  21338752.558   -14552103.832 7 -11214876.659 9
  22886278.105    -5807496.581 6  -4387166.264 9
  23720642.620     -586861.130 3   -473530.861 9
  22808732.925    -6472329.041 6  -4886990.456 9
  20518950.636   -17314287.958 7 -13363853.248 9
  23719158.370     6527114.295 5   5170086.949 9
  22860421.870    -5914096.959 6  -4481315.588 9
 94  3  9  0 47 59.9990000  0  7  2 26 12  9  7 27  4
  21345648.472   -14515864.042 7 -11186637.866 9
  22896715.487    -5752650.921 6  -4344429.414 9
  23703622.855     -676304.521 3   -543226.951 9
  22792168.870    -6559374.957 6  -4954818.397 9
  20525812.698   -17278228.548 7 -13335755.008 9
  23740617.854     6639883.967 5   5257959.360 9
  22842203.394    -6009838.316 6  -4555919.164 9
 94  3  9  0 48 29.9990000  0  7  2 26 12  9  7 27  4
  21352573.253   -14479475.070 7 -11158282.820 9
  22907210.847    -5697494.737 6  -4301450.598 9
  23686599.097     -765764.126 3   -612935.676 9
  22775639.886    -6646233.666 6  -5022500.463 9
  20532738.245   -17241834.336 7 -13307395.896 9
  23762101.690     6752778.931 5   5345929.367 9
  22824012.300    -6105429.066 6  -4630405.370 9
 94  3  9  0 48 59.9990000  0  7  2 26 12  9  7 27  4
  21359525.190   -14442940.657 7 -11129814.473 9
  22917767.706    -5642019.229 6  -4258222.943 9
  23669572.479     -855240.275 4   -682657.302 9
  22759143.503    -6732921.158 6  -5090049.118 9
  20539724.081   -17205124.586 7 -13278790.880 9
  23783604.214     6865780.555 5   5433982.483 9
  22805848.534    -6200880.082 6  -4704782.714 9
 94  3  9  0 49 29.9990000  0  7  2 26 12  9  7 27  4
  21366505.370   -14406261.044 7 -11101232.957 9
  22928388.870    -5586201.614 6  -4214728.725 9
  23652542.167     -944732.846 4   -752391.715 9
  22742679.144    -6819448.867 6  -5157473.277 9
  20546767.183   -17168112.452 7 -13249950.259 9
  23805124.737     6978871.970 5   5522105.599 9
  22787710.315    -6296198.069 6  -4779056.398 9
 94  3  9  0 49 59.9990000  0  7  2 26 12  9  7 27  4
  21373513.979   -14369432.299 7 -11072535.237 9
  22939078.003    -5530030.860 6  -4170959.327 9
  23635509.362    -1034240.436 4   -822137.827 9
  22726243.175    -6905817.586 6  -5224773.532 9
  20553867.964   -17130797.056 7 -13220873.330 9
  23826662.105     7092052.381 5   5610298.017 9
  22769598.948    -6391376.702 6  -4853221.482 9
 94  3  9  0 50 29.9990000  0  7  2 26 12  9  7 27  4
  21380551.026   -14332446.680 7 -11043715.286 9
  22949829.222    -5473532.370 6  -4126934.567 9
  23618474.097    -1123763.744 4   -891896.185 9
  22709838.261    -6992028.125 6  -5291950.548 9
  20561024.034   -17093191.213 7 -13191570.073 9
  23848217.136     7205321.214 5   5698559.369 9
  22751512.354    -6486422.047 6  -4927282.714 9
 94  3  9  0 50 59.9990000  0  7  2 26 12  9  7 27  4
  21387618.354   -14295311.539 7 -11014778.812 9
  22960636.417    -5416739.635 6  -4082680.511 9
  23601434.690    -1213304.597 4   -961668.217 9
  22693461.479    -7078083.248 6  -5359006.441 9
  20568234.979   -17055297.450 7 -13162042.463 9
  23869789.050     7318680.381 5   5786891.094 9
  22733451.151    -6581332.487 6  -5001238.814 9
 94  3  9  0 51 29.9990000  0  7  2 26 12  9  7 27  4
  21394712.206   -14258033.929 7 -10985731.332 9
  22971497.222    -5359667.665 6  -4038208.879 9
  23584392.019    -1302862.567 4  -1031453.595 9
  22677116.511    -7163975.012 6  -5425935.052 9
  20575502.472   -17017106.997 7 -13132283.673 9
  23891379.995     7432142.393 5   5875302.930 9
  22715417.589    -6676098.346 6  -5075082.259 9
 94  3  9  0 51 59.9990000  0  7  2 26 12  9  7 27  4
  21401834.433   -14220604.087 7 -10956565.233 9
  22982407.089    -5302337.971 6  -3993536.407 9
  23567347.495    -1392433.383 5  -1101248.976 9
  22660807.034    -7249684.838 6  -5492721.904 9
  20582828.128   -16978609.921 7 -13102285.951 9
  23912993.519     7545725.323 5   5963809.039 9
  22697413.159    -6770710.949 6  -5148806.282 9
 94  3  9  0 52 29.9990000  0  7  2 26 12  9  7 27  4
  21408984.479   -14183028.575 7 -10927285.614 9
  22993365.269    -5244749.275 6  -3948662.121 9
  23550300.073    -1482016.406 5  -1171053.860 9
  22644531.190    -7335213.947 6  -5559367.937 9
  20590211.214   -16939810.372 7 -13072052.534 9
  23934630.511     7659426.714 5   6052407.395 9
  22679437.355    -6865175.646 6  -5222415.067 9
 94  3  9  0 52 59.9990000  0  7  2 26 12  9  7 27  4
  21416160.651   -14145318.932 7 -10897901.482 9
  23004375.073    -5186892.623 6  -3903579.042 9
  23533250.136    -1571616.654 5  -1240872.181 9
  22628290.026    -7420561.779 6  -5625872.710 9
  20597652.620   -16900706.371 7 -13041581.884 9
  23956288.714     7773242.408 5   6141094.842 9
  22661489.120    -6959492.036 6  -5295908.278 9
 94  3  9  0 53 29.9990000  0  7  2 26 12  9  7 27  4
  21423365.870   -14107456.322 7 -10868398.156 9
  23015439.667    -5128748.873 6  -3858272.254 9
  23516197.565    -1661226.987 5  -1310698.351 9
  22612087.769    -7505706.480 6  -5692219.195 9
  20605152.065   -16861295.609 7 -13010872.195 9
  23977969.019     7887171.175 5   6229870.428 8
  22643570.589    -7053653.710 6  -5369280.931 9
 94  3  9  0 53 59.9990000  0  7  2 26 12  9  7 27  4
  21430599.425   -14069443.573 7 -10838777.834 9
  23026558.323    -5070321.989 6  -3812744.841 9
  23499143.261    -1750847.429 5  -1380532.412 9
  22595925.401    -7590640.191 6  -5758401.275 9
  20612707.714   -16821591.230 7 -12979933.713 9
  23999665.011     8001192.840 4   6318718.363 9
  22625680.214    -7147670.128 6  -5442540.391 9
 94  3  9  0 54 29.9990000  0  7  2 26 12  9  7 27  4
  21437856.026   -14031308.399 7 -10809062.118 9
  23037728.300    -5011621.780 6  -3767004.461 9
  23482085.964    -1840484.287 5  -1450379.270 9
  22579800.659    -7675375.269 6  -5824428.572 9
  20620314.269   -16781618.440 7 -12948786.086 9
  24021377.956     8115283.211 5   6407619.853 8
  22607816.323    -7241546.090 6  -5515690.409 9
 94  3  9  0 54 59.9990000  0  7  2 26 12  9  7 27  4
  21445136.550   -13993050.908 7 -10779251.085 9
  23048948.050    -4952660.517 6  -3721060.639 9
  23465026.011    -1930134.458 5  -1520236.491 9
  22563717.675    -7759891.587 6  -5890285.402 9
  20627970.979   -16741382.427 7 -12917433.347 9
  24043099.331     8229434.298 5   6496568.646 9
  22589980.472    -7335272.945 6  -5588724.246 9
 94  3  9  0 55 29.9990000  0  7  2 26 12  9  7 27  4
  21452441.011   -13954664.160 7 -10749339.334 9
  23060216.847    -4893443.403 6  -3674917.468 9
  23447964.151    -2019795.079 5  -1590101.858 9
  22547678.886    -7844179.249 6  -5955964.076 9
  20635677.511   -16700884.595 7 -12885876.591 9
  24064831.089     8343634.276 5   6585555.552 8
  22572172.058    -7428857.282 6  -5661647.025 9
 94  3  9  0 55 59.9990000  0  7  2 26 12  9  7 27  4
  21459768.886   -13916155.632 7 -10719332.691 9
  23071531.261    -4833983.704 6  -3628585.273 9
  23430899.847    -2109467.957 5  -1659976.772 9
  22531679.433    -7928253.158 6  -6021476.172 9
  20643433.104   -16660129.326 7 -12854119.236 9
  24086572.667     8457886.444 5   6674583.122 9
  22554390.386    -7522300.776 6  -5734460.068 9
 94  3  9  0 56 29.9990000  0  7  2 26 12  9  7 27  4
  21467123.925   -13877507.202 7 -10689217.029 9
  23082890.644    -4774291.209 6  -3582071.665 9
  23413833.901    -2199151.086 5  -1729859.668 9
  22515719.370    -8012121.945 6  -6086828.435 9
  20651241.034   -16619098.075 7 -12822146.830 9
  24108326.784     8572204.782 5   6763662.241 8
  22536639.526    -7615581.561 6  -5807146.316 9
 94  3  9  0 56 59.9990000  0  7  2 26 12  9  7 27  4
  21474511.081   -13838685.525 7 -10658966.367 9
  23094295.097    -4714360.973 6  -3535372.815 9
  23396767.433    -2288834.912 5  -1799743.124 9
  22499801.355    -8095772.239 6  -6152010.432 9
  20659107.480   -16577758.092 7 -12789933.863 9
  24130096.362     8686601.892 5   6852802.765 7
  22518922.948    -7708681.181 6  -5879691.393 9
 94  3  9  0 57 29.9990000  0  6  2 26 12  9  7  4
  21481932.886   -13799684.587 7 -10628576.025 9
  23105743.909    -4654198.495 6  -3488492.997 9
  23379700.011    -2378523.103 5  -1869629.977 9
  22483919.854    -8179229.398 6  -6217041.946 9
  20667031.526   -16536116.974 7 -12757486.233 9
  22501242.175    -7801592.356 6  -5952089.643 9
 94  3  9  0 57 59.9990000  0  6  2 26 12  9  7  4
  21489388.894   -13760504.365 7 -10598045.982 9
  23117233.729    -4593817.623 6  -3441442.983 9
  23362631.378    -2468217.514 5  -1939521.672 9
  22468074.105    -8262502.705 6  -6281930.199 9
  20675009.487   -16494193.658 7 -12724818.716 9
  22483600.300    -7894302.291 6  -6024331.078 9
 94  3  9  0 58 29.9990000  0  6  2 26 12  9  7  4
  21496878.229   -13721147.468 7 -10567378.267 9
  23128767.487    -4533205.075 6  -3394212.463 9
  23345562.901    -2557914.442 5  -2009415.336 9
  22452264.769    -8345577.251 6  -6346663.563 9
  20683040.901   -16451987.239 7 -12691930.594 9
  22465996.675    -7986807.569 6  -6096413.047 9
 94  3  9  0 58 59.9990000  0  6  2 26 12  9  7  4
  21504398.800   -13681627.757 7 -10536583.682 9
  23140348.644    -4472349.546 6  -3346792.586 9
  23328492.651    -2647619.049 5  -2079314.975 9
  22436493.386    -8428456.037 6  -6411244.393 9
  20691120.425   -16409530.005 7 -12658847.034 9
  22448428.526    -8079129.927 6  -6168352.478 9
 94  3  9  0 59 29.9990000  0  6  2 26 12  9  7  4
  21511948.261   -13641951.983 7 -10505667.493 9
  23151977.456    -4411237.886 6  -3299173.158 9
  23311421.683    -2737327.072 5  -2149217.277 9
  22420760.847    -8511138.141 6  -6475671.971 9
  20699242.784   -16366844.972 7 -12625585.970 9
  22430892.901    -8171281.235 6  -6240158.619 9
 94  3  9  0 59 59.9990000  0  6  2 26 12  9  7  4
  21519528.456   -13602118.964 7 -10474628.776 9
  23163658.058    -4349858.837 6  -3251345.352 9
  23294351.425    -2827031.169 5  -2219116.525 9
  22405068.394    -8593595.899 6  -6539924.715 9
  20707410.831   -16323922.202 7 -12592139.656 9
  22413388.425    -8263265.981 6  -6311834.973 9
 94  3  9  1  0 29.9990000  0  6  2 26 12  9  7  4
  21527135.769   -13562143.666 7 -10443479.188 9
  23175389.159    -4288210.285 6  -3203307.545 9
  23277282.003    -2916731.725 5  -2289013.000 9
  22389418.964    -8675832.219 6  -6604004.934 9
  20715626.339   -16280749.921 7 -12558498.924 9
  22395916.050    -8355083.043 6  -6383380.658 9
 94  3  9  1  0 59.9990000  0  6  2 26 12  9  7  4
  21534768.862   -13522030.744 7 -10412222.364 9
  23187166.714    -4226317.771 6  -3155079.640 9
  23260212.183    -3006433.276 4  -2358910.256 9
  22373808.636    -8757869.871 6  -6667930.336 9
  20723886.394   -16237342.649 7 -12524675.075 9
  22378474.206    -8446740.631 6  -6454802.088 9
 94  3  9  1  1 29.9990000  0  6  2 26 12  9  7  4
  21542422.714   -13481810.327 7 -10380881.775 9
  23198986.472    -4164205.104 6  -3106680.189 9
  23243142.128    -3096138.843 5  -2428810.633 9
  22358235.792    -8839703.434 6  -6731696.707 9
  20732192.964   -16193692.539 7 -12490662.004 9
  22361064.581    -8538231.684 6  -6526093.747 9
 94  3  9  1  1 59.9990000  0  6  2 26 12  9  7  4
  21550095.964   -13441487.760 8 -10349461.586 9
  23210843.433    -4101896.365 6  -3058127.952 9
  23226071.526    -3185846.045 5  -2498712.286 9
  22342699.948    -8921340.711 6  -6795310.138 9
  20740547.151   -16149790.124 7 -12456452.340 9
  22343690.097    -8629533.331 6  -6597237.818 9
 94  3  9  1  2 29.9990000  0  6  2 26 12  9  7  4
  21557788.831   -13401059.744 8 -10317959.229 9
  23222733.440    -4039412.145 6  -3009438.987 9
  23209000.237    -3275554.312 5  -2568614.761 9
  22327200.667    -9002792.004 6  -6858778.637 9
  20748948.909   -16105638.602 7 -12422048.556 9
  22326352.948    -8720644.023 6  -6668233.091 9
 94  3  9  1  2 59.9990000  0  6  2 26 12  9  7  4
  21565505.339   -13360509.607 8 -10286361.715 9
  23234657.495    -3976753.272 6  -2960613.903 9
  23191929.815    -3365258.963 5  -2638514.421 9
  22311740.784    -9084037.441 6  -6922086.736 9
  20757396.558   -16061245.985 7 -12387456.916 9
  22309049.831    -8811566.928 6  -6739082.035 9
 94  3  9  1  3 29.9990000  0  6  2 26 12  9  7  4
  21573246.440   -13319829.758 7 -10254663.128 9
  23246612.659    -3913927.495 6  -2911658.793 9
  23174858.909    -3454966.276 5  -2708416.163 9
  22296323.378    -9165056.959 6  -6985218.797 9
  20765888.573   -16016619.809 7 -12352683.276 9
  22291785.573    -8902291.603 6  -6809776.519 9
 94  3  9  1  3 59.9990000  0  6  2 26 12  9  7  4
  21581017.206   -13278994.256 7 -10222843.251 9
  23258600.097    -3850935.144 6  -2862573.872 9
  23157788.136    -3544673.255 5  -2778317.648 9
  22280948.808    -9245851.408 6  -7048175.487 9
  20774424.284   -15971764.746 7 -12317731.283 9
  22274558.636    -8992819.971 6  -6880318.032 9
 94  3  9  1  4 29.9990000  0  6  2 26 12  9  7  4
  21588817.167   -13238003.097 7 -10190902.084 9
  23270620.440    -3787767.670 6  -2813352.486 9
  23140717.792    -3634378.538 5  -2848217.818 9
  22265617.894    -9326412.037 6  -7110949.953 9
  20783004.370   -15926677.073 7 -12282598.037 9
  22257365.948    -9083167.102 6  -6950718.334 9
 94  3  9  1  4 59.9990000  0  6  2 26 12  9  7  4
  21596646.464   -13196861.015 7 -10158843.317 9
  23282674.706    -3724420.773 6  -2763991.319 9
  23123648.370    -3724077.629 5  -2918113.169 9
  22250332.761    -9406735.756 6  -7173539.837 9
  20791628.589   -15881356.432 7 -12247283.247 9
  22240209.120    -9173328.128 6  -7020973.615 9
 94  3  9  1  5 29.9990000  0  6  2 26 12  9  7  4
  21604503.214   -13155574.220 7 -10126671.784 9
  23294763.706    -3660898.020 6  -2714493.095 9
  23106581.956    -3813762.759 5  -2987997.649 9
  22235090.628    -9486832.818 6  -7235953.099 9
  20800298.362   -15835796.650 7 -12211782.121 9
  22223089.144    -9263293.966 6  -7091076.802 9
 94  3  9  1  5 59.9990000  0  6  2 26 12  9  7  4
  21612383.034   -13114164.558 7 -10094404.513 9
  23306882.948    -3597209.930 6  -2664866.043 9
  23089516.581    -3903441.472 5  -3057877.120 9
  22219884.878    -9566738.615 6  -7298217.324 9
  20809011.370   -15790006.953 7 -12176101.841 9
  22206003.214    -9353080.239 6  -7161040.066 9
 94  3  9  1  6 29.9990000  0  6  2 26 12  9  7  4
  21620288.651   -13072619.151 7 -10062031.471 9
  23319035.339    -3533344.953 6  -2615101.148 9
  23072453.792    -3993108.840 5  -3127747.771 9
  22204717.987    -9646443.332 6  -7360324.865 9
  20817766.128   -15744001.873 7 -12140253.727 9
  22188954.183    -9442671.903 6  -7230851.699 9
 94  3  9  1  6 59.9990000  0  6  2 26 12  9  7  4
  21628219.534   -13030943.760 7 -10029557.146 9
  23331221.604    -3469309.167 6  -2565203.176 9
  23055392.011    -4082768.512 5  -3197612.423 9
  22189591.667    -9725933.055 6  -7422264.871 9
  20826556.003   -15697813.093 7 -12104262.472 9
  22171943.831    -9532062.519 6  -7300506.663 9
 94  3  9  1  7 29.9990000  0  6  2 26 12  9  7  4
  21636175.612   -12989133.595 7  -9996977.804 9
  23343442.058    -3405087.002 6  -2515159.958 9
  23038332.933    -4172415.099 5  -3267466.866 9
  22174509.269    -9805192.478 6  -7484025.424 9
  20835377.683   -15651451.780 7 -12068136.774 9
  22154975.151    -9621233.263 6  -7369990.304 9
 94  3  9  1  7 59.9990000  0  6  2 26 12  9  7  4
  21644158.776   -12947182.618 7  -9964288.735 9
  23355700.347    -3340667.210 6  -2464962.735 9
  23021276.308    -4262048.049 5  -3337310.687 9
  22159474.253    -9884203.480 6  -7545592.413 9
  20844232.386   -15604922.856 7 -12031880.472 9
  22138047.745    -9710184.540 6  -7439302.936 9
 94  3  9  1  8 29.9990000  0  6  2 26 12  9  7  4
  21652169.214   -12905088.181 7  -9931487.881 9
  23367997.175    -3276047.980 6  -2414610.125 9
  23004223.597    -4351660.822 5  -3407138.786 9
  22144490.550    -9962943.946 6  -7606948.586 9
  20853118.597   -15558223.964 7 -11995491.726 9
  22121162.628    -9798918.203 6  -7508445.990 9
 94  3  9  1  8 59.9990000  0  6  2 26 12  9  7  4
  21660204.183   -12862863.682 7  -9898585.676 9
  23380329.534    -3211242.884 6  -2364112.672 9
  22987174.933    -4441251.880 5  -3476949.955 9
  22129554.878   -10041425.546 6  -7668103.049 9
  20862042.003   -15511331.707 7 -11958952.303 9
  22104318.714    -9887434.415 6  -7577419.603 9
 94  3  9  1  9 29.9990000  0  6  2 26 12  9  7  4
  21668266.542   -12820493.934 7  -9865570.290 9
  23392695.401    -3146256.963 6  -2313474.322 9
  22970131.175    -4530817.890 5  -3546741.613 9
  22114665.808   -10119672.330 6  -7729074.533 9
  20871006.417   -15464220.355 7 -11922242.162 9
  22087515.519    -9975735.575 6  -7646225.649 9
 94  3  9  1  9 59.9990000  0  6  2 26 12  9  7  4
  21676359.417   -12777965.548 7  -9832431.298 9
  23405094.511    -3081103.074 6  -2262705.077 9
  22953093.542    -4620349.581 5  -3616506.517 9
  22099821.315   -10197677.325 6  -7789857.614 9
  20880018.222   -15416864.801 7 -11885341.734 9
  22070754.979   -10063813.548 6  -7714857.777 9
 94  3  9  1 10 29.9990000  0  6  2 26 12  9  7  4
  21684481.761   -12735281.126 7  -9799170.714 9
  23417520.964    -3015801.960 6  -2211821.114 9
  22936063.628    -4709841.681 5  -3686240.575 9
  22085023.237   -10275441.862 6  -7850453.319 9
  20889077.792   -15369257.517 7 -11848245.156 9
  22054040.909   -10151648.816 7  -7783300.785 9
 94  3  9  1 10 59.9990000  0  6  2 26 12  9  7  4
  21692631.753   -12692453.248 7  -9765798.355 9
  23429970.667    -2950377.283 5  -2160840.884 9
  22919039.058    -4799305.194 5  -3755952.356 9
  22070268.854   -10352977.974 6  -7910871.043 9
  20898181.011   -15321419.871 7 -11810969.071 9
  22037373.894   -10239233.876 7  -7851548.825 9
 94  3  9  1 11 29.9990000  0  6  2 26 12  9  7  4
  21700808.894   -12649482.655 7  -9732314.775 9
  23442445.378    -2884821.413 5  -2109758.422 9
  22902021.940    -4888730.834 5  -3825634.614 9
  22055560.917   -10430265.391 6  -7971094.969 9
  20907324.690   -15273369.748 7 -11773527.420 9
  22020756.190   -10326557.387 6  -7919593.060 9
 94  3  9  1 11 59.9990000  0  7  2 26 12  9  7 24  4
  21709009.284   -12606391.846 7  -9698737.541 9
  23454943.933    -2819138.857 5  -2058577.242 9
  22885011.909    -4978118.854 5  -3895287.571 9
  22040904.503   -10507286.361 7  -8031111.283 9
  20916504.956   -15225126.294 7 -11735935.126 9
  24012689.870      -84349.87315
  22004189.433   -10413616.286 6  -7987431.099 9
 94  3  9  1 12 29.9990000  0  7  2 26 12  9  7 24  4
  21717230.526   -12563186.313 7  -9665070.889 9
  23467469.972    -2753317.371 5  -2007287.802 9
  22868009.604    -5067466.052 5  -3964908.708 9
  22026298.636   -10584043.170 7  -8090921.756 9
  20925720.394   -15176698.521 7 -11698199.204 9
  23991742.651     -194427.417 5    -11436.88719
  21987671.011   -10500420.535 6  -8055070.720 9
 94  3  9  1 12 59.9990000  0  7  2 26 12  9  7 24  4
  21725475.237   -12519864.179 7  -9631313.399 9
  23480024.370    -2687342.697 5  -1955878.996 9
  22851015.034    -5156772.956 5  -4034498.461 9
  22011742.425   -10660537.638 7  -8150527.804 9
  20934969.409   -15128095.339 7 -11660326.602 9
  23970784.214     -304561.969 5    -97255.781 9
  21971196.628   -10586993.822 7  -8122530.374 9
 94  3  9  1 13 29.9990000  0  7  2 26 12  9  7 24  4
  21733741.854   -12476421.256 7  -9597461.778 9
  23492609.542    -2621204.352 5  -1904342.661 9
  22834028.761    -5246037.510 5  -4104055.212 9
  21997236.581   -10736763.954 7  -8209924.906 9
  20944254.472   -15079302.543 7 -11622306.245 9
  23949816.698     -414745.570 5   -183112.907 8
  21954763.058   -10673352.706 7  -8189822.949 9
 94  3  9  1 13 59.9990000  0  7  2 26 12  9  7 24  4
  21742034.433   -12432844.503 7  -9563505.871 9
  23505226.120    -2554907.513 5  -1852682.788 9
  22817051.519    -5335253.927 5  -4173574.456 9
  21982783.706   -10812716.107 7  -8269108.377 9
  20953579.120   -15030299.132 7 -11584121.770 9
  23928842.276     -524964.633 5   -268997.689 8
  21938369.761   -10759498.681 6  -8256949.629 9
 94  3  9  1 14 29.9990000  0  7  2 26 12  9  7 24  4
  21750352.769   -12389130.433 7  -9529442.966 9
  23517867.831    -2488473.603 5  -1800916.144 9
  22800082.636    -5424425.397 5  -4243058.683 9
  21968381.675   -10888400.271 7  -8328083.035 9
  20962944.386   -14981083.613 7 -11545772.017 9
  23907864.753     -635203.867 5   -354898.179 9
  21922017.909   -10845428.941 7  -8323908.217 9
 94  3  9  1 14 59.9990000  0  7  2 26 12  9  7 24  4
  21758699.800   -12345266.601 7  -9495263.362 9
  23530534.769    -2421909.897 5  -1749048.350 9
  22783124.284    -5513541.873 5  -4312500.045 9
  21954032.706   -10963803.294 7  -8386838.615 9
  20972351.042   -14931654.133 7 -11507255.537 9
  23886885.581     -745447.128 5   -440801.802 9
  21905711.745   -10931118.049 7  -8390678.905 9
 94  3  9  1 15 29.9990000  0  7  2 26 12  9  7 24  4
  21767072.487   -12301267.564 7  -9460978.402 9
  23543221.019    -2355243.713 5  -1697100.705 9
  22766175.019    -5602610.740 5  -4381904.311 9
  21939735.862   -11038932.020 7  -8445380.455 9
  20981794.800   -14882025.099 7 -11468583.555 9
  23865902.854     -855711.344 5   -526721.783 9
  21889454.808   -11016549.752 7  -8457249.009 9
 94  3  9  1 15 59.9990000  0  7  2 26 12  9  7 24  4
  21775470.995   -12257131.764 7  -9426586.877 9
  23555923.659    -2288486.173 5  -1645081.883 9
  22749235.065    -5691630.655 5  -4451270.439 9
  21925490.784   -11113790.935 7  -8503712.054 9
  20991273.448   -14832214.621 7 -11429770.191 9
  23844915.409     -966001.703 5   -612662.148 9
  21873249.472   -11101709.654 7  -8523607.321 9
 94  3  9  1 16 29.9990000  0  7  2 26 12  9  7 24  4
  21783900.128   -12212836.448 7  -9392071.046 9
  23568649.323    -2221616.414 5  -1592975.603 9
  22732306.714    -5780590.252 5  -4520589.565 9
  21911297.956   -11188375.595 7  -8561829.952 9
  21000785.206   -14782230.207 7 -11390821.300 9
  23823921.706    -1076322.357 5   -698626.083 9
  21857098.894   -11186580.295 7  -8589740.240 9
 94  3  9  1 16 59.9990000  0  7  2 26 12  9  7 24  4
  21792360.808   -12168378.651 7  -9357428.615 9
  23581397.026    -2154625.527 5  -1540774.943 9
  22715389.120    -5869492.980 5  -4589864.384 9
  21897156.073   -11262690.623 7  -8619737.741 9
  21010326.823   -14732087.811 7 -11351749.301 9
  23802916.933    -1186702.918 5   -784636.751 9
  21841001.511   -11271173.376 7  -8655656.884 9
 94  3  9  1 17 29.9990000  0  7  2 26 12  9  7 24  4
  21800853.378   -12123748.913 7  -9322652.191 9
  23594170.362    -2087506.445 5  -1488474.391 9
  22698483.956    -5958331.089 5  -4659088.847 9
  21883066.901   -11336729.537 7  -8677430.380 9
  21019900.159   -14681781.373 7 -11312549.484 9
  23781902.362    -1297132.418 5   -870685.556 9
  21824957.058   -11355486.105 7  -8721355.072 9
 94  3  9  1 17 59.9990000  0  7  2 26 12  9  7 24  4
  21809381.120   -12078935.062 7  -9287732.310 9
  23606966.901    -2020254.201 5  -1436070.084 9
  22681590.433    -6047107.142 5  -4728264.952 9
  21869031.058   -11410488.183 7  -8734904.624 9
  21029503.417   -14631315.977 7 -11273225.803 9
  23760880.878    -1407604.312 5   -956767.419 9
  21808964.128   -11439527.771 7  -8786842.040 9
 94  3  9  1 18 29.9990000  0  7  2 26 12  9  7 24  4
  21817941.839   -12033946.211 7  -9252676.066 9
  23619788.276    -1952877.231 5  -1383568.567 9
  22664709.620    -6135816.095 5  -4797388.779 9
  21855051.136   -11483952.625 7  -8792149.618 9
  21039138.706   -14580681.028 7 -11233769.999 9
  23739852.651    -1518104.555 5  -1042871.371 9
  21793023.495   -11523293.332 6  -8852113.864 9
 94  3  9  1 18 59.9990000  0  7  2 26 12  9  7 24  4
  21826531.862   -11988806.671 7  -9217502.401 9
  23632629.464    -1885398.040 5  -1330987.420 9
  22647842.292    -6224454.767 5  -4866457.835 9
  21841131.081   -11557105.150 7  -8849151.566 9
  21048807.409   -14529870.543 7 -11194177.416 9
  23718824.925    -1628605.444 5  -1128975.815 9
  21777137.323   -11606777.191 7  -8917166.176 9
 94  3  9  1 19 29.9990000  0  7  2 26 12  9  7 24  4
  21835147.776   -11943530.331 7  -9182222.143 9
  23645489.698    -1817820.172 5  -1278329.373 9
  22630988.558    -6313021.433 5  -4935470.792 9
  21827270.886   -11629938.337 7  -8905904.683 9
  21058509.058   -14478887.084 7 -11154450.050 9
  23697800.776    -1739087.982 5  -1215065.988 9
  21761307.284   -11689967.803 7  -8981989.993 9
 94  3  9  1 19 59.9990000  0  7  2 26 12  9  7 24  4
  21843785.644   -11898135.390 7  -9146849.458 9
  23658366.167    -1750149.243 5  -1225598.810 9
  22614148.831    -6401514.490 5  -5004426.376 9
  21813472.769   -11702448.391 7  -8962406.009 9
  21068244.620   -14427727.134 7 -11114585.161 9
  23676778.097    -1849560.401 5  -1301148.267 9
  21745532.151   -11772866.316 7  -9046586.193 9
 94  3  9  1 20 29.9990000  0  7  2 26 12  9  7 24  4
  21852443.433   -11852637.122 7  -9111396.275 9
  23671260.651    -1682386.532 5  -1172796.709 9
  22597324.808    -6489925.065 5  -5073317.706 9
  21799734.823   -11774638.883 7  -9018658.321 9
  21078015.112   -14376384.346 7 -11074577.798 9
  23655760.237    -1960011.212 5  -1387213.719 9
  21729813.683   -11855467.951 7  -9110951.065 9
 94  3  9  1 20 59.9990000  0  7  2 26 12  9  7 24  4
  21861122.964   -11807024.926 7  -9075854.300 9
  23684173.862    -1614533.355 5  -1119924.147 9
  22580515.362    -6578257.851 5  -5142148.416 9
  21786054.339   -11846533.204 7  -9074679.851 9
  21087817.714   -14324870.507 7 -11034437.155 9
  23634742.683    -2070460.748 5  -1473278.172 9
  21714150.386   -11937778.656 7  -9175089.234 9
 94  3  9  1 21 29.9990000  0  7  2 26 12  9  7 24  4
  21869828.831   -11761276.028 7  -9040205.819 9
  23697105.175    -1546574.345 5  -1066969.103 9
  22563721.464    -6666510.508 5  -5210916.683 9
  21772426.198   -11918149.858 7  -9130485.016 9
  21097653.026   -14273186.329 7 -10994163.780 9
  23613721.675    -2180924.294 5  -1559353.553 9
  21698541.589   -12019803.012 7  -9239004.278 9
 94  3  9  1 21 59.9990000  0  7  2 26 12  9  7 24  4
  21878564.308   -11715372.301 7  -9004436.678 9
  23710058.354    -1478506.966 5  -1013929.628 9
  22546945.409    -6754669.443 5  -5279611.919 9
  21758852.394   -11989479.915 7  -9186066.863 9
  21107524.269   -14221312.676 7 -10953742.760 9
  23592699.894    -2291396.494 5  -1645435.667 9
  21682989.058   -12101529.748 7  -9302687.405 9
 94  3  9  1 22 29.9990000  0  7  2 26 12  9  7 24  4
  21887331.308   -11669299.770 7  -8968536.009 9
  23723031.237    -1410339.371 5   -960812.060 9
  22530185.753    -6842740.733 5  -5348238.855 9
  21745332.987   -12060525.534 7  -9241427.068 9
  21117428.698   -14169263.795 7 -10913185.198 9
  23571675.550    -2401880.003 5  -1731526.604 9
  21667494.831   -12182952.131 7  -9366133.377 9
 94  3  9  1 22 59.9990000  0  7  2 26 12  9  7 24  4
  21896134.753   -11623038.924 7  -8932488.596 9
  23736021.925    -1342071.748 5   -907616.535 9
  22513443.651    -6930720.444 5  -5416794.429 9
  21731870.948   -12131268.128 7  -9296551.145 9
  21127365.026   -14117047.543 7 -10872497.216 9
  23550648.870    -2512374.997 5  -1817626.495 9
  21652061.151   -12264058.750 7  -9429333.293 9
 94  3  9  1 23 29.9990000  0  7  2 26 12  9  7 24  4
  21904971.620   -11576602.689 7  -8896304.521 9
  23749032.698    -1273694.631 5   -854335.709 9
  22496720.511    -7018601.156 5  -5485272.861 9
  21718473.550   -12201671.805 7  -9351411.132 9
  21137332.815   -14064666.176 7 -10831680.579 9
  23529624.729    -2622856.412 5  -1903715.807 9
  21636689.519   -12344839.171 7  -9492279.035 9
 94  3  9  1 23 59.9990000  0  7  2 26 12  9  7 24  4
  21913838.347   -11530005.540 7  -8859995.054 9
  23762060.729    -1205233.175 5   -800989.149 9
  22480015.589    -7106386.096 5  -5553676.667 9
  21705143.034   -12271724.285 7  -9405997.458 9
  21147329.995   -14012130.998 7 -10790744.085 9
  23508604.073    -2733319.384 5  -1989790.729 9
  21621379.558   -12425290.648 7  -9554968.448 9
 94  3  9  1 24 29.9990000  0  7  2 26 12  9  7 24  4
  21922736.605   -11483243.256 7  -8823556.906 9
  23775104.573    -1136686.444 5   -747576.136 9
  22463330.479    -7194066.511 5  -5621999.018 9
  21691879.026   -12341428.930 7  -9460312.744 9
  21157356.347   -13959443.172 7 -10749688.644 9
  23487589.956    -2843748.937 5  -2075839.630 9
  21606132.144   -12505416.495 7  -9617404.131 9
 94  3  9  1 24 59.9990000  0  7  2 26 12  9  7 24  4
  21931663.683   -11436333.977 7  -8787004.222 9
  23788164.120    -1068061.246 5   -694102.008 9
  22446665.159    -7281643.349 5  -5690240.674 9
  21678676.448   -12410806.305 7  -9514373.020 9
  21167409.573   -13906612.585 7 -10708521.966 9
  23466582.542    -2954142.186 5  -2161860.235 9
  21590943.651   -12585230.572 7  -9679596.875 9
 94  3  9  1 25 29.9990000  0  7  2 26 12  9  7 24  4
  21940616.823   -11389282.617 7  -8750340.828 9
  23801238.073     -999361.175 5   -640569.505 9
  22430020.964    -7369108.034 5  -5758394.931 9
  21665535.136   -12479863.091 7  -9568183.479 9
  21177492.987   -13853624.671 7 -10667232.686 9
  23445584.870    -3064483.328 5  -2247840.240 9
  21575816.284   -12664726.256 7  -9741541.521 9
 94  3  9  1 25 59.9990000  0  7  2 26 12  9  7 24  4
  21949598.003   -11342088.097 7  -8713565.875 9
  23814323.339     -930592.994 5   -586983.940 9
  22413398.339    -7456461.715 5  -5826462.689 9
  21652450.042   -12548628.769 7  -9621767.106 9
  21187606.940   -13800473.073 7 -10625815.871 9
  23424595.667    -3174781.532 5  -2333786.793 9
  21560749.284   -12743904.360 7  -9803238.700 9
 94  3  9  1 26 29.9990000  0  7  2 26 12  9  7 24  4
  21958607.034   -11294746.500 7  -8676676.326 9
  23827424.440     -861745.480 5   -533336.564 9
  22396797.394    -7543699.897 6  -5894440.455 9
  21639420.315   -12617099.661 7  -9675121.030 9
  21197753.433   -13747154.420 7 -10584268.872 9
  23403615.269    -3285033.991 5  -2419697.713 9
  21545743.495   -12822759.017 7  -9864683.841 9
 94  3  9  1 26 59.9990000  0  7  2 26 12  9  7 24  4
  21967645.136   -11247249.001 7  -8639665.295 9
  23840540.800     -792820.937 5   -479629.162 9
  22380219.558    -7630818.375 6  -5962324.946 9
  21626453.065   -12685243.851 7  -9728220.383 9
  21207931.339   -13693670.189 7 -10542592.855 9
  23382643.573    -3395239.781 5  -2505572.244 9
  21530802.589   -12901274.710 7  -9925864.867 9
 94  3  9  1 27 29.9990000  0  7  2 26 12  9  7 24  4
  21976715.979   -11199581.492 7  -8602521.782 9
  23853670.964     -723820.438 5   -425862.576 9
  22363664.386    -7717815.254 6  -6030114.680 9
  21613550.815   -12753041.533 7  -9781049.723 9
  21218142.222   -13640012.059 7 -10500781.333 9
  23361679.690    -3505404.755 5  -2591414.997 9
  21515926.003   -12979452.454 7  -9986782.551 9
 94  3  9  1 27 59.9990000  0  7  2 26 12  9  7 24  4
  21985821.675   -11151731.150 7  -8565235.807 9
  23866816.222     -654741.181 5   -372034.633 9
  22347133.831    -7804683.685 6  -6097804.322 9
  21600718.784   -12820476.208 7  -9833596.203 9
  21228385.456   -13586183.804 7 -10458837.242 9
  23340723.604    -3615531.588 5  -2677228.018 9
  21501111.761   -13057299.550 7 -10047442.585 9
 94  3  9  1 28 29.9990000  0  7  2 26 12  9  7 24  4
  21994964.901   -11103684.776 7  -8527797.077 9
  23879973.659     -585600.716 5   -318158.973 9
  22330628.479    -7891418.958 5  -6165390.208 9
  21587960.722   -12887521.001 7  -9885838.881 9
  21238659.206   -13532193.048 7 -10416766.530 9
  23319777.440    -3725604.161 5  -2762998.778 9
  21486360.558   -13134817.499 7 -10107846.146 9
 94  3  9  1 28 59.9990000  0  7  2 26 12  9  7 24  4
  22004143.050   -11055450.323 7  -8490211.790 9
  23893139.308     -516410.245 5   -264244.375 9
  22314147.729    -7978025.368 5  -6232875.685 9
  21575273.253   -12954190.266 7  -9937788.939 9
  21248961.269   -13478055.777 7 -10374581.652 9
  23298842.284    -3835621.494 5  -2848726.481 9
  21471671.456   -13212010.565 7 -10167996.550 9
 94  3  9  1 29 29.9990000  0  7  2 26 12  9  7 24  4
  22013355.636   -11007038.559 7  -8452488.341 9
  23906316.870     -447160.847 5   -210283.839 9
  22297692.987    -8064495.450 5  -6300254.938 9
  21562655.940   -13020498.446 7  -9989457.643 9
  21259291.628   -13423770.939 7 -10332281.779 9
  23277919.784    -3945568.559 5  -2934399.431 9
  21457045.034   -13288871.776 7 -10227888.368 9
 94  3  9  1 29 59.9990000  0  7  2 26 12  9  7 24  4
  22022600.847   -10958456.581 7  -8414632.260 9
  23919504.284     -377861.944 5   -156284.726 9
  22281265.003    -8150824.705 5  -6367524.455 9
  21550108.175   -13086437.844 7 -10040838.976 9
  21269648.136   -13369347.335 7 -10289873.783 9
  23257013.472    -4055430.634 5  -3020006.140 9
  21442486.151   -13365380.528 7 -10287505.543 9
 94  3  9  1 30 29.9990000  0  7  2 26 12  9  7 24  4
  22031878.519   -10909704.921 7  -8376643.963 9
  23932701.190     -308511.878 5   -102245.763 9
  22264864.339    -8237011.212 5  -6434682.742 9
  21537628.604   -13152017.701 7 -10091940.146 9
  21280032.604   -13314774.278 7 -10247349.321 9
  23236124.878    -4165200.608 5  -3105541.088 9
  21427998.339   -13441512.682 7 -10346829.263 9
 94  3  9  1 30 59.9990000  0  7  2 26 12  9  7 24  4
  22041185.456   -10860793.316 7  -8338531.036 9
  23945908.401     -239111.437 5    -48167.532 9
  22248490.089    -8323057.741 5  -6501731.951 9
  21525213.948   -13217257.096 7 -10142776.019 9
  21290445.237   -13260055.643 7 -10204711.420 9
  23215250.690    -4274896.610 5  -3191018.385 9
  21413582.894   -13517266.526 7 -10405858.205 9
 94  3  9  1 31 29.9990000  0  7  2 26 12  9  7 24  4
  22050523.167   -10811722.207 7  -8300293.817 9
  23959123.534     -169668.165 5      5944.073 9
  22232143.487    -8408959.855 6  -6568668.627 9
  21512868.308   -13282134.872 7 -10193330.115 9
  21300888.253   -13205177.113 7 -10161948.933 9
  23194390.276    -4384517.787 5  -3276437.388 9
  21399240.136   -13592639.031 7 -10464589.990 9
 94  3  9  1 31 59.9990000  0  7  2 26 12  9  7 24  4
  22059894.401   -10762475.873 7  -8261920.066 9
  23972344.151     -100188.797 5     60083.796 9
  22215824.487    -8494715.948 6  -6635491.526 9
  21500593.839   -13346635.873 7 -10243590.624 9
  21311363.167   -13150130.961 7 -10119055.827 9
  23173540.800    -4494080.115 5  -3361810.536 9
  21384970.261   -13667627.292 7 -10523022.364 9
 94  3  9  1 32 29.9990000  0  7  2 26 12  9  7 24  4
  22069298.253   -10713060.255 7  -8223414.399 9
  23985573.706      -30664.269 5    114258.708 9
  22199533.425    -8580326.926 6  -6702201.342 9
  21488389.269   -13410771.955 7 -10293566.777 9
  21321868.394   -13094926.843 7 -10076039.627 9
  23152702.933    -4603584.445 5  -3447138.511 9
  21370771.315   -13742243.885 7 -10581165.135 9
 94  3  9  1 32 59.9990000  0  7  2 26 12  9  7 24  4
  22078735.284   -10663467.350 7  -8184770.575 9
  23998814.878       38917.678 5    168478.362 9
  22183272.604    -8665777.647 6  -6768786.291 9
  21476261.081   -13474505.797 7 -10343229.490 9
  21332400.472   -13039579.491 7 -10032911.808 9
  23131879.222    -4713011.089 5  -3532405.915 9
  21356643.628   -13816485.708 7 -10639015.870 9
 94  3  9  1 33 29.9990000  0  7  2 26 12  9  7 24  4
  22088204.745   -10613707.075 7  -8145996.351 9
  24012066.534      108556.185 5    222742.103 9
  22167041.597    -8751071.894 6  -6835249.305 9
  21464210.097   -13537834.349 7 -10392576.402 9
  21342956.722   -12984105.096 7  -9989685.002 9
  23111070.769    -4822360.911 5  -3617613.498 9
  21342585.362   -13890359.057 7 -10696579.482 9
 94  3  9  1 33 59.9990000  0  8  2 26 12  9  7 24  4  5
  22097706.753   -10563773.005 7  -8107086.694 9
  24025329.769      178256.878 5    277054.291 8
  22150840.425    -8836208.712 6  -6901589.646 9
  21452231.604   -13600782.201 7 -10441626.652 9
  21353533.581   -12928522.642 7  -9946373.991 9
  23090278.558    -4931627.362 5  -3702756.103 9
  21328597.636   -13963866.566 7 -10753858.029 9
  24083308.464      -83975.861 5
 94  3  9  1 34 29.9990000  0  8  2 26 12  9  7 24  4  5
  22107239.651   -10513675.193 7  -8068049.442 9
  24038606.472      248017.904 5    331413.493 9
  22134670.269    -8921183.902 6  -6967804.041 9
  21440321.940   -13663366.819 7 -10490393.867 9
  21364129.370   -12872842.485 7  -9902986.851 9
  23069506.269    -5040786.187 5  -3787814.859 9
  21314678.573   -14037011.550 7 -10810854.092 9
  24066757.769     -170948.756 5    -29376.70419
 94  3  9  1 34 59.9990000  0  8  2 26 12  9  7 24  4  5
  22116805.440   -10463407.168 7  -8028879.567 9
  24051890.355      317829.262 5    385811.902 9
  22118531.175    -9005995.165 6  -7033890.707 9
  21428482.300   -13725585.367 7 -10538875.832 9
  21374745.081   -12817054.267 7  -9859515.503 9
  23048752.456    -5149846.972 5  -3872797.189 9
  21300828.628   -14109792.589 7 -10867566.554 9
  24050188.440     -258023.267 5    -97226.951 9
 94  3  9  1 35 29.9990000  0  8  2 26 12  9  7 24  4  5
  22126404.526   -10412964.597 7  -7989573.665 9
  24065183.237      387685.393 5    440245.196 8
  22102423.620    -9090640.732 6  -7099848.256 9
  21416707.690   -13787461.939 7 -10587091.324 9
  21385387.019   -12761131.149 7  -9815939.042 9
  23028015.925    -5258816.798 5  -3957708.672 9
  21287049.714   -14182201.244 7 -10923988.853 9
  24033601.526     -345183.910 5   -165144.279 9
 94  3  9  1 35 59.9990000  0  8  2 26 12  9  7 24  4  5
  22136038.823   -10362335.108 7  -7950122.121 9
  24078482.683      457578.295 5    494707.164 9
  22086348.370    -9175116.684 6  -7165673.635 9
  21405000.019   -13848985.724 7 -10635031.918 9
  21396057.675   -12705056.935 7  -9772244.845 9
  23007300.276    -5367677.932 5  -4042535.444 9
  21273343.300   -14254228.859 7 -10980114.238 9
  24017004.675     -432403.847 5   -233107.817 9
 94  3  9  1 36 29.9990000  0  8  2 26 12  9  7 24  4  5
  22145708.331   -10311524.702 7  -7910529.608 9
  24091787.394      527492.485 5    549185.717 9
  22070304.894    -9259425.012 6  -7231368.402 9
  21393363.378   -13910133.691 7 -10682679.674 9
  21406758.386   -12648826.076 7  -9728428.584 9
  22986603.401    -5476437.583 5  -4127283.160 9
  21259710.815   -14325867.049 7 -11035936.172 9
  24000395.386     -519682.021 5   -301116.767 9
 94  3  9  1 36 59.9990000  0  8  2 26 12  9  7 24  4  5
  22155412.042   -10260530.181 7  -7870793.625 9
  24105095.104      597424.734 5    603678.363 9
  22054293.792    -9343563.561 6  -7296930.868 9
  21381802.714   -13970885.265 7 -10730018.547 9
  21417489.394   -12592432.302 7  -9684485.377 9
  22965926.058    -5585102.878 6  -4211957.340 9
  21246153.901   -14397108.859 7 -11091449.241 9
  23983776.979     -607013.824 5   -369167.483 9
 94  3  9  1 37 29.9990000  0  7  2 12  9  7 24  4  5
  22165149.331   -10209359.499 7  -7830920.374 9
  22038316.065    -9427526.916 6  -7362356.827 9
  21370320.722   -14031225.767 7 -10777037.105 9
  21428251.394   -12535877.940 7  -9640417.038 9
  22945268.831    -5693654.809 6  -4296543.207 9
  21232675.409   -14467940.904 7 -11146643.010 9
  23967150.167     -694391.468 5   -437253.915 9
 94  3  9  1 37 59.9990000  0  7  2 12  9  7 24  4  5
  22174917.589   -10158026.951 7  -7790920.988 9
  22022371.956    -9511313.965 6  -7427645.400 9
  21358919.854   -14091137.356 7 -10823721.443 9
  21439040.565   -12479180.957 7  -9596237.568 9
  22924636.339    -5802080.184 6  -4381030.452 9
  21219272.769   -14538370.392 7 -11201523.099 9
  23950511.425     -781829.105 5   -505387.104 9
 94  3  9  1 38 29.9990000  0  7  2 12  9  7 24  4  5
  22184715.980   -10106537.096 7  -7750799.024 9
  22006463.581    -9594913.419 6  -7492787.794 9
  21347600.479   -14150619.441 7 -10870071.103 9
  21449855.214   -12422350.345 7  -9551953.968 9
  22904026.401    -5910385.753 6  -4465424.344 9
  21205947.823   -14608394.947 7 -11256087.660 9
  23933858.745     -869333.727 5   -573572.460 9
 94  3  9  1 38 59.9990000  0  7  2 12  9  7 24  4  5
  22194542.245   -10054898.556 7  -7710561.202 9
  21990590.886    -9678325.075 6  -7557783.856 9
  21336362.237   -14209679.466 7 -10916091.894 9
  21460692.737   -12365397.060 7  -9507574.782 9
  22883440.425    -6018565.357 6  -4549720.080 9
  21192697.815   -14678025.153 7 -11310344.934 9
  23917194.214     -956905.783 5   -641810.366 9
 94  3  9  1 39 29.9990000  0  7  2 12  9  7 24  4  5
  22204398.972   -10003099.475 7  -7670198.288 9
  21974754.815    -9761543.895 6  -7622629.662 9
  21325202.495   -14268318.961 7 -10961784.992 9
  21471552.112   -12308329.806 7  -9463106.789 9
  22862880.495    -6126608.445 6  -4633909.444 9
  21179523.987   -14747252.903 7 -11364288.599 9
  23900515.847    -1044548.751 5   -710103.514 9
 94  3  9  1 39 59.9990000  0  7  2 12  9  7 24  4  5
  22214288.909    -9951130.506 7  -7629703.001 9
  21958954.737    -9844573.255 6  -7687327.829 9
  21314121.503   -14326556.182 7 -11007164.637 9
  21482431.440   -12251161.211 7  -9418559.832 9
  22842344.315    -6234527.324 6  -4718002.027 9
  21166424.214   -14816091.277 7 -11417928.859 9
  23883822.847    -1132274.831 5   -778461.445 9
 94  3  9  1 40 29.9990000  0  7  2 12  9  7 24  4  5
  22224213.245    -9898975.793 7  -7589062.972 9
  21943192.589    -9927404.214 6  -7751871.398 9
  21303116.065   -14384388.376 7 -11052228.674 9
  21493329.003   -12193894.381 7  -9373936.329 9
  22821829.831    -6342332.103 6  -4802005.695 9
  21153402.144   -14884524.039 7 -11471253.057 9
  23867115.831    -1220074.811 5   -846876.931 9
 94  3  9  1 40 59.9990000  0  7  2 12  9  7 24  4  5
  22234174.261    -9846631.469 7  -7548275.195 9
  21927468.503   -10010033.984 6  -7816258.210 9
  21292187.995   -14441812.600 7 -11096974.815 9
  21504246.714   -12136519.274 7  -9329228.447 9
  22801339.589    -6450010.796 6  -4885911.111 9
  21140458.995   -14952538.830 7 -11524251.567 9
  23850392.948    -1307951.508 5   -915352.213 9
 94  3  9  1 41 29.9990000  0  7  2 12  9  7 24  4  5
  22244171.878    -9794092.080 7  -7507335.399 9
  21911783.347   -10092460.682 6  -7880486.771 9
  21281337.019   -14498837.525 7 -11141409.811 9
  21515187.120   -12079025.721 7  -9284428.272 9
  22780871.550    -6557569.654 6  -4969723.145 9
  21127597.073   -15020130.951 7 -11576920.719 9
  23833652.237    -1395920.572 5   -983899.454 9
 94  3  9  1 41 59.9990000  0  7  2 12  9  7 24  4  5
  22254206.511    -9741359.446 7  -7466245.049 9
  21896137.511   -10174678.928 6  -7944552.905 9
  21270561.425   -14555463.935 7 -11185534.272 9
  21526152.526   -12021403.692 7  -9239527.987 9
  22760426.112    -6665008.554 6  -5053441.710 9
  21114815.636   -15087297.070 7 -11629257.926 9
  23816896.175    -1483978.683 5  -1052516.093 9
 94  3  9  1 42 29.9990000  0  7  2 12  9  7 24  4  5
  22264277.308    -9688437.149 6  -7425006.896 9
  21880531.620   -10256689.076 6  -8008456.889 9
  21259862.026   -14611688.957 7 -11229345.963 9
  21537142.464   -11963651.184 7  -9194526.030 9
  22740005.769    -6772318.614 6  -5137059.871 9
  21102116.659   -15154029.853 7 -11681257.463 9
  23800122.628    -1572125.822 5  -1121202.131 9
 94  3  9  1 42 59.9990000  0  7  2 12  9  7 24  4  5
  22274386.003    -9635317.930 7  -7383615.300 9
  21864965.425   -10338490.089 6  -8072197.909 9
  21249238.519   -14667516.130 7 -11272847.644 9
  21548159.065   -11905757.321 7  -9149413.922 9
  22719613.698    -6879479.366 6  -5220561.680 9
  21089498.503   -15220337.291 7 -11732925.562 9
  23783330.448    -1660361.746 5  -1189957.336 9
 94  3  9  1 43 29.9990000  0  7  2 12  9  7 24  4  5
  22284532.472    -9581996.443 6  -7342066.090 9
  21849440.136   -10420076.487 6  -8135771.699 9
  21238691.933   -14722937.477 7 -11316033.082 9
  21559200.386   -11847734.855 7  -9104201.609 9
  22699251.253    -6986485.016 6  -5303942.638 9
  21076961.769   -15286217.813 7 -11784261.002 9
  23766527.401    -1748664.343 5  -1258764.504 9
 94  3  9  1 43 59.9990000  0  7  2 12  9  7 24  4  5
  22294716.753    -9528476.272 6  -7300362.071 9
  21833956.511   -10501443.119 6  -8199174.238 9
  21228224.769   -14777941.321 7 -11358893.209 9
  21570264.847   -11789593.274 7  -9058896.473 9
  22678919.550    -7093328.574 6  -5387197.289 9
  21064506.776   -15351669.947 7 -11835262.634 9
  23749715.300    -1837014.559 5  -1327608.764 9
 94  3  9  1 44 29.9990000  0  7  2 12  9  7 24  4  5
  22304938.050    -9474766.384 6  -7258510.209 9
  21818514.401   -10582591.850 6  -8262406.989 9
  21217839.854   -14832516.653 7 -11401419.425 9
  21581350.229   -11731338.368 7  -9013503.031 9
  22658619.003    -7200008.560 6  -5470324.468 9
  21052133.136   -15416695.283 7 -11885931.701 9
  23732894.401    -1925406.104 5  -1396485.236 9
 94  3  9  1 44 59.9990000  0  7  2 12  9  7 24  4  5
  22315192.940    -9420873.656 6  -7216515.893 9
  21803114.355   -10663519.126 6  -8325467.172 9
  21207538.019   -14886653.116 7 -11443603.661 9
  21592455.503   -11672978.193 7  -8968027.559 9
  22638349.065    -7306528.961 6  -5553327.300 9
  21039841.019   -15481288.698 7 -11936264.195 9
  23716068.401    -2013826.318 5  -1465384.066 9
 94  3  9  1 45 30.0000000  0  7  2 12  9  7 24  4  5
  22625274.617    -9366803.698 6  -7174383.457 9
  22087549.156   -10744223.892 6  -8388353.973 9
  21497113.875   -14940339.441 7 -11485437.154 9
  21903372.781   -11614516.138 7  -8922472.705 9
  22917899.891    -7412896.306 6  -5636210.864 9
  21327423.781   -15545449.154 7 -11986259.323 9
  23999030.336    -2102272.580 5  -1534303.184 9
 94  3  9  1 46  0.0000000  0  7  2 12  9  7 24  4  5
  22635599.547    -9312542.836 6  -7132102.268 9
  22072235.539   -10824697.482 6  -8451060.637 9
  21486984.789   -14993568.401 7 -11526914.251 9
  21914520.063   -11555939.960 7  -8876828.913 9
  22897689.703    -7519101.682 6  -5718968.228 9
  21315299.352   -15609165.712 7 -12035908.563 9
  23982191.781    -2190750.905 5  -1603247.291 9
 94  3  9  1 46 30.0000000  0  7  2 12  9  7 24  4  5
  22645961.719    -9258091.829 6  -7089672.916 9
  22056965.469   -10904941.662 6  -8513588.538 9
  21476944.047   -15046333.890 7 -11568030.198 9
  21925685.844   -11497262.469 7  -8831106.182 9
  22877510.469    -7625143.069 6  -5801597.802 9
  21303258.352   -15672441.969 7 -12085214.708 9
  23965349.289    -2279269.699 5  -1672222.933 9
 94  3  9  1 47  0.0000000  0  7  2 12  9  7 24  4  5
  22656360.508    -9203448.767 6  -7047093.913 9
  22041740.039   -10984951.822 6  -8575934.079 9
  21466991.352   -15098634.947 7 -11608784.265 9
  21936870.477   -11438485.630 7  -8785306.038 9
  22857362.531    -7731020.205 6  -5884099.390 9
  21291299.766   -15735283.384 7 -12134182.015 9
  23948495.227    -2367838.757 5  -1741237.730 9
 94  3  9  1 47 30.0000000  0  7  2 12  9  7 24  4  5
  22666792.352    -9148625.189 6  -7004374.246 9
  22026559.117   -11064727.429 6  -8638096.857 9
  21457125.953   -15150478.440 7 -11649181.783 9
  21948074.141   -11379609.989 7  -8739428.908 9
  22837245.836    -7836734.816 6  -5966474.349 9
  21279422.453   -15797697.638 7 -12182816.471 9
  23931627.922    -2456473.675 5  -1810303.822 9
 94  3  9  1 48  0.0000000  0  7  2 12  9  7 24  4  5
  22677257.188    -9093633.719 6  -6961523.764 9
  22011423.141   -11144267.371 6  -8700075.998 9
  21447345.609   -15201873.636 7 -11689229.974 9
  21959294.859   -11320646.925 7  -8693483.660 9
  22817159.438    -7942288.890 6  -6048724.223 9
  21267627.953   -15859680.016 7 -12231114.400 9
  23914747.859    -2545178.669 5  -1879424.559 9
 94  3  9  1 48 30.0000000  0  7  2 12  9  7 24  4  5
  22687751.859    -9038483.409 6  -6918549.497 9
  21996332.750   -11223568.132 6  -8761868.763 9
  21437650.055   -15252824.649 7 -11728932.055 9
  21970533.219   -11261586.660 7  -8647462.662 9
  22797103.828    -8047681.100 6  -6130847.961 9
  21255915.266   -15921229.454 7 -12279074.966 9
  23897854.109    -2633951.930 5  -1948598.462 9
 94  3  9  1 49  0.0000000  0  7  2 12  9  7 24  4  5
  22698276.781    -8983175.290 6  -6875452.254 9
  21981288.625   -11302625.153 6  -8823471.600 9
  21428037.063   -15303340.969 7 -11768295.408 9
  21981792.039   -11202420.440 7  -8601359.107 9
  22777079.781    -8152909.100 6  -6212843.753 9
  21244288.133   -15982331.576 7 -12326686.983 9
  23880947.914    -2722795.403 5  -2017827.089 9
 94  3  9  1 49 30.0000000  0  7  2 12  9  7 24  4  5
  22708832.297    -8927701.916 6  -6832226.255 9
  21966291.078   -11381437.708 6  -8884883.949 9
  21418504.695   -15353435.494 7 -11807330.092 9
  21993069.266   -11143159.076 7  -8555181.417 9
  22757088.828    -8257961.139 6  -6294702.435 9
  21232747.609   -16042976.931 7 -12373943.073 9
  23864031.820    -2811697.807 5  -2087101.645 9
 94  3  9  1 50  0.0000000  0  7  2 12  9  7 24  4  5
  22719425.164    -8872038.829 6  -6788852.432 9
  21951340.313   -11460004.647 6  -8946104.911 9
  21409053.773   -15403098.993 7 -11846028.911 9
  22004365.188   -11083798.250 7  -8508926.221 9
  22737133.195    -8362829.729 6  -6376418.178 9
  21221295.398   -16103158.615 7 -12420837.862 9
  23847103.602    -2900648.414 5  -2156413.750 9
 94  3  9  1 50 30.0000000  0  7  2 12  9  7 24  4  5
  22730055.266    -8816177.121 6  -6745323.828 9
  21936436.820   -11538322.806 6  -9007132.013 9
  21399686.516   -15452322.814 7 -11884385.115 9
  22015680.117   -11024338.051 7  -8462593.597 9
  22717213.164    -8467511.291 6  -6457988.181 9
  21209932.555   -16162870.245 7 -12467366.371 9
  23830168.500    -2989650.232 5  -2225765.773 9
 94  3  9  1 51  0.0000000  0  7  2 12  9  7 24  4  5
  22740723.547    -8760114.866 6  -6701638.961 9
  21921581.164   -11616390.058 6  -9067963.611 9
  21390404.992   -15501097.692 7 -11922391.504 9
  22027010.805   -10964795.929 7  -8416197.132 9
  22697328.711    -8572001.704 6  -6539409.240 9
  21198658.305   -16222116.966 7 -12513532.615 9
  23813221.633    -3078701.509 5  -2295156.328 9
 94  3  9  1 51 30.0000000  0  7  2 12  9  7 24  4  5
  22751432.781    -8703836.456 6  -6657785.659 9
  21906775.180   -11694195.624 6  -9128591.303 9
  21381212.609   -15549403.499 7 -11960032.366 9
  22038358.984   -10905157.542 7  -8369725.665 9
  22677484.430    -8676285.873 6  -6620669.585 9
  21187472.734   -16280898.314 7 -12559336.238 9
  23796268.422    -3167792.149 5  -2364577.564 9
 94  3  9  1 52  0.0000000  0  7  2 12  9  7 24  4  5
  22762182.484    -8647350.493 6  -6613770.634 9
  21892018.938   -11771740.499 6  -9189015.848 9
  21372111.125   -15597232.490 7 -11997301.698 9
  22049727.633   -10845417.623 7  -8323175.073 9
  22657678.180    -8780368.814 6  -6701773.145 9
  21176374.102   -16339221.041 7 -12604782.492 9
  23779304.016    -3256940.512 5  -2434043.773 9
 94  3  9  1 52 30.0000000  0  7  2 12  9  7 24  4  5
  22772964.625    -8590683.991 6  -6569614.919 9
  21877312.492   -11849023.617 6  -9249236.437 9
  21363099.492   -15644590.429 7 -12034203.962 9
  22061113.359   -10785585.994 7  -8276553.022 9
  22637911.805    -8884241.101 6  -6782712.557 9
  21165361.648   -16397090.912 7 -12649875.863 9
  23762324.516    -3346163.558 5  -2503568.189 9
 94  3  9  1 53  0.0000000  0  7  2 12  9  7 24  4  5
  22783784.422    -8533831.690 6  -6525314.435 9
  21862657.031   -11926037.848 6  -9309247.503 9
  21354177.703   -15691472.191 7 -12070735.192 9
  22072519.570   -10725645.514 7  -8229846.152 9
  22618188.781    -8987885.636 6  -6863474.498 9
  21154436.438   -16454504.910 7 -12694614.012 9
  23745334.922    -3435446.321 5  -2573139.102 9
 94  3  9  1 53 30.0000000  0  7  2 12  9  7 24  4  5
  22794638.766    -8476785.691 6  -6480863.015 9
  21848053.492   -12002780.100 6  -9369046.635 9
  21345346.336   -15737882.699 7 -12106899.195 9
  22083947.172   -10665590.675 7  -8183050.170 9
  22598510.383    -9091296.899 6  -6944054.668 9
  21143599.211   -16511453.439 7 -12738989.459 9
  23728335.016    -3524782.612 5  -2642751.756 9
 94  3  9  1 54  0.0000000  0  7  2 12  9  7 24  4  5
  22805529.711    -8419554.001 6  -6436266.882 9
  21833501.414   -12079250.995 6  -9428634.322 9
  21336602.703   -15783834.068 7 -12142705.441 9
  22095394.586   -10605432.203 7  -8136173.434 9
  22578875.234    -9194481.668 6  -7024458.351 9
  21132851.703   -16567933.563 7 -12782999.918 9
  23711323.852    -3614175.256 5  -2712408.307 9
 94  3  9  1 54 30.0000000  0  7  2 12  9  7 24  4  5
  22816458.070    -8362129.511 6  -6391520.533 9
  21819002.539   -12155442.694 6  -9488004.451 9
  21327943.281   -15829334.592 7 -12178160.370 9
  22106862.641   -10545169.988 7  -8089215.871 9
  22559283.625    -9297434.628 6  -7104681.404 9
  21122195.508   -16623931.611 7 -12826634.729 9
  23694307.727    -3703597.066 5  -2782087.608 9
 94  3  9  1 55  0.0000000  0  7  2 12  9  7 24  4  5
  22827424.867    -8304495.670 6  -6346611.073 9
  21804557.242   -12231353.133 6  -9547155.419 9
  21319368.313   -15874396.750 7 -12213273.727 9
  22118347.766   -10484813.441 7  -8042184.793 9
  22539734.070    -9400168.823 6  -7184733.992 9
  21111630.898   -16679447.581 7 -12869893.896 9
  23677290.367    -3793026.466 5  -2851772.801 9
 94  3  9  1 55 30.0000000  0  7  2 12  9  7 24  4  5
  22838430.969    -8246658.407 6  -6301543.077 9
  21790165.797   -12306980.937 6  -9606086.145 9
  21310876.398   -15919023.182 7 -12248047.550 9
  22129847.961   -10424381.237 7  -7995094.758 9
  22520225.406    -9502686.983 6  -7264618.233 9
  21101158.766   -16734479.825 7 -12912776.137 9
  23660269.367    -3882471.136 5  -2921469.900 9
 94  3  9  1 56  0.0000000  0  7  2 12  9  7 24  4  5
  22849472.281    -8188636.538 6  -6256331.226 9
  21775827.570   -12382329.283 6  -9664799.122 9
  21302467.508   -15963209.882 7 -12282478.728 9
  22141361.148   -10363878.701 7  -7947949.925 9
  22500754.945    -9605003.857 6  -7344345.634 9
  21090777.555   -16789033.401 7 -12955285.393 9
  23643243.328    -3971940.656 5  -2991186.342 9
 94  3  9  1 56 30.0000000  0  7  2 12  9  7 24  4  5
  22860549.828    -8130427.883 6  -6210973.839 9
  21761543.719   -12457390.825 6  -9723288.613 9
  21294147.703   -16006933.258 7 -12316548.873 9
  22152888.688   -10303302.604 7  -7900747.764 9
  22481323.547    -9707116.526 6  -7423913.902 9
  21080488.234   -16843105.388 7 -12997419.384 9
  23626215.781    -4061421.775 5  -3060911.854 9
 94  3  9  1 57  0.0000000  0  7  2 12  9  7 24  4  5
  22871661.578    -8072031.813 6  -6165470.425 9
  21747315.523   -12532159.592 6  -9781549.968 9
  21285920.172   -16050168.516 7 -12350238.660 9
  22164430.688   -10242650.044 7  -7853486.028 9
  22461931.727    -9809021.064 6  -7503320.003 9
  21070290.344   -16896694.931 7 -13039177.439 9
  23609182.328    -4150932.353 5  -3130660.290 9
 94  3  9  1 57 30.0000000  0  7  2 12  9  7 24  4  5
  22882810.258    -8013446.706 6  -6119819.688 9
  21733144.344   -12606629.318 6  -9839578.302 9
  21277790.313   -16092891.039 7 -12383528.921 9
  22175989.570   -10181907.835 7  -7806154.431 9
  22442581.797    -9910704.990 6  -7582554.186 9
  21060186.375   -16949790.045 7 -13080550.227 9
  23592140.156    -4240490.161 5  -3200445.542 9
 94  3  9  1 58  0.0000000  0  7  2 12  9  7 24  4  5
  22893992.531    -7954681.515 6  -6074028.632 9
  21719028.891   -12680806.486 6  -9897378.668 9
  21269755.469   -16135113.060 7 -12416429.184 9
  22187564.484   -10121080.841 7  -7758756.766 9
  22423271.273   -10012179.467 6  -7661625.174 9
  21050175.617   -17002397.511 7 -13121543.033 9
  23575087.406    -4330101.994 5  -3270272.877 9
 94  3  9  1 58 30.0000000  0  7  2 12  9  7 24  4  5
  22905210.695    -7895728.769 6  -6028091.437 9
  21704970.234   -12754684.862 6  -9954946.214 9
  21261814.438   -16176842.829 7 -12448945.873 9
  22199154.078   -10060178.450 7  -7711300.357 9
  22404007.234   -10113414.973 6  -7740509.934 9
  21040258.750   -17054509.148 7 -13162149.475 9
  23558027.031    -4419756.006 5  -3340133.088 9
 94  3  9  1 59  0.0000000  0  7  2 12  9  7 24  4  5
  22916465.938    -7836584.269 6  -5982004.808 9
  21690968.883   -12828262.345 6 -10012279.299 9
  21253964.203   -16218098.765 7 -12481093.347 9
  22210756.422    -9999207.099 7  -7663790.206 9
  22384792.039   -10214391.330 6  -7819192.772 9
  21030437.398   -17106121.232 7 -13202366.662 9
  23540957.586    -4509456.770 6  -3410029.712 9
 94  3  9  1 59 30.0000000  0  7  2 12  9  7 24  4  5
  22927757.539    -7777247.744 6  -5935768.571 9
  21677025.539   -12901535.140 6 -10069374.957 9
  21246202.336   -16258884.809 7 -12512874.664 9
  22222371.156    -9938167.904 7  -7616227.194 9
  22365627.102   -10315101.166 6  -7897667.930 9
  21020712.023   -17157228.193 7 -13242190.236 9
  23523881.648    -4599192.433 6  -3479953.541 9
 94  3  9  2  0  0.0000000  0  7  2 12  9  7 24  4  5
  22939083.836    -7717727.369 6  -5889389.058 9
  21663140.688   -12974501.437 6 -10126231.787 9
  21238532.039   -16299195.633 7 -12544285.683 9
  22233999.516    -9877062.063 7  -7568612.247 9
  22346514.633   -10415538.979 6  -7975931.118 9
  21011082.688   -17207831.176 7 -13281621.110 9
  23506801.391    -4688944.998 5  -3549890.524 9
 94  3  9  2  0 30.0000000  0  7  2 12  9  7 24  4  5
  22950446.898    -7658013.410 6  -5842858.709 9
  21649315.539   -13047152.626 6 -10182843.079 9
  21230955.297   -16339008.820 7 -12575308.937 9
  22245643.281    -9815872.645 7  -7520932.173 9
  22327454.938   -10515697.824 6  -8053976.924 9
  21001548.500   -17257933.813 7 -13320662.102 9
  23489721.234    -4778709.446 6  -3619836.768 9
 94  3  9  2  1  0.0000000  0  7  2 12  9  7 24  4  5
  22961845.398    -7598113.030 6  -5796183.109 9
  21635549.484   -13119494.078 6 -10239213.013 9
  21223476.547   -16378310.328 7 -12605933.478 9
  22257304.320    -9754595.719 7  -7473183.912 9
  22308442.984   -10615606.271 6  -8131827.616 9
  20992106.352   -17307550.795 7 -13359324.657 9
  23472631.984    -4868507.841 5  -3689809.487 9
 94  3  9  2  1 30.0000000  0  7  2 12  9  7 24  4  5
  22973279.234    -7538025.338 6  -5749361.531 9
  21621843.406   -13191519.833 6 -10295336.955 9
  21216098.469   -16417081.561 7 -12636144.811 9
  22268981.852    -9693229.862 7  -7425366.354 9
  22289477.117   -10715275.251 6  -8209491.706 9
  20982756.695   -17356685.441 7 -13397611.372 9
  23455539.164    -4958329.032 5  -3759799.973 9
 94  3  9  2  2  0.0000000  0  7  2 12  9  7 24  4  5
  22984750.188    -7477746.614 6  -5702391.093 9
  21608198.391   -13263224.914 6 -10351211.017 9
  21208822.109   -16455320.285 7 -12665941.207 9
  22280675.375    -9631777.522 7  -7377481.410 9
  22270556.102   -10814706.697 6  -8286970.704 9
  20973498.023   -17405339.575 7 -13435523.660 9
  23438443.242    -5048170.150 5  -3829805.955 9
 94  3  9  2  2 30.0000000  0  7  2 12  9  7 24  4  5
  22996258.367    -7417272.942 6  -5655268.760 9
  21594614.141   -13334610.292 6 -10406835.958 9
  21201643.273   -16493047.262 7 -12695338.836 9
  22292381.359    -9570260.825 7  -7329546.315 9
  22251677.477   -10913911.177 6  -8364272.836 9
  20964330.430   -17453513.726 7 -13473061.930 9
  23421342.281    -5138035.046 5  -3899830.510 9
 94  3  9  2  3  0.0000000  0  7  2 12  9  7 24  4  5
  23007803.703    -7356600.337 6  -5607991.413 9
  21581091.625   -13405671.443 6 -10462208.253 9
  21194559.563   -16530268.275 7 -12724342.210 9
  22304095.609    -9508703.356 7  -7281579.448 9
  22232844.656   -11012877.437 6  -8441389.355 9
  20955257.969   -17501191.370 7 -13510213.320 9
  23404238.688    -5227913.835 5  -3969865.863 9
 94  3  9  2  3 30.0000000  0  7  2 12  9  7 24  4  5
  23019388.227    -7295723.257 6  -5560554.737 9
  21567631.484   -13476405.942 6 -10517326.018 9
  21187569.867   -16566999.391 7 -12752963.835 9
  22315817.039    -9447106.372 7  -7233581.794 9
  22214060.352   -11111592.104 6  -8518309.817 9
  20946281.664   -17548361.881 7 -13546969.543 9
  23387134.039    -5317800.900 5  -4039907.685 9
 94  3  9  2  4  0.0000000  0  7  2 12  9  7 24  4  5
  23031008.805    -7234655.729 6  -5512969.642 9
  21554232.805   -13546816.069 6 -10572191.029 9
  21180671.414   -16603252.423 7 -12781212.939 9
  22327547.266    -9385466.171 7  -7185550.463 9
  22195324.586   -11210047.199 6  -8595028.027 9
  20937404.047   -17595014.181 7 -13583321.957 9
  23370025.570    -5407710.834 6  -4109967.323 9
 94  3  9  2  4 30.0000000  0  7  2 12  9  7 24  4  5
  23042666.375    -7173392.196 6  -5465231.837 9
  21540896.586   -13616897.951 6 -10626800.266 9
  21173865.109   -16639021.054 7 -12809084.580 9
  22339286.492    -9323774.258 7  -7137478.832 9
  22176641.328   -11308226.443 6  -8671531.284 9
  20928625.828   -17641144.944 7 -13619267.985 9
  23352912.766    -5497637.928 6  -4180040.333 9
 94  3  9  2  5  0.0000000  0  7  2 12  9  7 24  4  5
  23054361.922    -7111938.123 6  -5417345.561 9
  21527622.898   -13686651.465 6 -10681153.632 9
  21167152.023   -16674298.413 7 -12836573.425 9
  22351039.039    -9262011.724 7  -7089352.178 9
  22158013.578   -11406116.054 6  -8747808.850 9
  20919945.594   -17686760.034 7 -13654812.188 9
  23335794.039    -5587590.756 5  -4250133.428 9
 94  3  9  2  5 30.0000000  0  7  2 12  9  7 24  4  5
  23066092.234    -7050291.388 6  -5369309.155 9
  21514413.680   -13756066.034 6 -10735242.884 9
  21160534.578   -16709074.953 7 -12863672.011 9
  22362809.719    -9200157.789 7  -7041154.301 9
  22139442.391   -11503709.393 6  -8823855.559 9
  20911363.438   -17731858.468 7 -13689953.798 9
  23318672.687    -5677563.561 5  -4320242.084 9
 94  3  9  2  6  0.0000000  0  7  2 12  9  7 24  4  5
  23077859.563    -6988455.017 6  -5321124.997 2
  21501268.938   -13825142.719 6 -10789068.850 9
  21154014.016   -16743339.268 7 -12890371.473 9
  22374595.508    -9138222.117 7  -6992892.734 9
  22120926.273   -11601014.255 6  -8899677.495 9
  20902879.094   -17776444.505 7 -13724696.142 9
  23301551.336    -5767542.471 6  -4390355.479 9
 94  3  9  2  6 30.0000000  0  7  2 12  9  7 24  4  5
  23089666.773    -6926408.273 6
  21488188.906   -13893878.135 6 -10842628.889 9
  21147592.094   -16777087.449 7 -12916668.742 9
  22386396.234    -9076209.584 7  -6944571.267 9
  22102463.906   -11698033.064 6  -8975276.515 9
  20894491.797   -17820520.901 7 -13759041.358 9
  23284429.211    -5857522.065 6  -4460469.416 9
 94  3  9  2  7  0.0000000  0  7  2 12  9  7 24  4  5
  23101511.945    -6864159.819 6     25887.41119
  21475174.008   -13962271.559 6 -10895922.441 9
  21141267.148   -16810323.037 7 -12942566.591 9
  22398210.102    -9014126.591 7  -6896194.910 9
  22084053.570   -11794779.467 6  -9050663.285 9
  20886201.383   -17864085.839 7 -13792988.037 9
  23267303.289    -5947514.565 6  -4530593.419 9
 94  3  9  2  7 30.0000000  0  7  2 12  9  7 24  4  5
  23113397.344    -6801703.644 6     74554.545 9
  21462225.688   -14030315.780 6 -10948943.890 9
  21135040.883   -16843044.257 7 -12968063.635 9
  22410037.531    -8951977.143 7  -6847766.765 9
  22065693.313   -11891262.747 6  -9125845.021 9
  20878012.352   -17907120.648 7 -13826521.635 9
  23250176.523    -6037516.625 6  -4600724.843 9
 94  3  9  2  8  0.0000000  0  7  2 12  9  7 24  4  5
  23125318.961    -6739051.868 6    123374.113 9
  21449343.656   -14098011.215 6 -11001693.557 9
  21128908.797   -16875267.538 7 -12993172.676 9
  22421874.313    -8889771.994 7  -6799295.206 9
  22047383.898   -11987480.886 6  -9200820.155 9
  20869923.984   -17949624.407 7 -13859641.416 9
  23233046.344    -6127537.821 6  -4670871.204 9
 94  3  9  2  8 30.0000000  0  7  2 12  9  7 24  4  5
  23137277.250    -6676216.144 6    172337.003 9
  21436529.164   -14165351.801 6 -11054166.716 9
  21122868.867   -16907007.316 7 -13017904.961 9
  22433722.945    -8827508.911 7  -6750778.519 9
  22029128.070   -12083415.088 6  -9275574.041 9
  20861936.008   -17991601.038 7 -13892350.453 9
  23215910.008    -6217586.609 6  -4741039.047 9
 94  3  9  2  9  0.0000000  0  7  2 12  9  7 24  4  5
  23149264.477    -6613221.849 6    221423.466 9
  21423781.039   -14232342.462 6 -11106367.207 9
  21116919.734   -16938269.687 7 -13042265.239 9
  22445580.023    -8765196.869 6  -6702223.677 9
  22010924.555   -12179073.571 6  -9350113.084 9
  20854046.523   -18033062.177 7 -13924657.805 9
  23198767.945    -6307669.637 6  -4811233.572 9
 94  3  9  2  9 30.0000000  0  7  2 12  9  7 24  4  5
  23161282.938    -6550065.674 6    270636.045 9
  21411100.445   -14298979.439 6 -11158292.095 9
  21111061.125   -16969057.556 7 -13066255.786 9
  22457446.031    -8702840.694 6  -6653634.443 9
  21992777.125   -12274442.354 6  -9424426.385 9
  20846256.164   -18073999.461 7 -13956556.964 9
  23181623.266    -6397765.979 6  -4881438.471 9
 94  3  9  2 10  0.0000000  0  7  2 12  9  7 24  4  5
  23173332.008    -6486743.505 6    319977.982 9
  21398487.594   -14365259.781 6 -11209939.090 9
  21105296.461   -16999349.187 7 -13089859.638 9
  22469319.523    -8640445.155 6  -6605014.531 9
  21974688.539   -12369497.140 6  -9498495.013 9
  20838562.742   -18114428.016 7 -13988059.706 9
  23164477.250    -6487871.411 6  -4951650.442 9
 94  3  9  2 10 30.0000000  0  7  2 12  9  7 24  4  5
  23185418.016    -6423230.141 6    369468.936 9
  21385943.641   -14431178.789 6 -11261304.531 9
  21099631.820   -17029118.953 7 -13113056.855 9
  22481203.172    -8577995.071 6  -6556352.114 9
  21956660.055   -12464236.261 6  -9572317.679 9
  20830967.094   -18154342.827 7 -14019162.129 9
  23147328.141    -6577984.074 6  -5021868.058 9
 94  3  9  2 11  0.0000000  0  7  2 12  9  7 24  4  5
  23197544.031    -6359508.129 6    419122.451 9
  21373469.500   -14496730.450 6 -11312383.724 9
  21094070.938   -17058341.321 7 -13135827.525 9
  22493098.367    -8515489.493 6  -6507646.464 9
  21938690.180   -12558667.111 6  -9645900.127 9
  20823472.898   -18193727.343 7 -14049851.339 9
  23130181.008    -6668094.929 6  -5092084.255 9
 94  3  9  2 11 30.0000000  0  7  2 12  9  7 24  4  5
  23209710.305    -6295571.655 6    468943.068 9
  21361065.305   -14561915.310 6 -11363177.103 9
  21088614.930   -17087012.830 7 -13158168.949 9
  22505002.258    -8452931.455 6  -6458899.927 9
  21920781.438   -12652778.590 6  -9719233.712 9
  20816079.445   -18232576.870 7 -14080123.676 9
  23113034.938    -6758200.982 6  -5162296.709 9
 94  3  9  2 12  0.0000000  0  7  2 12  9  7 24  4  5
  23221919.758    -6231414.199 6    518935.874 9
  21348731.680   -14626729.078 6 -11413681.316 9
  21083264.383   -17115130.606 7 -13180078.900 9
  22516918.430    -8390314.428 6  -6410107.436 9
  21902933.922   -12746567.970 7  -9792316.308 9
  20808787.664   -18270897.409 7 -14109983.814 9
  23095888.734    -6848301.107 6  -5232504.551 9
 94  3  9  2 12 30.0000000  0  7  2 12  9  7 24  4  5
  23234168.852    -6167042.764 6    569095.427 9
  21336468.281   -14691173.839 6 -11463897.992 9
  21078015.102   -17142715.865 7 -13201573.902 9
  22528842.484    -8327648.015 6  -6361276.451 9
  21885143.602   -12840057.438 7  -9865165.217 9
  20801597.211   -18308681.693 7 -14139426.090 9
  23078746.141    -6938386.924 6  -5302701.226 9
 94  3  9  2 13  0.0000000  0  7  2 12  9  7 24  4  5
  23246456.586    -6102471.316 6    619410.835 9
  21324275.031   -14755249.663 6 -11513827.184 9
  21072864.516   -17169782.280 7 -13222664.602 9
  22540774.117    -8264950.609 6  -6312421.321 9
  21867410.227   -12933246.373 7  -9937779.944 9
  20794509.438   -18345929.474 7 -14168450.315 9
  23061607.203    -7028452.234 6  -5372881.945 9
 94  3  9  2 13 30.0000000  0  7  2 12  9  7 24  4  5
  23258783.523    -6037691.135 5    669888.888 9
  21312153.734   -14818946.495 6 -11563461.056 9
  21067810.641   -17196339.060 7 -13243358.187 9
  22552711.953    -8202214.881 6  -6263536.331 9
  21849738.695   -13026111.801 7 -10010142.579 9
  20787521.797   -18382648.505 7 -14197062.524 9
  23044473.117    -7118492.037 6  -5443042.777 9
 94  3  9  2 14  0.0000000  0  7  2 12  9  7 24  4  5
  23271147.359    -5972718.371 5    720517.003 9
  21300104.797   -14882264.068 6 -11612799.404 9
  21062853.492   -17222389.023 7 -13263656.857 9
  22564655.523    -8139451.689 6  -6214629.932 9
  21832126.422   -13118664.922 7 -10082261.858 9
  20780633.383   -18418847.110 7 -14225269.213 9
  23027342.391    -7208518.564 6  -5513193.266 9
 94  3  9  2 14 30.0000000  0  7  2 12  9  7 24  4  5
  23283545.594    -5907567.526 6    771283.879 9
  21288128.461   -14945200.469 6 -11661840.736 9
  21057994.703   -17247922.860 7 -13283553.340 9
  22576604.086    -8076658.931 6  -6165700.503 9
  21814573.922   -13210904.171 7 -10154136.569 9
  20773843.969   -18454528.036 7 -14253072.510 9
  23010208.750    -7298551.380 6  -5583348.648 9
 94  3  9  2 15  0.0000000  0  7  2 12  9  7 24  4  5
  23295975.828    -5842246.783 6    822183.148 9
  21276225.188   -15007751.767 6 -11710581.981 9
  21053235.242   -17272932.687 7 -13303041.504 9
  22588560.875    -8013826.321 6  -6116740.013 9
  21797085.219   -13302807.643 7 -10225749.626 9
  20767150.352   -18489699.907 7 -14280479.137 9
  22993071.852    -7388607.549 6  -5653522.246 9
 94  3  9  2 15 30.0000000  0  7  2 12  9  7 24  4  5
  23308436.352    -5776766.439 6    873206.776 9
  21264394.867   -15069920.860 6 -11759025.404 9
  21048576.609   -17297415.496 7 -13322119.012 9
  22600524.672    -7950955.757 6  -6067749.945 9
  21779659.945   -13394376.142 7 -10297101.664 9
  20760552.703   -18524370.866 7 -14307495.445 9
  22975929.563    -7478692.574 6  -5723718.334 9
 94  3  9  2 16  0.0000000  0  7  2 12  9  7 24  4  5
  23320927.250    -5711127.471 6    924354.005 9
  21252638.156   -15131703.421 6 -11807167.633 9
  21044020.727   -17321357.516 7 -13340775.113 9
  22612496.359    -7888044.181 6  -6018727.925 9
  21762297.305   -13485617.188 7 -10368198.559 9
  20754053.281   -18558527.420 7 -14334110.916 9
  22958780.914    -7568803.634 6  -5793934.691 9
 94  3  9  2 16 30.0000000  0  7  2 12  9  7 24  4  5
  23333452.156    -5645304.523 6    975644.610 9
  21240956.547   -15193090.043 6 -11855001.337 9
  21039566.133   -17344765.018 7 -13359014.715 9
  22624479.633    -7825072.200 6  -5969658.840 9
  21744999.578   -13576518.420 7 -10439030.648 9
  20747653.883   -18592155.529 7 -14360314.612 9
  22941632.750    -7658920.667 6  -5864155.723 9
 94  3  9  2 17  0.0000000  0  7  2 12  9  7 24  4  5
  23346015.016    -5579290.348 6   1027084.196 9
  21229349.188   -15254085.348 6 -11902530.124 9
  21035210.484   -17367657.369 7 -13376852.898 9
  22636472.211    -7762053.127 6  -5920553.057 9
  21727764.336   -13667090.599 7 -10509606.331 9
  20741356.750   -18625247.683 7 -14386100.681 9
  22924486.625    -7749021.839 6  -5934364.400 9
 94  3  9  2 17 30.0000000  0  7  2 12  9  7 24  4  5
  23358615.414    -5513073.790 5   1078681.510 9
  21217817.344   -15314685.631 6 -11949751.096 9
  21030951.891   -17390034.449 7 -13394289.566 9
  22648471.820    -7698992.887 6  -5871415.194 9
  21710589.945   -13757342.008 7 -10579932.065 9
  20735162.203   -18657798.941 7 -14411465.269 9
  22907347.945    -7839089.092 6  -6004546.635 9
 94  3  9  2 18  0.0000000  0  7  2 12  9  7 24  4  5
  23371256.109    -5446644.722 6   1130444.395 9
  21206362.141   -15374883.183 6 -11996658.258 9
  21026792.383   -17411894.771 7 -13411323.572 9
  22660480.719    -7635884.880 6  -5822240.109 9
  21693477.445   -13847267.926 7 -10650004.167 9
  20729072.797   -18689798.071 7 -14436399.625 9
  22890215.688    -7929119.014 6  -6074699.788 9
